<?xml version='1.0' encoding='UTF-8'?><gpx version="1.1" creator="JPX - https://github.com/jenetics/jpx" xmlns="http://www.topografix.com/GPX/1/1"><trk><trkseg><trkpt lat="44.64864869906504" lon="7.612430848678018"><ele>317.0</ele><time>2026-05-02T16:38:46Z</time></trkpt><trkpt lat="44.64873492388488" lon="7.6124238839396785"><ele>317.0</ele><time>2026-05-02T16:38:47Z</time></trkpt><trkpt lat="44.648818856814536" lon="7.612421496022282"><ele>317.0</ele><time>2026-05-02T16:38:48Z</time></trkpt><trkpt lat="44.648918499874036" lon="7.612414242631964"><ele>317.0</ele><time>2026-05-02T16:38:49Z</time></trkpt><trkpt lat="44.649030801412735" lon="7.61239772319708"><ele>317.0</ele><time>2026-05-02T16:38:50Z</time></trkpt><trkpt lat="44.64915222142414" lon="7.6123784821706595"><ele>317.0</ele><time>2026-05-02T16:38:51Z</time></trkpt><trkpt lat="44.64927931783367" lon="7.61235996893051"><ele>317.0</ele><time>2026-05-02T16:38:52Z</time></trkpt><trkpt lat="44.649412881700535" lon="7.612343364691707"><ele>317.0</ele><time>2026-05-02T16:38:53Z</time></trkpt><trkpt lat="44.64954965902992" lon="7.61232767766722"><ele>317.0</ele><time>2026-05-02T16:38:54Z</time></trkpt><trkpt lat="44.649686574496364" lon="7.612308359285969"><ele>316.75</ele><time>2026-05-02T16:38:55Z</time></trkpt><trkpt lat="44.64982137498552" lon="7.612293327775738"><ele>316.5</ele><time>2026-05-02T16:38:56Z</time></trkpt><trkpt lat="44.64995447441256" lon="7.6122851407540955"><ele>316.25</ele><time>2026-05-02T16:38:57Z</time></trkpt><trkpt lat="44.650093079316896" lon="7.612264713364756"><ele>316.0</ele><time>2026-05-02T16:38:58Z</time></trkpt><trkpt lat="44.65024372994841" lon="7.6122417669244395"><ele>315.3333333333333</ele><time>2026-05-02T16:38:59Z</time></trkpt><trkpt lat="44.65040493595734" lon="7.612209229526008"><ele>314.6666666666667</ele><time>2026-05-02T16:39:00Z</time></trkpt><trkpt lat="44.65056179851965" lon="7.612147301903506"><ele>314.0</ele><time>2026-05-02T16:39:01Z</time></trkpt><trkpt lat="44.650709649856054" lon="7.612061106172924"><ele>314.33333333333337</ele><time>2026-05-02T16:39:02Z</time></trkpt><trkpt lat="44.65085134233482" lon="7.611959365327081"><ele>314.6666666666667</ele><time>2026-05-02T16:39:03Z</time></trkpt><trkpt lat="44.65098126494521" lon="7.611845562977568"><ele>315.0</ele><time>2026-05-02T16:39:04Z</time></trkpt><trkpt lat="44.65108019038481" lon="7.611696533435118"><ele>314.3333333333333</ele><time>2026-05-02T16:39:05Z</time></trkpt><trkpt lat="44.65118671608741" lon="7.611546618433509"><ele>313.66666666666663</ele><time>2026-05-02T16:39:06Z</time></trkpt><trkpt lat="44.65129090643746" lon="7.611388919203337"><ele>313.0</ele><time>2026-05-02T16:39:07Z</time></trkpt><trkpt lat="44.65139645590089" lon="7.611224702887134"><ele>312.66666666666663</ele><time>2026-05-02T16:39:08Z</time></trkpt><trkpt lat="44.65150936428634" lon="7.611054956391726"><ele>312.3333333333333</ele><time>2026-05-02T16:39:09Z</time></trkpt><trkpt lat="44.65162595431832" lon="7.610878924705964"><ele>312.0</ele><time>2026-05-02T16:39:10Z</time></trkpt><trkpt lat="44.65173609604528" lon="7.610706843312588"><ele>312.0</ele><time>2026-05-02T16:39:11Z</time></trkpt><trkpt lat="44.651842937482016" lon="7.61053669566506"><ele>312.0</ele><time>2026-05-02T16:39:12Z</time></trkpt><trkpt lat="44.651951157122426" lon="7.610370598605375"><ele>312.0</ele><time>2026-05-02T16:39:13Z</time></trkpt><trkpt lat="44.65205913969802" lon="7.610208198495362"><ele>312.3333333333333</ele><time>2026-05-02T16:39:14Z</time></trkpt><trkpt lat="44.652168655373245" lon="7.61004214414738"><ele>312.66666666666663</ele><time>2026-05-02T16:39:15Z</time></trkpt><trkpt lat="44.65227485546193" lon="7.609879482129553"><ele>313.0</ele><time>2026-05-02T16:39:16Z</time></trkpt><trkpt lat="44.652374506130926" lon="7.609719068200414"><ele>313.0</ele><time>2026-05-02T16:39:17Z</time></trkpt><trkpt lat="44.65247780946526" lon="7.609557204977834"><ele>313.0</ele><time>2026-05-02T16:39:18Z</time></trkpt><trkpt lat="44.65257470056362" lon="7.609388197561313"><ele>313.0</ele><time>2026-05-02T16:39:19Z</time></trkpt><trkpt lat="44.65265899074093" lon="7.60920595515496"><ele>313.0</ele><time>2026-05-02T16:39:20Z</time></trkpt><trkpt lat="44.652733265247484" lon="7.609006346181069"><ele>313.0</ele><time>2026-05-02T16:39:21Z</time></trkpt><trkpt lat="44.6528014635286" lon="7.608802385664942"><ele>313.0</ele><time>2026-05-02T16:39:22Z</time></trkpt><trkpt lat="44.65286598141457" lon="7.608595205116599"><ele>313.0</ele><time>2026-05-02T16:39:23Z</time></trkpt><trkpt lat="44.652929491591216" lon="7.608389182118479"><ele>313.0</ele><time>2026-05-02T16:39:24Z</time></trkpt><trkpt lat="44.65299657725928" lon="7.608185625949"><ele>313.0</ele><time>2026-05-02T16:39:25Z</time></trkpt><trkpt lat="44.653066209215545" lon="7.607979153840387"><ele>313.3333333333333</ele><time>2026-05-02T16:39:26Z</time></trkpt><trkpt lat="44.65313135015673" lon="7.607774713471499"><ele>313.6666666666667</ele><time>2026-05-02T16:39:27Z</time></trkpt><trkpt lat="44.653196434749944" lon="7.6075710370767595"><ele>314.0</ele><time>2026-05-02T16:39:28Z</time></trkpt><trkpt lat="44.65325918757968" lon="7.6073660238078356"><ele>314.0</ele><time>2026-05-02T16:39:29Z</time></trkpt><trkpt lat="44.65330893203032" lon="7.607154995261531"><ele>314.0</ele><time>2026-05-02T16:39:30Z</time></trkpt><trkpt lat="44.65334269074159" lon="7.606938470761895"><ele>314.0</ele><time>2026-05-02T16:39:31Z</time></trkpt><trkpt lat="44.65336392785753" lon="7.606719071742517"><ele>314.0</ele><time>2026-05-02T16:39:32Z</time></trkpt><trkpt lat="44.653374924971146" lon="7.6064978906551"><ele>314.0</ele><time>2026-05-02T16:39:33Z</time></trkpt><trkpt lat="44.65338156717736" lon="7.606287136790634"><ele>314.0</ele><time>2026-05-02T16:39:34Z</time></trkpt><trkpt lat="44.65339510792909" lon="7.606089532758423"><ele>314.0</ele><time>2026-05-02T16:39:35Z</time></trkpt><trkpt lat="44.65342163088124" lon="7.605910666535267"><ele>314.0</ele><time>2026-05-02T16:39:36Z</time></trkpt><trkpt lat="44.65348001077625" lon="7.605750428315448"><ele>314.0</ele><time>2026-05-02T16:39:37Z</time></trkpt><trkpt lat="44.65355239820952" lon="7.605594672681379"><ele>314.0</ele><time>2026-05-02T16:39:38Z</time></trkpt><trkpt lat="44.653647616989005" lon="7.605456856702674"><ele>314.0</ele><time>2026-05-02T16:39:39Z</time></trkpt><trkpt lat="44.65376512703523" lon="7.605348705120044"><ele>313.6666666666667</ele><time>2026-05-02T16:39:40Z</time></trkpt><trkpt lat="44.65389927174123" lon="7.605278602524312"><ele>313.3333333333333</ele><time>2026-05-02T16:39:41Z</time></trkpt><trkpt lat="44.65405027077995" lon="7.6052300329600175"><ele>313.0</ele><time>2026-05-02T16:39:41.999Z</time></trkpt><trkpt lat="44.654212004896195" lon="7.605188602776714"><ele>313.0</ele><time>2026-05-02T16:39:42.999Z</time></trkpt><trkpt lat="44.65437716515337" lon="7.605130518612781"><ele>313.0</ele><time>2026-05-02T16:39:43.999Z</time></trkpt><trkpt lat="44.65454887140726" lon="7.605094342748786"><ele>313.0</ele><time>2026-05-02T16:39:44.999Z</time></trkpt><trkpt lat="44.65470983779033" lon="7.60505884495305"><ele>312.66666666666663</ele><time>2026-05-02T16:39:45.999Z</time></trkpt><trkpt lat="44.654868384944386" lon="7.605020640713708"><ele>312.3333333333333</ele><time>2026-05-02T16:39:46.999Z</time></trkpt><trkpt lat="44.6550268122496" lon="7.6049826422177365"><ele>312.0</ele><time>2026-05-02T16:39:47.999Z</time></trkpt><trkpt lat="44.655187428471656" lon="7.604942746691921"><ele>311.6666666666667</ele><time>2026-05-02T16:39:48.999Z</time></trkpt><trkpt lat="44.65534766918706" lon="7.604903600494543"><ele>311.33333333333337</ele><time>2026-05-02T16:39:49.999Z</time></trkpt><trkpt lat="44.655509664397194" lon="7.604864201487718"><ele>311.0</ele><time>2026-05-02T16:39:50.999Z</time></trkpt><trkpt lat="44.655671547634455" lon="7.604825565245801"><ele>311.0</ele><time>2026-05-02T16:39:51.999Z</time></trkpt><trkpt lat="44.655834656510415" lon="7.604789685223024"><ele>311.0</ele><time>2026-05-02T16:39:52.999Z</time></trkpt><trkpt lat="44.65599701194503" lon="7.604756402785349"><ele>311.0</ele><time>2026-05-02T16:39:53.999Z</time></trkpt><trkpt lat="44.656161094116385" lon="7.60475125953984"><ele>311.0</ele><time>2026-05-02T16:39:54.999Z</time></trkpt><trkpt lat="44.65632027454743" lon="7.6047070821155165"><ele>311.0</ele><time>2026-05-02T16:39:55.999Z</time></trkpt><trkpt lat="44.6564751899104" lon="7.6046883897792945"><ele>311.0</ele><time>2026-05-02T16:39:56.999Z</time></trkpt><trkpt lat="44.65662035600834" lon="7.604666692327541"><ele>311.0</ele><time>2026-05-02T16:39:57.999Z</time></trkpt><trkpt lat="44.65674974040669" lon="7.604648594674123"><ele>311.0</ele><time>2026-05-02T16:39:58.999Z</time></trkpt><trkpt lat="44.656861470614366" lon="7.604632373973116"><ele>311.0</ele><time>2026-05-02T16:39:59.999Z</time></trkpt><trkpt lat="44.65695069519401" lon="7.604617121322207"><ele>311.0</ele><time>2026-05-02T16:40:00.999Z</time></trkpt><trkpt lat="44.65701412068755" lon="7.604602011967209"><ele>311.0</ele><time>2026-05-02T16:40:01.999Z</time></trkpt><trkpt lat="44.65707978280948" lon="7.604519273275428"><ele>311.25</ele><time>2026-05-02T16:40:03.999Z</time></trkpt><trkpt lat="44.65704456655184" lon="7.604382631078273"><ele>311.5</ele><time>2026-05-02T16:40:04.999Z</time></trkpt><trkpt lat="44.65699841068007" lon="7.60425083157824"><ele>311.75</ele><time>2026-05-02T16:40:05.999Z</time></trkpt><trkpt lat="44.6569407341442" lon="7.60409902187284"><ele>312.0</ele><time>2026-05-02T16:40:06.999Z</time></trkpt><trkpt lat="44.65689266939172" lon="7.603925990831449"><ele>312.25</ele><time>2026-05-02T16:40:07.999Z</time></trkpt><trkpt lat="44.6568481410497" lon="7.603739526702442"><ele>312.5</ele><time>2026-05-02T16:40:08.999Z</time></trkpt><trkpt lat="44.656841889050554" lon="7.603549036388071"><ele>312.75</ele><time>2026-05-02T16:40:09.999Z</time></trkpt><trkpt lat="44.65681180990491" lon="7.603368018909022"><ele>313.0</ele><time>2026-05-02T16:40:10.999Z</time></trkpt><trkpt lat="44.65676915182847" lon="7.603201716673997"><ele>313.2</ele><time>2026-05-02T16:40:11.999Z</time></trkpt><trkpt lat="44.65673124804389" lon="7.603049275048336"><ele>313.4</ele><time>2026-05-02T16:40:12.999Z</time></trkpt><trkpt lat="44.656695546993326" lon="7.602905692387058"><ele>313.59999999999997</ele><time>2026-05-02T16:40:13.999Z</time></trkpt><trkpt lat="44.65664727701638" lon="7.6027748815178375"><ele>313.8</ele><time>2026-05-02T16:40:14.999Z</time></trkpt><trkpt lat="44.65661804465146" lon="7.602662060208645"><ele>314.0</ele><time>2026-05-02T16:40:15.999Z</time></trkpt><trkpt lat="44.65660728789816" lon="7.602567952226257"><ele>314.0</ele><time>2026-05-02T16:40:16.999Z</time></trkpt><trkpt lat="44.6566434539063" lon="7.60249029831286"><ele>314.0</ele><time>2026-05-02T16:40:17.999Z</time></trkpt><trkpt lat="44.65674382255966" lon="7.602398668314276"><ele>314.0</ele><time>2026-05-02T16:40:20Z</time></trkpt><trkpt lat="44.65682548701864" lon="7.602401722612818"><ele>314.0</ele><time>2026-05-02T16:40:21Z</time></trkpt><trkpt lat="44.65692518070301" lon="7.602361882548814"><ele>314.0</ele><time>2026-05-02T16:40:22Z</time></trkpt><trkpt lat="44.65704346660057" lon="7.602311722538926"><ele>313.33333333333337</ele><time>2026-05-02T16:40:23Z</time></trkpt><trkpt lat="44.65717665067208" lon="7.60225489832355"><ele>312.6666666666667</ele><time>2026-05-02T16:40:24Z</time></trkpt><trkpt lat="44.657319157580424" lon="7.6021909234832"><ele>312.0</ele><time>2026-05-02T16:40:25Z</time></trkpt><trkpt lat="44.65748014042813" lon="7.602138026533978"><ele>312.0</ele><time>2026-05-02T16:40:26Z</time></trkpt><trkpt lat="44.65765914996474" lon="7.602089377031039"><ele>312.0</ele><time>2026-05-02T16:40:27Z</time></trkpt><trkpt lat="44.65783522314855" lon="7.602048393559306"><ele>312.0</ele><time>2026-05-02T16:40:28Z</time></trkpt><trkpt lat="44.65800814966931" lon="7.602010704801531"><ele>311.0</ele><time>2026-05-02T16:40:29Z</time></trkpt><trkpt lat="44.65816874836886" lon="7.601975704809974"><ele>310.0</ele><time>2026-05-02T16:40:30Z</time></trkpt><trkpt lat="44.65832143634581" lon="7.601942426986442"><ele>309.0</ele><time>2026-05-02T16:40:31Z</time></trkpt><trkpt lat="44.658478665235066" lon="7.60190727223997"><ele>308.6666666666667</ele><time>2026-05-02T16:40:32Z</time></trkpt><trkpt lat="44.65864404006983" lon="7.601868440384446"><ele>308.33333333333337</ele><time>2026-05-02T16:40:33Z</time></trkpt><trkpt lat="44.658811566916036" lon="7.60180604230665"><ele>308.0</ele><time>2026-05-02T16:40:34Z</time></trkpt><trkpt lat="44.658990178291" lon="7.601761863118105"><ele>308.0</ele><time>2026-05-02T16:40:35Z</time></trkpt><trkpt lat="44.65918442133478" lon="7.601737144866062"><ele>308.0</ele><time>2026-05-02T16:40:36Z</time></trkpt><trkpt lat="44.65938321355596" lon="7.601688235440015"><ele>308.0</ele><time>2026-05-02T16:40:37Z</time></trkpt><trkpt lat="44.65958123513173" lon="7.601637995909433"><ele>308.33333333333337</ele><time>2026-05-02T16:40:38Z</time></trkpt><trkpt lat="44.65977588486326" lon="7.60158722172939"><ele>308.6666666666667</ele><time>2026-05-02T16:40:39Z</time></trkpt><trkpt lat="44.6599681499013" lon="7.601526894829017"><ele>309.0</ele><time>2026-05-02T16:40:40Z</time></trkpt><trkpt lat="44.66016844900619" lon="7.601576595219528"><ele>309.0</ele><time>2026-05-02T16:40:41Z</time></trkpt><trkpt lat="44.660378382078186" lon="7.601566414913543"><ele>309.0</ele><time>2026-05-02T16:40:42Z</time></trkpt><trkpt lat="44.66058627754984" lon="7.601509271456973"><ele>309.0</ele><time>2026-05-02T16:40:43Z</time></trkpt><trkpt lat="44.660786686874516" lon="7.601457266688913"><ele>309.0</ele><time>2026-05-02T16:40:44Z</time></trkpt><trkpt lat="44.66098285174946" lon="7.6014185315055345"><ele>309.0</ele><time>2026-05-02T16:40:45Z</time></trkpt><trkpt lat="44.66116914954333" lon="7.6013701954614445"><ele>309.0</ele><time>2026-05-02T16:40:46Z</time></trkpt><trkpt lat="44.66133507129854" lon="7.6013270244259346"><ele>308.8</ele><time>2026-05-02T16:40:47Z</time></trkpt><trkpt lat="44.661476209529184" lon="7.601290301795896"><ele>308.59999999999997</ele><time>2026-05-02T16:40:48Z</time></trkpt><trkpt lat="44.66159672588301" lon="7.601258944749219"><ele>308.4</ele><time>2026-05-02T16:40:49Z</time></trkpt><trkpt lat="44.6616967005333" lon="7.601235688398632"><ele>308.2</ele><time>2026-05-02T16:40:50Z</time></trkpt><trkpt lat="44.66177625164865" lon="7.601219631792806"><ele>308.0</ele><time>2026-05-02T16:40:51Z</time></trkpt><trkpt lat="44.66184101262557" lon="7.6012252396534645"><ele>308.0</ele><time>2026-05-02T16:40:52Z</time></trkpt><trkpt lat="44.66188993152986" lon="7.601285687896525"><ele>308.0</ele><time>2026-05-02T16:40:53Z</time></trkpt><trkpt lat="44.661901696760715" lon="7.6014020303547385"><ele>308.0</ele><time>2026-05-02T16:40:54Z</time></trkpt><trkpt lat="44.661929674088206" lon="7.601538667960673"><ele>308.0</ele><time>2026-05-02T16:40:55Z</time></trkpt><trkpt lat="44.66196217044943" lon="7.601640291724477"><ele>308.0</ele><time>2026-05-02T16:40:56Z</time></trkpt><trkpt lat="44.66205944334788" lon="7.601719608945233"><ele>308.0</ele><time>2026-05-02T16:40:58Z</time></trkpt><trkpt lat="44.662143029103206" lon="7.6016982359338146"><ele>307.8</ele><time>2026-05-02T16:40:59Z</time></trkpt><trkpt lat="44.6622261035559" lon="7.60163496591216"><ele>307.6</ele><time>2026-05-02T16:41:00Z</time></trkpt><trkpt lat="44.6623156887993" lon="7.601558608255075"><ele>307.4</ele><time>2026-05-02T16:41:01Z</time></trkpt><trkpt lat="44.66241715237537" lon="7.601480442313737"><ele>307.2</ele><time>2026-05-02T16:41:02Z</time></trkpt><trkpt lat="44.662522931979076" lon="7.601405862590338"><ele>307.0</ele><time>2026-05-02T16:41:03Z</time></trkpt><trkpt lat="44.662638590216545" lon="7.601355452581494"><ele>307.0</ele><time>2026-05-02T16:41:04Z</time></trkpt><trkpt lat="44.66275187352664" lon="7.601282862572641"><ele>307.0</ele><time>2026-05-02T16:41:05Z</time></trkpt><trkpt lat="44.662868782313794" lon="7.601207949726428"><ele>307.0</ele><time>2026-05-02T16:41:06Z</time></trkpt><trkpt lat="44.66298682565413" lon="7.601132309565563"><ele>307.0</ele><time>2026-05-02T16:41:07Z</time></trkpt><trkpt lat="44.66309641818062" lon="7.601037395890654"><ele>307.25</ele><time>2026-05-02T16:41:08Z</time></trkpt><trkpt lat="44.663213624185786" lon="7.6009678981758215"><ele>307.5</ele><time>2026-05-02T16:41:09Z</time></trkpt><trkpt lat="44.663340214421154" lon="7.600886315731352"><ele>307.75</ele><time>2026-05-02T16:41:10Z</time></trkpt><trkpt lat="44.66348415847932" lon="7.60079173166891"><ele>308.0</ele><time>2026-05-02T16:41:11Z</time></trkpt><trkpt lat="44.66364197464796" lon="7.6006917239445055"><ele>307.33333333333337</ele><time>2026-05-02T16:41:12Z</time></trkpt><trkpt lat="44.66381188781996" lon="7.600587947952458"><ele>306.6666666666667</ele><time>2026-05-02T16:41:13Z</time></trkpt><trkpt lat="44.663988823436526" lon="7.600479000307591"><ele>306.0</ele><time>2026-05-02T16:41:14Z</time></trkpt><trkpt lat="44.66417686374381" lon="7.600365342433089"><ele>306.3333333333333</ele><time>2026-05-02T16:41:15Z</time></trkpt><trkpt lat="44.66437175767147" lon="7.6002461247429185"><ele>306.66666666666663</ele><time>2026-05-02T16:41:16Z</time></trkpt><trkpt lat="44.66457036714537" lon="7.6001247638764005"><ele>307.0</ele><time>2026-05-02T16:41:17Z</time></trkpt><trkpt lat="44.66477534319895" lon="7.600004223138295"><ele>307.0</ele><time>2026-05-02T16:41:18Z</time></trkpt><trkpt lat="44.66498813153058" lon="7.599877472385412"><ele>307.0</ele><time>2026-05-02T16:41:19Z</time></trkpt><trkpt lat="44.66520356747603" lon="7.599750408880466"><ele>307.0</ele><time>2026-05-02T16:41:20Z</time></trkpt><trkpt lat="44.66542297016854" lon="7.599615557324387"><ele>307.0</ele><time>2026-05-02T16:41:21Z</time></trkpt><trkpt lat="44.66563851121765" lon="7.599485932470808"><ele>307.0</ele><time>2026-05-02T16:41:22Z</time></trkpt><trkpt lat="44.66583962103977" lon="7.599369208256755"><ele>307.0</ele><time>2026-05-02T16:41:23Z</time></trkpt><trkpt lat="44.66602180252066" lon="7.599260296107533"><ele>307.0</ele><time>2026-05-02T16:41:24Z</time></trkpt><trkpt lat="44.66617786551097" lon="7.599165826981071"><ele>306.75</ele><time>2026-05-02T16:41:25Z</time></trkpt><trkpt lat="44.666326710670084" lon="7.599084011684617"><ele>306.5</ele><time>2026-05-02T16:41:26Z</time></trkpt><trkpt lat="44.66646405743926" lon="7.599008196135643"><ele>306.25</ele><time>2026-05-02T16:41:27Z</time></trkpt><trkpt lat="44.6665785149094" lon="7.5989407355012615"><ele>306.0</ele><time>2026-05-02T16:41:28Z</time></trkpt><trkpt lat="44.66666608145411" lon="7.598881673749758"><ele>306.0</ele><time>2026-05-02T16:41:29Z</time></trkpt><trkpt lat="44.66674771136594" lon="7.598827887923819"><ele>306.0</ele><time>2026-05-02T16:41:30Z</time></trkpt><trkpt lat="44.666806795715424" lon="7.5987907801464205"><ele>306.0</ele><time>2026-05-02T16:41:31Z</time></trkpt><trkpt lat="44.666931722354654" lon="7.598865813601489"><ele>306.0</ele><time>2026-05-02T16:41:33Z</time></trkpt><trkpt lat="44.66699321465731" lon="7.598956247753548"><ele>306.0</ele><time>2026-05-02T16:41:34Z</time></trkpt><trkpt lat="44.66707145625264" lon="7.599064431698991"><ele>305.25</ele><time>2026-05-02T16:41:35Z</time></trkpt><trkpt lat="44.667161356374294" lon="7.599182917156453"><ele>304.5</ele><time>2026-05-02T16:41:36Z</time></trkpt><trkpt lat="44.667269799808864" lon="7.599265892731916"><ele>303.75</ele><time>2026-05-02T16:41:37Z</time></trkpt><trkpt lat="44.667374069154974" lon="7.599350818067782"><ele>303.0</ele><time>2026-05-02T16:41:38Z</time></trkpt><trkpt lat="44.66748195877448" lon="7.599424987521674"><ele>303.0</ele><time>2026-05-02T16:41:39Z</time></trkpt><trkpt lat="44.66759497524682" lon="7.599490851234682"><ele>303.0</ele><time>2026-05-02T16:41:40Z</time></trkpt><trkpt lat="44.66771130088407" lon="7.599550570264816"><ele>303.0</ele><time>2026-05-02T16:41:41Z</time></trkpt><trkpt lat="44.66782402980997" lon="7.599635233448102"><ele>303.0</ele><time>2026-05-02T16:41:42Z</time></trkpt><trkpt lat="44.66794939284188" lon="7.5996811831317785"><ele>303.0</ele><time>2026-05-02T16:41:43Z</time></trkpt><trkpt lat="44.66805892096879" lon="7.599766723762737"><ele>303.0</ele><time>2026-05-02T16:41:44Z</time></trkpt><trkpt lat="44.668172135160944" lon="7.5998295385528545"><ele>303.0</ele><time>2026-05-02T16:41:44.999Z</time></trkpt><trkpt lat="44.66828286611003" lon="7.599890975558973"><ele>303.0</ele><time>2026-05-02T16:41:45.999Z</time></trkpt><trkpt lat="44.66839103077762" lon="7.5999528768072935"><ele>303.0</ele><time>2026-05-02T16:41:46.999Z</time></trkpt><trkpt lat="44.668490771482944" lon="7.600010250715433"><ele>303.0</ele><time>2026-05-02T16:41:47.999Z</time></trkpt><trkpt lat="44.668572544958785" lon="7.600082351674383"><ele>303.0</ele><time>2026-05-02T16:41:48.999Z</time></trkpt><trkpt lat="44.66864111624722" lon="7.600168429587711"><ele>303.0</ele><time>2026-05-02T16:41:49.999Z</time></trkpt><trkpt lat="44.66866527839382" lon="7.6003128922775085"><ele>303.0</ele><time>2026-05-02T16:41:50.999Z</time></trkpt><trkpt lat="44.66859894518767" lon="7.600467967469857"><ele>303.0</ele><time>2026-05-02T16:41:51.999Z</time></trkpt><trkpt lat="44.668572632655966" lon="7.600622924787724"><ele>303.0</ele><time>2026-05-02T16:41:52.999Z</time></trkpt><trkpt lat="44.668543343504965" lon="7.600797620307508"><ele>303.0</ele><time>2026-05-02T16:41:53.999Z</time></trkpt><trkpt lat="44.66851297539724" lon="7.600989098621909"><ele>303.0</ele><time>2026-05-02T16:41:54.999Z</time></trkpt><trkpt lat="44.66848345402117" lon="7.6011862393056155"><ele>302.75</ele><time>2026-05-02T16:41:55.999Z</time></trkpt><trkpt lat="44.668458066466975" lon="7.6013738207508466"><ele>302.5</ele><time>2026-05-02T16:41:56.999Z</time></trkpt><trkpt lat="44.66843984979619" lon="7.601568754595316"><ele>302.25</ele><time>2026-05-02T16:41:57.999Z</time></trkpt><trkpt lat="44.66843495292345" lon="7.601771165157025"><ele>302.0</ele><time>2026-05-02T16:41:58.999Z</time></trkpt><trkpt lat="44.66846105731606" lon="7.601975787529625"><ele>302.0</ele><time>2026-05-02T16:41:59.999Z</time></trkpt><trkpt lat="44.66848730751041" lon="7.602175138321075"><ele>302.0</ele><time>2026-05-02T16:42:00.999Z</time></trkpt><trkpt lat="44.668509620757625" lon="7.6023798937127145"><ele>302.0</ele><time>2026-05-02T16:42:01.999Z</time></trkpt><trkpt lat="44.66855759113313" lon="7.6025755500715615"><ele>302.0</ele><time>2026-05-02T16:42:02.999Z</time></trkpt><trkpt lat="44.66861984802665" lon="7.60276718661949"><ele>302.0</ele><time>2026-05-02T16:42:03.999Z</time></trkpt><trkpt lat="44.66870851616447" lon="7.602939830679923"><ele>302.0</ele><time>2026-05-02T16:42:04.999Z</time></trkpt><trkpt lat="44.668797953030996" lon="7.603109823809006"><ele>302.0</ele><time>2026-05-02T16:42:05.999Z</time></trkpt><trkpt lat="44.66889126930478" lon="7.60327942414712"><ele>302.0</ele><time>2026-05-02T16:42:06.999Z</time></trkpt><trkpt lat="44.668991286246474" lon="7.603443164294693"><ele>302.0</ele><time>2026-05-02T16:42:07.999Z</time></trkpt><trkpt lat="44.66909645456587" lon="7.603610317253084"><ele>302.0</ele><time>2026-05-02T16:42:08.999Z</time></trkpt><trkpt lat="44.66920236208777" lon="7.603775270065749"><ele>302.0</ele><time>2026-05-02T16:42:09.999Z</time></trkpt><trkpt lat="44.669311031197886" lon="7.603925725053532"><ele>302.0</ele><time>2026-05-02T16:42:10.999Z</time></trkpt><trkpt lat="44.669406299679125" lon="7.604099247321895"><ele>302.0</ele><time>2026-05-02T16:42:11.999Z</time></trkpt><trkpt lat="44.66949751265181" lon="7.604279437706967"><ele>301.6666666666667</ele><time>2026-05-02T16:42:12.999Z</time></trkpt><trkpt lat="44.66958777021605" lon="7.6044614281398895"><ele>301.3333333333333</ele><time>2026-05-02T16:42:13.999Z</time></trkpt><trkpt lat="44.66967865564296" lon="7.604645123067004"><ele>301.0</ele><time>2026-05-02T16:42:14.999Z</time></trkpt><trkpt lat="44.66977175728528" lon="7.604828388136042"><ele>301.0</ele><time>2026-05-02T16:42:15.999Z</time></trkpt><trkpt lat="44.66986674722832" lon="7.605009774797609"><ele>301.0</ele><time>2026-05-02T16:42:16.999Z</time></trkpt><trkpt lat="44.669963815694516" lon="7.605194482696194"><ele>301.0</ele><time>2026-05-02T16:42:17.999Z</time></trkpt><trkpt lat="44.67006082671168" lon="7.605381209484699"><ele>301.0</ele><time>2026-05-02T16:42:18.999Z</time></trkpt><trkpt lat="44.67016193466771" lon="7.6055693610718125"><ele>301.0</ele><time>2026-05-02T16:42:19.999Z</time></trkpt><trkpt lat="44.67026477656594" lon="7.605760467847484"><ele>301.0</ele><time>2026-05-02T16:42:20.999Z</time></trkpt><trkpt lat="44.6703628303261" lon="7.605953538688483"><ele>301.66666666666663</ele><time>2026-05-02T16:42:21.999Z</time></trkpt><trkpt lat="44.670458080482106" lon="7.606139531979957"><ele>302.3333333333333</ele><time>2026-05-02T16:42:22.999Z</time></trkpt><trkpt lat="44.67055287588738" lon="7.606323331024428"><ele>303.0</ele><time>2026-05-02T16:42:24Z</time></trkpt><trkpt lat="44.67064622732953" lon="7.606501719496234"><ele>303.0</ele><time>2026-05-02T16:42:25Z</time></trkpt><trkpt lat="44.670738931723506" lon="7.606682127322097"><ele>303.0</ele><time>2026-05-02T16:42:26Z</time></trkpt><trkpt lat="44.670829309179375" lon="7.6068626586285575"><ele>303.0</ele><time>2026-05-02T16:42:27Z</time></trkpt><trkpt lat="44.67092133562824" lon="7.607042739310598"><ele>302.3333333333333</ele><time>2026-05-02T16:42:28Z</time></trkpt><trkpt lat="44.67101754685942" lon="7.607221002453131"><ele>301.66666666666663</ele><time>2026-05-02T16:42:29Z</time></trkpt><trkpt lat="44.67110028667987" lon="7.607413815129723"><ele>301.0</ele><time>2026-05-02T16:42:30Z</time></trkpt><trkpt lat="44.671200656763915" lon="7.607592827645676"><ele>300.66666666666663</ele><time>2026-05-02T16:42:31Z</time></trkpt><trkpt lat="44.67130778293605" lon="7.607761353262641"><ele>300.3333333333333</ele><time>2026-05-02T16:42:32Z</time></trkpt><trkpt lat="44.671420899908824" lon="7.607924190012055"><ele>300.0</ele><time>2026-05-02T16:42:33Z</time></trkpt><trkpt lat="44.671537593266144" lon="7.608081873003058"><ele>300.0</ele><time>2026-05-02T16:42:34Z</time></trkpt><trkpt lat="44.67166678996532" lon="7.608222484158223"><ele>300.0</ele><time>2026-05-02T16:42:35Z</time></trkpt><trkpt lat="44.671775255721506" lon="7.6083959484412755"><ele>300.0</ele><time>2026-05-02T16:42:36Z</time></trkpt><trkpt lat="44.671900772618045" lon="7.608546786150857"><ele>300.0</ele><time>2026-05-02T16:42:37Z</time></trkpt><trkpt lat="44.672031931960646" lon="7.608685892514578"><ele>300.0</ele><time>2026-05-02T16:42:38Z</time></trkpt><trkpt lat="44.67217596501497" lon="7.608801824870818"><ele>300.0</ele><time>2026-05-02T16:42:39Z</time></trkpt><trkpt lat="44.67233083154826" lon="7.608894837645653"><ele>300.0</ele><time>2026-05-02T16:42:40Z</time></trkpt><trkpt lat="44.67249670069598" lon="7.60893601616483"><ele>300.0</ele><time>2026-05-02T16:42:41Z</time></trkpt><trkpt lat="44.672657241646746" lon="7.608982295952234"><ele>300.0</ele><time>2026-05-02T16:42:42Z</time></trkpt><trkpt lat="44.67281525017894" lon="7.608997448855457"><ele>300.0</ele><time>2026-05-02T16:42:43Z</time></trkpt><trkpt lat="44.67296152290369" lon="7.609009644850031"><ele>300.0</ele><time>2026-05-02T16:42:44Z</time></trkpt><trkpt lat="44.67309653095698" lon="7.609027586705409"><ele>300.0</ele><time>2026-05-02T16:42:45Z</time></trkpt><trkpt lat="44.67323023028201" lon="7.609063886489575"><ele>300.0</ele><time>2026-05-02T16:42:46Z</time></trkpt><trkpt lat="44.67335902884153" lon="7.609128694258374"><ele>300.0</ele><time>2026-05-02T16:42:47Z</time></trkpt><trkpt lat="44.67347336059986" lon="7.609248588492536"><ele>300.0</ele><time>2026-05-02T16:42:48Z</time></trkpt><trkpt lat="44.673579818635574" lon="7.609375526534422"><ele>300.0</ele><time>2026-05-02T16:42:49Z</time></trkpt><trkpt lat="44.6736587766298" lon="7.609521175579561"><ele>300.0</ele><time>2026-05-02T16:42:50Z</time></trkpt><trkpt lat="44.67372526059955" lon="7.609675584995237"><ele>300.0</ele><time>2026-05-02T16:42:51Z</time></trkpt><trkpt lat="44.67378406780867" lon="7.609844834912848"><ele>300.0</ele><time>2026-05-02T16:42:52Z</time></trkpt><trkpt lat="44.67383651133786" lon="7.610026708359924"><ele>300.0</ele><time>2026-05-02T16:42:53Z</time></trkpt><trkpt lat="44.67388764346812" lon="7.610212511376599"><ele>300.0</ele><time>2026-05-02T16:42:54Z</time></trkpt><trkpt lat="44.67393771119727" lon="7.610399407814701"><ele>300.0</ele><time>2026-05-02T16:42:55Z</time></trkpt><trkpt lat="44.67400040083979" lon="7.610581174964552"><ele>300.0</ele><time>2026-05-02T16:42:56Z</time></trkpt><trkpt lat="44.67405205871957" lon="7.610765280321594"><ele>300.0</ele><time>2026-05-02T16:42:57Z</time></trkpt><trkpt lat="44.67410938124257" lon="7.610949518682752"><ele>300.0</ele><time>2026-05-02T16:42:58Z</time></trkpt><trkpt lat="44.67416938885304" lon="7.611133177146162"><ele>300.5</ele><time>2026-05-02T16:42:59Z</time></trkpt><trkpt lat="44.674232936654946" lon="7.611312607317481"><ele>301.0</ele><time>2026-05-02T16:43:00Z</time></trkpt><trkpt lat="44.67431135454193" lon="7.611479079768971"><ele>301.5</ele><time>2026-05-02T16:43:01Z</time></trkpt><trkpt lat="44.67439442772303" lon="7.611646320298915"><ele>302.0</ele><time>2026-05-02T16:43:02Z</time></trkpt><trkpt lat="44.674515556323676" lon="7.611772222468645"><ele>303.0</ele><time>2026-05-02T16:43:03Z</time></trkpt><trkpt lat="44.6746589081071" lon="7.611840491038573"><ele>304.0</ele><time>2026-05-02T16:43:04Z</time></trkpt><trkpt lat="44.674804666121226" lon="7.611902973436421"><ele>305.0</ele><time>2026-05-02T16:43:05Z</time></trkpt><trkpt lat="44.67495750493809" lon="7.611960536657131"><ele>303.0</ele><time>2026-05-02T16:43:06Z</time></trkpt><trkpt lat="44.67511992009956" lon="7.612015630983913"><ele>301.0</ele><time>2026-05-02T16:43:07Z</time></trkpt><trkpt lat="44.67528924897473" lon="7.612096867730302"><ele>299.0</ele><time>2026-05-02T16:43:08Z</time></trkpt><trkpt lat="44.675475150213664" lon="7.612152542294304"><ele>298.6666666666667</ele><time>2026-05-02T16:43:09Z</time></trkpt><trkpt lat="44.67565455551883" lon="7.612191856357211"><ele>298.3333333333333</ele><time>2026-05-02T16:43:10Z</time></trkpt><trkpt lat="44.67583312380736" lon="7.612218912135195"><ele>298.0</ele><time>2026-05-02T16:43:11Z</time></trkpt><trkpt lat="44.676012899357055" lon="7.612238579947586"><ele>297.3333333333333</ele><time>2026-05-02T16:43:12Z</time></trkpt><trkpt lat="44.67619090151075" lon="7.612250250877206"><ele>296.6666666666667</ele><time>2026-05-02T16:43:13Z</time></trkpt><trkpt lat="44.67636641860682" lon="7.612253029601983"><ele>296.0</ele><time>2026-05-02T16:43:14Z</time></trkpt><trkpt lat="44.67653732859285" lon="7.612257078377876"><ele>296.0</ele><time>2026-05-02T16:43:15Z</time></trkpt><trkpt lat="44.67670548973619" lon="7.612266499154359"><ele>296.0</ele><time>2026-05-02T16:43:16Z</time></trkpt><trkpt lat="44.676867486216594" lon="7.612273363409186"><ele>296.0</ele><time>2026-05-02T16:43:17Z</time></trkpt><trkpt lat="44.677021881617755" lon="7.612279906444882"><ele>296.0</ele><time>2026-05-02T16:43:18Z</time></trkpt><trkpt lat="44.67716469453024" lon="7.61228700330021"><ele>296.0</ele><time>2026-05-02T16:43:19Z</time></trkpt><trkpt lat="44.677297719507514" lon="7.612296593763023"><ele>296.0</ele><time>2026-05-02T16:43:20Z</time></trkpt><trkpt lat="44.67742338607742" lon="7.612307019035438"><ele>296.0</ele><time>2026-05-02T16:43:21Z</time></trkpt><trkpt lat="44.67755148055942" lon="7.612306494125067"><ele>296.0</ele><time>2026-05-02T16:43:22Z</time></trkpt><trkpt lat="44.6776801846756" lon="7.612362472131339"><ele>296.0</ele><time>2026-05-02T16:43:23Z</time></trkpt><trkpt lat="44.677794802644826" lon="7.61247189674791"><ele>296.0</ele><time>2026-05-02T16:43:24Z</time></trkpt><trkpt lat="44.67791752401742" lon="7.612571932730424"><ele>296.0</ele><time>2026-05-02T16:43:25Z</time></trkpt><trkpt lat="44.67804235607705" lon="7.612672601265954"><ele>295.75</ele><time>2026-05-02T16:43:26Z</time></trkpt><trkpt lat="44.6781736028161" lon="7.612760691232805"><ele>295.5</ele><time>2026-05-02T16:43:27Z</time></trkpt><trkpt lat="44.67828058759093" lon="7.612899750154239"><ele>295.25</ele><time>2026-05-02T16:43:28Z</time></trkpt><trkpt lat="44.678400192844315" lon="7.613016103577802"><ele>295.0</ele><time>2026-05-02T16:43:29Z</time></trkpt><trkpt lat="44.678485493036625" lon="7.613188722648283"><ele>295.0</ele><time>2026-05-02T16:43:30Z</time></trkpt><trkpt lat="44.67858256842859" lon="7.613355975403666"><ele>295.0</ele><time>2026-05-02T16:43:31Z</time></trkpt><trkpt lat="44.67870165801346" lon="7.613517246097334"><ele>295.0</ele><time>2026-05-02T16:43:32Z</time></trkpt><trkpt lat="44.6788032008396" lon="7.613712674360718"><ele>295.0</ele><time>2026-05-02T16:43:33Z</time></trkpt><trkpt lat="44.678932310527124" lon="7.613889258467178"><ele>295.0</ele><time>2026-05-02T16:43:34Z</time></trkpt><trkpt lat="44.67906418896706" lon="7.614042546901945"><ele>295.0</ele><time>2026-05-02T16:43:35Z</time></trkpt><trkpt lat="44.67919569255346" lon="7.614192570831258"><ele>295.0</ele><time>2026-05-02T16:43:36Z</time></trkpt><trkpt lat="44.67933369361986" lon="7.614334090920792"><ele>295.0</ele><time>2026-05-02T16:43:37Z</time></trkpt><trkpt lat="44.67948253486113" lon="7.614458566250086"><ele>295.0</ele><time>2026-05-02T16:43:38Z</time></trkpt><trkpt lat="44.67962991639129" lon="7.614577348777365"><ele>294.66666666666663</ele><time>2026-05-02T16:43:39Z</time></trkpt><trkpt lat="44.67977999938891" lon="7.614697733579313"><ele>294.3333333333333</ele><time>2026-05-02T16:43:40Z</time></trkpt><trkpt lat="44.67993044134659" lon="7.614814825364704"><ele>294.0</ele><time>2026-05-02T16:43:41Z</time></trkpt><trkpt lat="44.68008905685131" lon="7.614910298847456"><ele>294.0</ele><time>2026-05-02T16:43:42Z</time></trkpt><trkpt lat="44.680237531204924" lon="7.615027633910904"><ele>294.0</ele><time>2026-05-02T16:43:43Z</time></trkpt><trkpt lat="44.68039063198312" lon="7.615135367290177"><ele>294.0</ele><time>2026-05-02T16:43:44Z</time></trkpt><trkpt lat="44.680541506342024" lon="7.615241388502387"><ele>294.3333333333333</ele><time>2026-05-02T16:43:45Z</time></trkpt><trkpt lat="44.68069441421493" lon="7.61534067142023"><ele>294.66666666666663</ele><time>2026-05-02T16:43:46Z</time></trkpt><trkpt lat="44.680845730407455" lon="7.615440267597448"><ele>295.0</ele><time>2026-05-02T16:43:47Z</time></trkpt><trkpt lat="44.68099499785735" lon="7.615535248733158"><ele>294.5</ele><time>2026-05-02T16:43:47.999Z</time></trkpt><trkpt lat="44.68113759385427" lon="7.61562392412303"><ele>294.0</ele><time>2026-05-02T16:43:48.999Z</time></trkpt><trkpt lat="44.68127295281611" lon="7.6157125727017245"><ele>293.5</ele><time>2026-05-02T16:43:49.999Z</time></trkpt><trkpt lat="44.68140255465193" lon="7.615791183773238"><ele>293.0</ele><time>2026-05-02T16:43:50.999Z</time></trkpt><trkpt lat="44.681515094971964" lon="7.61585686817344"><ele>293.0</ele><time>2026-05-02T16:43:51.999Z</time></trkpt><trkpt lat="44.68161444174573" lon="7.61591432018441"><ele>293.0</ele><time>2026-05-02T16:43:52.999Z</time></trkpt><trkpt lat="44.68169769170846" lon="7.615965155771278"><ele>293.0</ele><time>2026-05-02T16:43:53.999Z</time></trkpt><trkpt lat="44.681762105514636" lon="7.6160033572329615"><ele>293.0</ele><time>2026-05-02T16:43:54.999Z</time></trkpt><trkpt lat="44.681857197018395" lon="7.616058085406202"><ele>293.0</ele><time>2026-05-02T16:43:56.999Z</time></trkpt><trkpt lat="44.68192719303973" lon="7.615795152302125"><ele>293.0</ele><time>2026-05-02T16:44:00.999Z</time></trkpt><trkpt lat="44.68189985500653" lon="7.615684006002023"><ele>293.0</ele><time>2026-05-02T16:44:01.999Z</time></trkpt><trkpt lat="44.68188466477272" lon="7.615566661491992"><ele>293.0</ele><time>2026-05-02T16:44:02.999Z</time></trkpt><trkpt lat="44.681863167405105" lon="7.615437622220863"><ele>293.0</ele><time>2026-05-02T16:44:03.999Z</time></trkpt><trkpt lat="44.68183308256632" lon="7.615283650502617"><ele>293.0</ele><time>2026-05-02T16:44:04.999Z</time></trkpt><trkpt lat="44.68180372590674" lon="7.615137528791262"><ele>293.25</ele><time>2026-05-02T16:44:05.999Z</time></trkpt><trkpt lat="44.681775127567256" lon="7.614991149516936"><ele>293.5</ele><time>2026-05-02T16:44:06.999Z</time></trkpt><trkpt lat="44.68174930817013" lon="7.614836921793707"><ele>293.75</ele><time>2026-05-02T16:44:07.999Z</time></trkpt><trkpt lat="44.68172745376653" lon="7.614679481825511"><ele>294.0</ele><time>2026-05-02T16:44:08.999Z</time></trkpt><trkpt lat="44.68170469662374" lon="7.6145091484314325"><ele>294.0</ele><time>2026-05-02T16:44:09.999Z</time></trkpt><trkpt lat="44.68168064589433" lon="7.614346301141959"><ele>294.0</ele><time>2026-05-02T16:44:10.999Z</time></trkpt><trkpt lat="44.681657153500126" lon="7.614190976339422"><ele>294.0</ele><time>2026-05-02T16:44:11.999Z</time></trkpt><trkpt lat="44.68164420015847" lon="7.614035848997793"><ele>294.0</ele><time>2026-05-02T16:44:12.999Z</time></trkpt><trkpt lat="44.68163083210102" lon="7.613883921195879"><ele>294.0</ele><time>2026-05-02T16:44:13.999Z</time></trkpt><trkpt lat="44.681618862991996" lon="7.613732931065222"><ele>294.0</ele><time>2026-05-02T16:44:14.999Z</time></trkpt><trkpt lat="44.68160378258994" lon="7.613580654573653"><ele>294.0</ele><time>2026-05-02T16:44:15.999Z</time></trkpt><trkpt lat="44.681587081650115" lon="7.613428758662819"><ele>294.0</ele><time>2026-05-02T16:44:16.999Z</time></trkpt><trkpt lat="44.681570670370895" lon="7.6132747756259525"><ele>294.0</ele><time>2026-05-02T16:44:17.999Z</time></trkpt><trkpt lat="44.681548763522336" lon="7.613133713573525"><ele>293.8</ele><time>2026-05-02T16:44:18.999Z</time></trkpt><trkpt lat="44.68150335444725" lon="7.613003293376846"><ele>293.59999999999997</ele><time>2026-05-02T16:44:19.999Z</time></trkpt><trkpt lat="44.68142437007548" lon="7.612890502127707"><ele>293.4</ele><time>2026-05-02T16:44:20.999Z</time></trkpt><trkpt lat="44.681331630141514" lon="7.612805556544359"><ele>293.2</ele><time>2026-05-02T16:44:21.999Z</time></trkpt><trkpt lat="44.681233657317655" lon="7.612714893476291"><ele>293.0</ele><time>2026-05-02T16:44:22.999Z</time></trkpt><trkpt lat="44.68113280036927" lon="7.612642599990299"><ele>292.8</ele><time>2026-05-02T16:44:23.999Z</time></trkpt><trkpt lat="44.68104900900366" lon="7.612542675047951"><ele>292.6</ele><time>2026-05-02T16:44:24.999Z</time></trkpt><trkpt lat="44.68096613327475" lon="7.612445178328952"><ele>292.4</ele><time>2026-05-02T16:44:25.999Z</time></trkpt><trkpt lat="44.680893392259804" lon="7.61234200238237"><ele>292.2</ele><time>2026-05-02T16:44:26.999Z</time></trkpt><trkpt lat="44.68082368464835" lon="7.612231162592241"><ele>292.0</ele><time>2026-05-02T16:44:27.999Z</time></trkpt><trkpt lat="44.680754219683095" lon="7.612115923116588"><ele>292.0</ele><time>2026-05-02T16:44:28.999Z</time></trkpt><trkpt lat="44.68068473442954" lon="7.61200464086403"><ele>292.0</ele><time>2026-05-02T16:44:30Z</time></trkpt><trkpt lat="44.68061295305377" lon="7.611899460017166"><ele>292.0</ele><time>2026-05-02T16:44:31Z</time></trkpt><trkpt lat="44.6805384265294" lon="7.611791942973058"><ele>292.0</ele><time>2026-05-02T16:44:32Z</time></trkpt><trkpt lat="44.6804694956173" lon="7.611680909307765"><ele>292.0</ele><time>2026-05-02T16:44:33Z</time></trkpt><trkpt lat="44.68040095355805" lon="7.611564626969919"><ele>292.5</ele><time>2026-05-02T16:44:34Z</time></trkpt><trkpt lat="44.68033820828051" lon="7.61144270286479"><ele>293.0</ele><time>2026-05-02T16:44:35Z</time></trkpt><trkpt lat="44.6803128815696" lon="7.6112892925841775"><ele>293.5</ele><time>2026-05-02T16:44:36Z</time></trkpt><trkpt lat="44.68026062146218" lon="7.611144760697094"><ele>294.0</ele><time>2026-05-02T16:44:37Z</time></trkpt><trkpt lat="44.68021691409829" lon="7.610993457758039"><ele>294.0</ele><time>2026-05-02T16:44:38Z</time></trkpt><trkpt lat="44.68017663854562" lon="7.6108357580619135"><ele>294.0</ele><time>2026-05-02T16:44:39Z</time></trkpt><trkpt lat="44.68012620403883" lon="7.610686276117788"><ele>294.0</ele><time>2026-05-02T16:44:40Z</time></trkpt><trkpt lat="44.680084271383436" lon="7.610528605750242"><ele>294.0</ele><time>2026-05-02T16:44:41Z</time></trkpt><trkpt lat="44.68004274405927" lon="7.6103712648459725"><ele>294.5</ele><time>2026-05-02T16:44:42Z</time></trkpt><trkpt lat="44.68000173314283" lon="7.610219438342346"><ele>295.0</ele><time>2026-05-02T16:44:43Z</time></trkpt><trkpt lat="44.679957849533146" lon="7.6100725002101415"><ele>295.5</ele><time>2026-05-02T16:44:44Z</time></trkpt><trkpt lat="44.6799177690325" lon="7.609930493089376"><ele>296.0</ele><time>2026-05-02T16:44:45Z</time></trkpt><trkpt lat="44.679874342885576" lon="7.609783893044546"><ele>296.0</ele><time>2026-05-02T16:44:46Z</time></trkpt><trkpt lat="44.679837950834155" lon="7.609632893932445"><ele>296.0</ele><time>2026-05-02T16:44:47Z</time></trkpt><trkpt lat="44.67980946630042" lon="7.609469541664897"><ele>296.0</ele><time>2026-05-02T16:44:48Z</time></trkpt><trkpt lat="44.67979533292717" lon="7.609316299652208"><ele>296.0</ele><time>2026-05-02T16:44:49Z</time></trkpt><trkpt lat="44.67978384088007" lon="7.609174980807719"><ele>296.0</ele><time>2026-05-02T16:44:50Z</time></trkpt><trkpt lat="44.679775120482375" lon="7.609054751615103"><ele>296.0</ele><time>2026-05-02T16:44:51Z</time></trkpt><trkpt lat="44.67976952232564" lon="7.60890484274622"><ele>296.0</ele><time>2026-05-02T16:44:53Z</time></trkpt><trkpt lat="44.67979197693287" lon="7.608820857736726"><ele>296.0</ele><time>2026-05-02T16:44:55Z</time></trkpt><trkpt lat="44.679873730841216" lon="7.608831377500221"><ele>296.0</ele><time>2026-05-02T16:44:57Z</time></trkpt><trkpt lat="44.67994762986597" lon="7.608856316645395"><ele>296.0</ele><time>2026-05-02T16:45:00Z</time></trkpt><trkpt lat="44.68001340660009" lon="7.608871320786938"><ele>296.0</ele><time>2026-05-02T16:45:02Z</time></trkpt><trkpt lat="44.68011813542322" lon="7.608881646795097"><ele>296.0</ele><time>2026-05-02T16:45:04Z</time></trkpt><trkpt lat="44.68020720501644" lon="7.608833444533208"><ele>296.0</ele><time>2026-05-02T16:45:06Z</time></trkpt><trkpt lat="44.68022644612395" lon="7.608667417528796"><ele>296.0</ele><time>2026-05-02T16:45:08Z</time></trkpt><trkpt lat="44.680225153124255" lon="7.608556915444876"><ele>296.0</ele><time>2026-05-02T16:45:09Z</time></trkpt><trkpt lat="44.68020749785549" lon="7.608435807460828"><ele>296.0</ele><time>2026-05-02T16:45:10Z</time></trkpt><trkpt lat="44.680205312313184" lon="7.60827478935906"><ele>295.75</ele><time>2026-05-02T16:45:11Z</time></trkpt><trkpt lat="44.68018959098085" lon="7.608083998543901"><ele>295.5</ele><time>2026-05-02T16:45:12Z</time></trkpt><trkpt lat="44.68017243719192" lon="7.607876356029006"><ele>295.25</ele><time>2026-05-02T16:45:13Z</time></trkpt><trkpt lat="44.68013681437703" lon="7.607654714532935"><ele>295.0</ele><time>2026-05-02T16:45:14Z</time></trkpt><trkpt lat="44.6801313000222" lon="7.607406337981456"><ele>294.66666666666663</ele><time>2026-05-02T16:45:15Z</time></trkpt><trkpt lat="44.68010650328108" lon="7.607155955956595"><ele>294.3333333333333</ele><time>2026-05-02T16:45:16Z</time></trkpt><trkpt lat="44.680065736912304" lon="7.6069176283688265"><ele>294.0</ele><time>2026-05-02T16:45:17Z</time></trkpt><trkpt lat="44.68004656999769" lon="7.606683616764193"><ele>294.0</ele><time>2026-05-02T16:45:18Z</time></trkpt><trkpt lat="44.68002982600161" lon="7.606457604398521"><ele>294.0</ele><time>2026-05-02T16:45:19Z</time></trkpt><trkpt lat="44.680012564495456" lon="7.606229843130174"><ele>294.0</ele><time>2026-05-02T16:45:20Z</time></trkpt><trkpt lat="44.6799902032865" lon="7.6060001638689405"><ele>294.0</ele><time>2026-05-02T16:45:21Z</time></trkpt><trkpt lat="44.679967472251775" lon="7.605775793258413"><ele>294.0</ele><time>2026-05-02T16:45:22Z</time></trkpt><trkpt lat="44.6799608609106" lon="7.605566450158113"><ele>294.0</ele><time>2026-05-02T16:45:23Z</time></trkpt><trkpt lat="44.67993923679505" lon="7.605375684304157"><ele>294.0</ele><time>2026-05-02T16:45:24Z</time></trkpt><trkpt lat="44.67991634938893" lon="7.6051983055619035"><ele>294.0</ele><time>2026-05-02T16:45:25Z</time></trkpt><trkpt lat="44.679880965590804" lon="7.605032718035448"><ele>294.0</ele><time>2026-05-02T16:45:26Z</time></trkpt><trkpt lat="44.679837549704914" lon="7.6048626299808015"><ele>294.0</ele><time>2026-05-02T16:45:27Z</time></trkpt><trkpt lat="44.67979517673104" lon="7.6046966269892895"><ele>294.0</ele><time>2026-05-02T16:45:28Z</time></trkpt><trkpt lat="44.6797500814756" lon="7.604519959018858"><ele>294.3333333333333</ele><time>2026-05-02T16:45:29Z</time></trkpt><trkpt lat="44.679694708171425" lon="7.604329476879593"><ele>294.66666666666663</ele><time>2026-05-02T16:45:30Z</time></trkpt><trkpt lat="44.679664562541774" lon="7.604107137668664"><ele>295.0</ele><time>2026-05-02T16:45:31Z</time></trkpt><trkpt lat="44.679619939059634" lon="7.603862267230177"><ele>294.66666666666663</ele><time>2026-05-02T16:45:32Z</time></trkpt><trkpt lat="44.67958237607233" lon="7.603601724391958"><ele>294.3333333333333</ele><time>2026-05-02T16:45:33Z</time></trkpt><trkpt lat="44.67954191869117" lon="7.603352092392479"><ele>294.0</ele><time>2026-05-02T16:45:34Z</time></trkpt><trkpt lat="44.67950572582284" lon="7.60312616268861"><ele>294.0</ele><time>2026-05-02T16:45:35Z</time></trkpt><trkpt lat="44.67947137348187" lon="7.60291415177047"><ele>294.0</ele><time>2026-05-02T16:45:36Z</time></trkpt><trkpt lat="44.67943189279179" lon="7.602701173349865"><ele>294.0</ele><time>2026-05-02T16:45:37Z</time></trkpt><trkpt lat="44.67939233468206" lon="7.602505958922646"><ele>294.0</ele><time>2026-05-02T16:45:38Z</time></trkpt><trkpt lat="44.67936687723221" lon="7.60231611611257"><ele>294.0</ele><time>2026-05-02T16:45:39Z</time></trkpt><trkpt lat="44.67934479723165" lon="7.602122736526836"><ele>294.0</ele><time>2026-05-02T16:45:40Z</time></trkpt><trkpt lat="44.67931564371274" lon="7.601923607359627"><ele>294.0</ele><time>2026-05-02T16:45:41Z</time></trkpt><trkpt lat="44.67928384970501" lon="7.60172279973927"><ele>294.0</ele><time>2026-05-02T16:45:42Z</time></trkpt><trkpt lat="44.67924228694154" lon="7.601514732506609"><ele>294.0</ele><time>2026-05-02T16:45:43Z</time></trkpt><trkpt lat="44.67919223148376" lon="7.601298870936614"><ele>294.0</ele><time>2026-05-02T16:45:44Z</time></trkpt><trkpt lat="44.67913319605595" lon="7.601079666827408"><ele>294.0</ele><time>2026-05-02T16:45:44.999Z</time></trkpt><trkpt lat="44.67906050320978" lon="7.600856214755363"><ele>294.0</ele><time>2026-05-02T16:45:45.999Z</time></trkpt><trkpt lat="44.6789796866943" lon="7.600622451214373"><ele>294.0</ele><time>2026-05-02T16:45:46.999Z</time></trkpt><trkpt lat="44.678898338949736" lon="7.6003853839582005"><ele>294.0</ele><time>2026-05-02T16:45:47.999Z</time></trkpt><trkpt lat="44.678824890553074" lon="7.600165270925332"><ele>294.0</ele><time>2026-05-02T16:45:48.999Z</time></trkpt><trkpt lat="44.678752985506335" lon="7.5999345798310385"><ele>294.0</ele><time>2026-05-02T16:45:49.999Z</time></trkpt><trkpt lat="44.67869049727959" lon="7.599681111225827"><ele>294.3333333333333</ele><time>2026-05-02T16:45:50.999Z</time></trkpt><trkpt lat="44.67862071054829" lon="7.59940772042644"><ele>294.66666666666663</ele><time>2026-05-02T16:45:51.999Z</time></trkpt><trkpt lat="44.6785640106681" lon="7.599127136354476"><ele>295.0</ele><time>2026-05-02T16:45:52.999Z</time></trkpt><trkpt lat="44.67850981289133" lon="7.598843309999277"><ele>296.0</ele><time>2026-05-02T16:45:53.999Z</time></trkpt><trkpt lat="44.6784514279601" lon="7.598580586160147"><ele>297.0</ele><time>2026-05-02T16:45:54.999Z</time></trkpt><trkpt lat="44.678402196955034" lon="7.598340763367406"><ele>298.0</ele><time>2026-05-02T16:45:55.999Z</time></trkpt><trkpt lat="44.678355762976075" lon="7.598135475690981"><ele>298.0</ele><time>2026-05-02T16:45:56.999Z</time></trkpt><trkpt lat="44.67832479157411" lon="7.59794614907813"><ele>298.0</ele><time>2026-05-02T16:45:57.999Z</time></trkpt><trkpt lat="44.67831652456445" lon="7.597734369850887"><ele>298.0</ele><time>2026-05-02T16:45:58.999Z</time></trkpt><trkpt lat="44.67833488175802" lon="7.597495836161117"><ele>297.66666666666663</ele><time>2026-05-02T16:45:59.999Z</time></trkpt><trkpt lat="44.67834014441592" lon="7.597268479184318"><ele>297.3333333333333</ele><time>2026-05-02T16:46:00.999Z</time></trkpt><trkpt lat="44.678315917715736" lon="7.5970465835707"><ele>297.0</ele><time>2026-05-02T16:46:01.999Z</time></trkpt><trkpt lat="44.67827289155654" lon="7.596824407914735"><ele>297.0</ele><time>2026-05-02T16:46:02.999Z</time></trkpt><trkpt lat="44.67822221394638" lon="7.596581767754907"><ele>297.0</ele><time>2026-05-02T16:46:03.999Z</time></trkpt><trkpt lat="44.678178718761174" lon="7.596345139019894"><ele>297.0</ele><time>2026-05-02T16:46:04.999Z</time></trkpt><trkpt lat="44.678142185882166" lon="7.59610839482927"><ele>297.25</ele><time>2026-05-02T16:46:05.999Z</time></trkpt><trkpt lat="44.678107321194645" lon="7.595900409071549"><ele>297.5</ele><time>2026-05-02T16:46:06.999Z</time></trkpt><trkpt lat="44.67807260343314" lon="7.595695050475522"><ele>297.75</ele><time>2026-05-02T16:46:07.999Z</time></trkpt><trkpt lat="44.678043837339935" lon="7.5955058995946025"><ele>298.0</ele><time>2026-05-02T16:46:08.999Z</time></trkpt><trkpt lat="44.67801677384302" lon="7.595330081809196"><ele>298.0</ele><time>2026-05-02T16:46:09.999Z</time></trkpt><trkpt lat="44.67798506735051" lon="7.595152167431704"><ele>298.0</ele><time>2026-05-02T16:46:10.999Z</time></trkpt><trkpt lat="44.67795246119484" lon="7.594970066658638"><ele>298.0</ele><time>2026-05-02T16:46:11.999Z</time></trkpt><trkpt lat="44.677926207031405" lon="7.5947848911967695"><ele>298.0</ele><time>2026-05-02T16:46:12.999Z</time></trkpt><trkpt lat="44.67789597203849" lon="7.5945978496189275"><ele>298.5</ele><time>2026-05-02T16:46:13.999Z</time></trkpt><trkpt lat="44.67787001686904" lon="7.5944171968837315"><ele>299.0</ele><time>2026-05-02T16:46:14.999Z</time></trkpt><trkpt lat="44.677843402056766" lon="7.594229622767593"><ele>299.5</ele><time>2026-05-02T16:46:15.999Z</time></trkpt><trkpt lat="44.67781739256252" lon="7.594053480901499"><ele>300.0</ele><time>2026-05-02T16:46:16.999Z</time></trkpt><trkpt lat="44.67779880835042" lon="7.5938735106130295"><ele>300.0</ele><time>2026-05-02T16:46:17.999Z</time></trkpt><trkpt lat="44.67780012342265" lon="7.593678942089487"><ele>300.0</ele><time>2026-05-02T16:46:18.999Z</time></trkpt><trkpt lat="44.677807109551296" lon="7.593479582165391"><ele>300.0</ele><time>2026-05-02T16:46:19.999Z</time></trkpt><trkpt lat="44.67779203094968" lon="7.593290397679572"><ele>300.0</ele><time>2026-05-02T16:46:20.999Z</time></trkpt><trkpt lat="44.67775974652369" lon="7.5931019265455015"><ele>300.0</ele><time>2026-05-02T16:46:21.999Z</time></trkpt><trkpt lat="44.677715241600374" lon="7.592917776891634"><ele>300.0</ele><time>2026-05-02T16:46:22.999Z</time></trkpt><trkpt lat="44.677663993639996" lon="7.59272788092795"><ele>300.0</ele><time>2026-05-02T16:46:23.999Z</time></trkpt><trkpt lat="44.67762356065567" lon="7.592541359381212"><ele>300.0</ele><time>2026-05-02T16:46:24.999Z</time></trkpt><trkpt lat="44.67759065211265" lon="7.592359296705741"><ele>301.0</ele><time>2026-05-02T16:46:25.999Z</time></trkpt><trkpt lat="44.67756555850423" lon="7.592201698522281"><ele>302.0</ele><time>2026-05-02T16:46:26.999Z</time></trkpt><trkpt lat="44.67754609775952" lon="7.592091695032358"><ele>303.0</ele><time>2026-05-02T16:46:27.999Z</time></trkpt><trkpt lat="44.67754190348028" lon="7.5919475646112415"><ele>304.0</ele><time>2026-05-02T16:46:29.999Z</time></trkpt><trkpt lat="44.67766305405983" lon="7.591875713953341"><ele>305.0</ele><time>2026-05-02T16:46:31.999Z</time></trkpt><trkpt lat="44.677760844323565" lon="7.591854120289882"><ele>304.83333333333337</ele><time>2026-05-02T16:46:32.999Z</time></trkpt><trkpt lat="44.67783742973407" lon="7.5918278754934105"><ele>304.6666666666667</ele><time>2026-05-02T16:46:33.999Z</time></trkpt><trkpt lat="44.67790097109473" lon="7.5917797130895455"><ele>304.5</ele><time>2026-05-02T16:46:34.999Z</time></trkpt><trkpt lat="44.67797767076526" lon="7.591653640559688"><ele>304.3333333333333</ele><time>2026-05-02T16:46:37Z</time></trkpt><trkpt lat="44.67796724063717" lon="7.591565281245598"><ele>304.16666666666663</ele><time>2026-05-02T16:46:38Z</time></trkpt><trkpt lat="44.677935270426644" lon="7.591468696770505"><ele>304.0</ele><time>2026-05-02T16:46:39Z</time></trkpt><trkpt lat="44.67790510135596" lon="7.591350955757855"><ele>304.0</ele><time>2026-05-02T16:46:40Z</time></trkpt><trkpt lat="44.67790974774111" lon="7.591228306375007"><ele>304.0</ele><time>2026-05-02T16:46:41Z</time></trkpt><trkpt lat="44.67794730088488" lon="7.5911197545927"><ele>304.0</ele><time>2026-05-02T16:46:42Z</time></trkpt><trkpt lat="44.678012982741095" lon="7.590981130563877"><ele>304.0</ele><time>2026-05-02T16:46:43Z</time></trkpt><trkpt lat="44.67807098665611" lon="7.590837326141855"><ele>304.0</ele><time>2026-05-02T16:46:44Z</time></trkpt><trkpt lat="44.67810932742995" lon="7.590727505116495"><ele>303.2</ele><time>2026-05-02T16:46:45Z</time></trkpt><trkpt lat="44.67811194214454" lon="7.590529438271882"><ele>302.4</ele><time>2026-05-02T16:46:47Z</time></trkpt><trkpt lat="44.678098776098366" lon="7.590404628974359"><ele>301.6</ele><time>2026-05-02T16:46:48Z</time></trkpt><trkpt lat="44.67811863246719" lon="7.590313963129941"><ele>300.8</ele><time>2026-05-02T16:46:49Z</time></trkpt><trkpt lat="44.67816438871354" lon="7.590246731204801"><ele>300.0</ele><time>2026-05-02T16:46:50Z</time></trkpt><trkpt lat="44.67827972897488" lon="7.590171099668341"><ele>299.8333333333333</ele><time>2026-05-02T16:46:52Z</time></trkpt><trkpt lat="44.67834468229734" lon="7.590144212695859"><ele>299.6666666666667</ele><time>2026-05-02T16:46:53Z</time></trkpt><trkpt lat="44.67840784225275" lon="7.590139437710236"><ele>299.5</ele><time>2026-05-02T16:46:54Z</time></trkpt><trkpt lat="44.67850941459498" lon="7.590184538217084"><ele>299.33333333333337</ele><time>2026-05-02T16:46:56Z</time></trkpt><trkpt lat="44.67859907110282" lon="7.5901727956114895"><ele>299.1666666666667</ele><time>2026-05-02T16:46:58Z</time></trkpt><trkpt lat="44.67867474204414" lon="7.590177634445506"><ele>299.0</ele><time>2026-05-02T16:47:00Z</time></trkpt><trkpt lat="44.67877244363466" lon="7.590166002088275"><ele>299.0</ele><time>2026-05-02T16:47:03Z</time></trkpt><trkpt lat="44.67885008150095" lon="7.590202555016981"><ele>299.0</ele><time>2026-05-02T16:47:05Z</time></trkpt><trkpt lat="44.678922332635956" lon="7.590238424061205"><ele>299.0</ele><time>2026-05-02T16:47:07Z</time></trkpt><trkpt lat="44.679005873790544" lon="7.590271358292909"><ele>299.0</ele><time>2026-05-02T16:47:10Z</time></trkpt><trkpt lat="44.679071013525586" lon="7.590288621133387"><ele>299.0</ele><time>2026-05-02T16:47:12Z</time></trkpt><trkpt lat="44.679135377188494" lon="7.590308300999979"><ele>299.0</ele><time>2026-05-02T16:47:15Z</time></trkpt><trkpt lat="44.679263783995616" lon="7.590291551151499"><ele>299.0</ele><time>2026-05-02T16:47:24Z</time></trkpt><trkpt lat="44.67935707225393" lon="7.590282449170401"><ele>299.0</ele><time>2026-05-02T16:47:25Z</time></trkpt><trkpt lat="44.67945598342498" lon="7.590290963362228"><ele>299.0</ele><time>2026-05-02T16:47:26Z</time></trkpt><trkpt lat="44.679549541670916" lon="7.5903176150640075"><ele>299.0</ele><time>2026-05-02T16:47:27Z</time></trkpt><trkpt lat="44.67963415111303" lon="7.590338814529168"><ele>299.0</ele><time>2026-05-02T16:47:28Z</time></trkpt><trkpt lat="44.67971748629834" lon="7.590370658274287"><ele>299.8</ele><time>2026-05-02T16:47:29Z</time></trkpt><trkpt lat="44.679795242608336" lon="7.59042448169783"><ele>300.59999999999997</ele><time>2026-05-02T16:47:30Z</time></trkpt><trkpt lat="44.679886581688905" lon="7.5905257440106775"><ele>301.4</ele><time>2026-05-02T16:47:31Z</time></trkpt><trkpt lat="44.67995444785681" lon="7.590620247575141"><ele>302.2</ele><time>2026-05-02T16:47:32Z</time></trkpt><trkpt lat="44.680037624020976" lon="7.5906734947219645"><ele>303.0</ele><time>2026-05-02T16:47:33Z</time></trkpt><trkpt lat="44.68013162722935" lon="7.590714099234463"><ele>303.0</ele><time>2026-05-02T16:47:34Z</time></trkpt><trkpt lat="44.680233402614775" lon="7.590753034436612"><ele>303.0</ele><time>2026-05-02T16:47:35Z</time></trkpt><trkpt lat="44.68035046638386" lon="7.590779085394905"><ele>303.0</ele><time>2026-05-02T16:47:36Z</time></trkpt><trkpt lat="44.68043766558757" lon="7.590771704755443"><ele>303.0</ele><time>2026-05-02T16:47:37Z</time></trkpt><trkpt lat="44.68051876066993" lon="7.590743185747818"><ele>303.0</ele><time>2026-05-02T16:47:38Z</time></trkpt><trkpt lat="44.680621605432684" lon="7.590654304030116"><ele>302.6</ele><time>2026-05-02T16:47:39Z</time></trkpt><trkpt lat="44.68071732881875" lon="7.590562996905166"><ele>302.20000000000005</ele><time>2026-05-02T16:47:40Z</time></trkpt><trkpt lat="44.68079824716023" lon="7.590487776790733"><ele>301.8</ele><time>2026-05-02T16:47:41Z</time></trkpt><trkpt lat="44.68087961940263" lon="7.590392045083498"><ele>301.40000000000003</ele><time>2026-05-02T16:47:41.999Z</time></trkpt><trkpt lat="44.680960155163085" lon="7.590296885806494"><ele>301.0</ele><time>2026-05-02T16:47:42.999Z</time></trkpt><trkpt lat="44.68102990696732" lon="7.590214990315541"><ele>300.8333333333333</ele><time>2026-05-02T16:47:43.999Z</time></trkpt><trkpt lat="44.681089132506855" lon="7.59015995067293"><ele>300.66666666666663</ele><time>2026-05-02T16:47:44.999Z</time></trkpt><trkpt lat="44.68115759879611" lon="7.590116915475131"><ele>300.5</ele><time>2026-05-02T16:47:45.999Z</time></trkpt><trkpt lat="44.68124337899627" lon="7.590103855886944"><ele>300.3333333333333</ele><time>2026-05-02T16:47:46.999Z</time></trkpt><trkpt lat="44.6813366377508" lon="7.590123887610298"><ele>300.1666666666667</ele><time>2026-05-02T16:47:47.999Z</time></trkpt><trkpt lat="44.68144969489732" lon="7.5901628321941"><ele>300.0</ele><time>2026-05-02T16:47:48.999Z</time></trkpt><trkpt lat="44.68157411984839" lon="7.590198335360101"><ele>300.0</ele><time>2026-05-02T16:47:49.999Z</time></trkpt><trkpt lat="44.681683933431856" lon="7.59022282745052"><ele>300.0</ele><time>2026-05-02T16:47:50.999Z</time></trkpt><trkpt lat="44.68177781833806" lon="7.590237696118367"><ele>300.0</ele><time>2026-05-02T16:47:51.999Z</time></trkpt><trkpt lat="44.68187528712899" lon="7.590274400484053"><ele>300.0</ele><time>2026-05-02T16:47:52.999Z</time></trkpt><trkpt lat="44.6819616796902" lon="7.590355000891886"><ele>300.0</ele><time>2026-05-02T16:47:53.999Z</time></trkpt><trkpt lat="44.68205964198581" lon="7.5904621511845285"><ele>299.5</ele><time>2026-05-02T16:47:54.999Z</time></trkpt><trkpt lat="44.6821596946285" lon="7.590556085295263"><ele>299.0</ele><time>2026-05-02T16:47:55.999Z</time></trkpt><trkpt lat="44.68225591534614" lon="7.590626861442284"><ele>298.5</ele><time>2026-05-02T16:47:56.999Z</time></trkpt><trkpt lat="44.6823650058999" lon="7.5906975490501765"><ele>298.0</ele><time>2026-05-02T16:47:57.999Z</time></trkpt><trkpt lat="44.68247572089628" lon="7.59076598003867"><ele>298.0</ele><time>2026-05-02T16:47:58.999Z</time></trkpt><trkpt lat="44.68258593877283" lon="7.59082857482969"><ele>298.0</ele><time>2026-05-02T16:47:59.999Z</time></trkpt><trkpt lat="44.68269963050636" lon="7.590882191630761"><ele>298.0</ele><time>2026-05-02T16:48:00.999Z</time></trkpt><trkpt lat="44.68279667913875" lon="7.590940947760159"><ele>298.0</ele><time>2026-05-02T16:48:01.999Z</time></trkpt><trkpt lat="44.682872765615926" lon="7.590998547567786"><ele>298.0</ele><time>2026-05-02T16:48:02.999Z</time></trkpt><trkpt lat="44.68297730703005" lon="7.5911304765335474"><ele>298.0</ele><time>2026-05-02T16:48:04.999Z</time></trkpt><trkpt lat="44.68302476143994" lon="7.5912635360094125"><ele>298.0</ele><time>2026-05-02T16:48:05.999Z</time></trkpt><trkpt lat="44.68307444462449" lon="7.591427817850912"><ele>298.0</ele><time>2026-05-02T16:48:06.999Z</time></trkpt><trkpt lat="44.68311495818994" lon="7.591590217180241"><ele>298.0</ele><time>2026-05-02T16:48:07.999Z</time></trkpt><trkpt lat="44.6831593922355" lon="7.591731353786055"><ele>298.0</ele><time>2026-05-02T16:48:08.999Z</time></trkpt><trkpt lat="44.683195241100634" lon="7.591881990790447"><ele>298.0</ele><time>2026-05-02T16:48:09.999Z</time></trkpt><trkpt lat="44.68321105928386" lon="7.592018429639255"><ele>298.0</ele><time>2026-05-02T16:48:10.999Z</time></trkpt><trkpt lat="44.683208802020516" lon="7.592109006155459"><ele>298.0</ele><time>2026-05-02T16:48:11.999Z</time></trkpt><trkpt lat="44.68309227161671" lon="7.592251512432465"><ele>298.0</ele><time>2026-05-02T16:48:13.999Z</time></trkpt><trkpt lat="44.682967171464796" lon="7.592299747360175"><ele>297.75</ele><time>2026-05-02T16:48:14.999Z</time></trkpt><trkpt lat="44.68284023512644" lon="7.592343151720944"><ele>297.5</ele><time>2026-05-02T16:48:15.999Z</time></trkpt><trkpt lat="44.68271617697576" lon="7.592394546034668"><ele>297.25</ele><time>2026-05-02T16:48:16.999Z</time></trkpt><trkpt lat="44.6825836425326" lon="7.592468687778585"><ele>297.0</ele><time>2026-05-02T16:48:17.999Z</time></trkpt><trkpt lat="44.6824563154853" lon="7.592494418983183"><ele>297.0</ele><time>2026-05-02T16:48:18.999Z</time></trkpt><trkpt lat="44.68232096511376" lon="7.592484300705546"><ele>297.0</ele><time>2026-05-02T16:48:19.999Z</time></trkpt><trkpt lat="44.68217311918515" lon="7.5924889448434465"><ele>297.0</ele><time>2026-05-02T16:48:20.999Z</time></trkpt><trkpt lat="44.68203292999377" lon="7.592513661676614"><ele>297.0</ele><time>2026-05-02T16:48:21.999Z</time></trkpt><trkpt lat="44.681908728450985" lon="7.592525786757852"><ele>297.5</ele><time>2026-05-02T16:48:22.999Z</time></trkpt><trkpt lat="44.68178732622004" lon="7.59252481548311"><ele>298.0</ele><time>2026-05-02T16:48:23.999Z</time></trkpt><trkpt lat="44.68166135805402" lon="7.592496101871403"><ele>298.5</ele><time>2026-05-02T16:48:24.999Z</time></trkpt><trkpt lat="44.681515351045796" lon="7.592468179172686"><ele>299.0</ele><time>2026-05-02T16:48:25.999Z</time></trkpt><trkpt lat="44.68138741344294" lon="7.592413643029412"><ele>299.0</ele><time>2026-05-02T16:48:26.999Z</time></trkpt><trkpt lat="44.681249746092405" lon="7.592376575664672"><ele>299.0</ele><time>2026-05-02T16:48:27.999Z</time></trkpt><trkpt lat="44.681127181204275" lon="7.592344840306108"><ele>299.0</ele><time>2026-05-02T16:48:28.999Z</time></trkpt><trkpt lat="44.68101015559279" lon="7.592289731955785"><ele>299.0</ele><time>2026-05-02T16:48:29.999Z</time></trkpt><trkpt lat="44.6808978216652" lon="7.592223663965074"><ele>298.75</ele><time>2026-05-02T16:48:30.999Z</time></trkpt><trkpt lat="44.68077876761599" lon="7.592183038481973"><ele>298.5</ele><time>2026-05-02T16:48:31.999Z</time></trkpt><trkpt lat="44.680646773127975" lon="7.592157257200618"><ele>298.25</ele><time>2026-05-02T16:48:32.999Z</time></trkpt><trkpt lat="44.680503290359034" lon="7.592140550177073"><ele>298.0</ele><time>2026-05-02T16:48:33.999Z</time></trkpt><trkpt lat="44.68033262987798" lon="7.592141658556116"><ele>298.3333333333333</ele><time>2026-05-02T16:48:34.999Z</time></trkpt><trkpt lat="44.680159312920914" lon="7.5921517776469765"><ele>298.6666666666667</ele><time>2026-05-02T16:48:35.999Z</time></trkpt><trkpt lat="44.67998319089575" lon="7.59218028347887"><ele>299.0</ele><time>2026-05-02T16:48:36.999Z</time></trkpt><trkpt lat="44.67983481454397" lon="7.592212597284342"><ele>299.0</ele><time>2026-05-02T16:48:37.999Z</time></trkpt><trkpt lat="44.67971391573" lon="7.592249814951403"><ele>299.0</ele><time>2026-05-02T16:48:38.999Z</time></trkpt><trkpt lat="44.679633456238925" lon="7.592266912039947"><ele>299.0</ele><time>2026-05-02T16:48:39.999Z</time></trkpt><trkpt lat="44.67956704646119" lon="7.592348544911738"><ele>299.0</ele><time>2026-05-02T16:48:42Z</time></trkpt><trkpt lat="44.679498599884646" lon="7.592456310796894"><ele>299.0</ele><time>2026-05-02T16:48:44Z</time></trkpt><trkpt lat="44.679414237846736" lon="7.592484931017459"><ele>299.75</ele><time>2026-05-02T16:48:45Z</time></trkpt><trkpt lat="44.67930828082293" lon="7.592489944405996"><ele>300.5</ele><time>2026-05-02T16:48:46Z</time></trkpt><trkpt lat="44.67918913630778" lon="7.5925084367953115"><ele>301.25</ele><time>2026-05-02T16:48:47Z</time></trkpt><trkpt lat="44.67906434683988" lon="7.5925414065892385"><ele>302.0</ele><time>2026-05-02T16:48:48Z</time></trkpt><trkpt lat="44.67893464702343" lon="7.592590047276995"><ele>302.0</ele><time>2026-05-02T16:48:49Z</time></trkpt><trkpt lat="44.67881065022238" lon="7.5926264217039074"><ele>302.0</ele><time>2026-05-02T16:48:50Z</time></trkpt><trkpt lat="44.67868787259188" lon="7.592640012566825"><ele>302.0</ele><time>2026-05-02T16:48:51Z</time></trkpt><trkpt lat="44.678572602842" lon="7.592662188217365"><ele>302.0</ele><time>2026-05-02T16:48:52Z</time></trkpt><trkpt lat="44.678459898892235" lon="7.592694562939799"><ele>302.25</ele><time>2026-05-02T16:48:53Z</time></trkpt><trkpt lat="44.678333998884284" lon="7.592764926727288"><ele>302.5</ele><time>2026-05-02T16:48:54Z</time></trkpt><trkpt lat="44.678229426526705" lon="7.592805916045953"><ele>302.75</ele><time>2026-05-02T16:48:55Z</time></trkpt><trkpt lat="44.678110664725395" lon="7.592848043033117"><ele>303.0</ele><time>2026-05-02T16:48:56Z</time></trkpt><trkpt lat="44.677998874658506" lon="7.592865707458427"><ele>303.3333333333333</ele><time>2026-05-02T16:48:57Z</time></trkpt><trkpt lat="44.67790221976402" lon="7.592918231871733"><ele>303.6666666666667</ele><time>2026-05-02T16:48:58Z</time></trkpt><trkpt lat="44.67784338991448" lon="7.592973155105237"><ele>304.0</ele><time>2026-05-02T16:48:59Z</time></trkpt><trkpt lat="44.67781658089749" lon="7.593055707058725"><ele>304.33333333333337</ele><time>2026-05-02T16:49:00Z</time></trkpt><trkpt lat="44.677728524843616" lon="7.593039432248051"><ele>304.6666666666667</ele><time>2026-05-02T16:49:03Z</time></trkpt><trkpt lat="44.677704217031646" lon="7.592935514011927"><ele>305.0</ele><time>2026-05-02T16:49:04Z</time></trkpt><trkpt lat="44.67766787866219" lon="7.592803377052052"><ele>305.0</ele><time>2026-05-02T16:49:05Z</time></trkpt><trkpt lat="44.67764063363092" lon="7.592623667653405"><ele>305.0</ele><time>2026-05-02T16:49:06Z</time></trkpt><trkpt lat="44.67760918686252" lon="7.5924395759864565"><ele>305.0</ele><time>2026-05-02T16:49:07Z</time></trkpt><trkpt lat="44.67757991894415" lon="7.592253573085189"><ele>305.0</ele><time>2026-05-02T16:49:08Z</time></trkpt><trkpt lat="44.677558895530794" lon="7.592115820089412"><ele>305.2</ele><time>2026-05-02T16:49:09Z</time></trkpt><trkpt lat="44.67754901588466" lon="7.591973445767129"><ele>305.4</ele><time>2026-05-02T16:49:11Z</time></trkpt><trkpt lat="44.67762923145228" lon="7.59187900242745"><ele>305.6</ele><time>2026-05-02T16:49:13Z</time></trkpt><trkpt lat="44.67771709867839" lon="7.591850719446806"><ele>305.8</ele><time>2026-05-02T16:49:14Z</time></trkpt><trkpt lat="44.67783622450016" lon="7.591830232800075"><ele>306.0</ele><time>2026-05-02T16:49:15Z</time></trkpt><trkpt lat="44.67792577393176" lon="7.591798778172093"><ele>305.6</ele><time>2026-05-02T16:49:16Z</time></trkpt><trkpt lat="44.67797540050033" lon="7.591686513778348"><ele>305.20000000000005</ele><time>2026-05-02T16:49:18Z</time></trkpt><trkpt lat="44.677957872410815" lon="7.591580965117814"><ele>304.79999999999995</ele><time>2026-05-02T16:49:20Z</time></trkpt><trkpt lat="44.67792697565123" lon="7.591451042232392"><ele>304.4</ele><time>2026-05-02T16:49:21Z</time></trkpt><trkpt lat="44.67791783356617" lon="7.591307034700097"><ele>304.0</ele><time>2026-05-02T16:49:22Z</time></trkpt><trkpt lat="44.677945091845345" lon="7.591169241797294"><ele>303.2</ele><time>2026-05-02T16:49:23Z</time></trkpt><trkpt lat="44.67798099946072" lon="7.59102565074357"><ele>302.4</ele><time>2026-05-02T16:49:24Z</time></trkpt><trkpt lat="44.67806187246218" lon="7.590885865698667"><ele>301.6</ele><time>2026-05-02T16:49:25Z</time></trkpt><trkpt lat="44.67812410655483" lon="7.590746740194461"><ele>300.8</ele><time>2026-05-02T16:49:26Z</time></trkpt><trkpt lat="44.678155769160995" lon="7.590649554242939"><ele>300.0</ele><time>2026-05-02T16:49:27Z</time></trkpt><trkpt lat="44.678139758969316" lon="7.59055299156587"><ele>300.0</ele><time>2026-05-02T16:49:28Z</time></trkpt><trkpt lat="44.67810960796529" lon="7.590409634651333"><ele>300.0</ele><time>2026-05-02T16:49:29Z</time></trkpt><trkpt lat="44.678130599515825" lon="7.590309843551142"><ele>300.0</ele><time>2026-05-02T16:49:30Z</time></trkpt><trkpt lat="44.678196303429125" lon="7.590231128427569"><ele>300.0</ele><time>2026-05-02T16:49:31Z</time></trkpt><trkpt lat="44.67827066065099" lon="7.590175835766429"><ele>300.0</ele><time>2026-05-02T16:49:32Z</time></trkpt><trkpt lat="44.678379027050696" lon="7.5901728694260235"><ele>299.75</ele><time>2026-05-02T16:49:33Z</time></trkpt><trkpt lat="44.67850829769373" lon="7.590195943415231"><ele>299.5</ele><time>2026-05-02T16:49:34Z</time></trkpt><trkpt lat="44.67864100943625" lon="7.590204471126067"><ele>299.25</ele><time>2026-05-02T16:49:35Z</time></trkpt><trkpt lat="44.678750237818065" lon="7.590192218536971"><ele>299.0</ele><time>2026-05-02T16:49:36Z</time></trkpt><trkpt lat="44.67884171284602" lon="7.590193934977267"><ele>299.0</ele><time>2026-05-02T16:49:37Z</time></trkpt><trkpt lat="44.67894852286672" lon="7.590236256284535"><ele>299.0</ele><time>2026-05-02T16:49:38Z</time></trkpt><trkpt lat="44.67905757581356" lon="7.590290586754149"><ele>299.0</ele><time>2026-05-02T16:49:39Z</time></trkpt><trkpt lat="44.67917252013979" lon="7.590327522219604"><ele>299.0</ele><time>2026-05-02T16:49:40Z</time></trkpt><trkpt lat="44.6792720708414" lon="7.5903248651149"><ele>299.0</ele><time>2026-05-02T16:49:40.999Z</time></trkpt><trkpt lat="44.67939551215618" lon="7.590305050900535"><ele>298.75</ele><time>2026-05-02T16:49:41.999Z</time></trkpt><trkpt lat="44.67951960813623" lon="7.590308696980408"><ele>298.5</ele><time>2026-05-02T16:49:42.999Z</time></trkpt><trkpt lat="44.679637770181074" lon="7.590350694105069"><ele>298.25</ele><time>2026-05-02T16:49:43.999Z</time></trkpt><trkpt lat="44.67974321249207" lon="7.590390408394382"><ele>298.0</ele><time>2026-05-02T16:49:44.999Z</time></trkpt><trkpt lat="44.679829534309526" lon="7.590472944004674"><ele>299.25</ele><time>2026-05-02T16:49:45.999Z</time></trkpt><trkpt lat="44.67991473104292" lon="7.5906007168018625"><ele>300.5</ele><time>2026-05-02T16:49:46.999Z</time></trkpt><trkpt lat="44.680006294189994" lon="7.590685766048241"><ele>301.75</ele><time>2026-05-02T16:49:47.999Z</time></trkpt><trkpt lat="44.68011548879747" lon="7.590726601841863"><ele>303.0</ele><time>2026-05-02T16:49:48.999Z</time></trkpt><trkpt lat="44.6802164583613" lon="7.590769968078402"><ele>302.5</ele><time>2026-05-02T16:49:49.999Z</time></trkpt><trkpt lat="44.680323973955645" lon="7.590813107388432"><ele>302.0</ele><time>2026-05-02T16:49:50.999Z</time></trkpt><trkpt lat="44.68043899273159" lon="7.59080820045884"><ele>301.5</ele><time>2026-05-02T16:49:51.999Z</time></trkpt><trkpt lat="44.68054715684574" lon="7.5907511925180975"><ele>301.0</ele><time>2026-05-02T16:49:52.999Z</time></trkpt><trkpt lat="44.680659746150546" lon="7.590648416710503"><ele>301.0</ele><time>2026-05-02T16:49:53.999Z</time></trkpt><trkpt lat="44.68075979992989" lon="7.590543728629766"><ele>301.0</ele><time>2026-05-02T16:49:54.999Z</time></trkpt><trkpt lat="44.680832182484835" lon="7.590459937841173"><ele>301.0</ele><time>2026-05-02T16:49:55.999Z</time></trkpt><trkpt lat="44.68091998362937" lon="7.590360133986937"><ele>301.0</ele><time>2026-05-02T16:49:56.999Z</time></trkpt><trkpt lat="44.68101769631171" lon="7.590247908705638"><ele>300.8</ele><time>2026-05-02T16:49:57.999Z</time></trkpt><trkpt lat="44.68110628805198" lon="7.590167936000346"><ele>300.6</ele><time>2026-05-02T16:49:58.999Z</time></trkpt><trkpt lat="44.68118528140555" lon="7.590115196535726"><ele>300.4</ele><time>2026-05-02T16:49:59.999Z</time></trkpt><trkpt lat="44.68128829294" lon="7.590109284496892"><ele>300.2</ele><time>2026-05-02T16:50:00.999Z</time></trkpt><trkpt lat="44.68141304264869" lon="7.590152812885714"><ele>300.0</ele><time>2026-05-02T16:50:01.999Z</time></trkpt><trkpt lat="44.68154504711729" lon="7.590198076692701"><ele>300.0</ele><time>2026-05-02T16:50:02.999Z</time></trkpt><trkpt lat="44.68166403330861" lon="7.5902197051662"><ele>300.0</ele><time>2026-05-02T16:50:03.999Z</time></trkpt><trkpt lat="44.68177610524221" lon="7.590245867981477"><ele>300.0</ele><time>2026-05-02T16:50:04.999Z</time></trkpt><trkpt lat="44.68188117660734" lon="7.590288232494935"><ele>300.0</ele><time>2026-05-02T16:50:05.999Z</time></trkpt><trkpt lat="44.68198519291206" lon="7.590355755571483"><ele>299.5</ele><time>2026-05-02T16:50:06.999Z</time></trkpt><trkpt lat="44.682108051112586" lon="7.590456600341504"><ele>299.0</ele><time>2026-05-02T16:50:07.999Z</time></trkpt><trkpt lat="44.68221611181521" lon="7.590574048841534"><ele>298.5</ele><time>2026-05-02T16:50:08.999Z</time></trkpt><trkpt lat="44.68233325842827" lon="7.590664455784086"><ele>298.0</ele><time>2026-05-02T16:50:09.999Z</time></trkpt><trkpt lat="44.68246179938602" lon="7.5907374432295125"><ele>298.0</ele><time>2026-05-02T16:50:10.999Z</time></trkpt><trkpt lat="44.682587210402836" lon="7.590805498037889"><ele>298.0</ele><time>2026-05-02T16:50:11.999Z</time></trkpt><trkpt lat="44.682708404709686" lon="7.590868903611333"><ele>298.0</ele><time>2026-05-02T16:50:12.999Z</time></trkpt><trkpt lat="44.68282381455437" lon="7.590933685318855"><ele>298.0</ele><time>2026-05-02T16:50:13.999Z</time></trkpt><trkpt lat="44.682912277263576" lon="7.590992516999738"><ele>298.0</ele><time>2026-05-02T16:50:14.999Z</time></trkpt><trkpt lat="44.68300352635488" lon="7.591151713694859"><ele>298.0</ele><time>2026-05-02T16:50:16.999Z</time></trkpt><trkpt lat="44.68305251780029" lon="7.591303158309504"><ele>298.0</ele><time>2026-05-02T16:50:17.999Z</time></trkpt><trkpt lat="44.683104074245996" lon="7.591473285296441"><ele>298.0</ele><time>2026-05-02T16:50:18.999Z</time></trkpt><trkpt lat="44.68316100091177" lon="7.591644088661525"><ele>298.0</ele><time>2026-05-02T16:50:19.999Z</time></trkpt><trkpt lat="44.68319770516577" lon="7.5918304633095355"><ele>298.0</ele><time>2026-05-02T16:50:20.999Z</time></trkpt><trkpt lat="44.68322159991537" lon="7.591991133589506"><ele>298.0</ele><time>2026-05-02T16:50:21.999Z</time></trkpt><trkpt lat="44.68322898520262" lon="7.592088241455568"><ele>298.0</ele><time>2026-05-02T16:50:22.999Z</time></trkpt><trkpt lat="44.68313822976683" lon="7.592227683323246"><ele>297.75</ele><time>2026-05-02T16:50:24.999Z</time></trkpt><trkpt lat="44.68305239500329" lon="7.592273752184764"><ele>297.5</ele><time>2026-05-02T16:50:25.999Z</time></trkpt><trkpt lat="44.68293729828179" lon="7.592298227587634"><ele>297.25</ele><time>2026-05-02T16:50:26.999Z</time></trkpt><trkpt lat="44.68279833903987" lon="7.5923480582274925"><ele>297.0</ele><time>2026-05-02T16:50:27.999Z</time></trkpt><trkpt lat="44.68266769616059" lon="7.592407522292382"><ele>297.0</ele><time>2026-05-02T16:50:28.999Z</time></trkpt><trkpt lat="44.682531319872986" lon="7.592464382462293"><ele>297.0</ele><time>2026-05-02T16:50:29.999Z</time></trkpt><trkpt lat="44.68238517884796" lon="7.592478182685139"><ele>297.0</ele><time>2026-05-02T16:50:30.999Z</time></trkpt><trkpt lat="44.68222758234385" lon="7.5924834278064735"><ele>297.0</ele><time>2026-05-02T16:50:31.999Z</time></trkpt><trkpt lat="44.68205629583548" lon="7.592488440988369"><ele>297.5</ele><time>2026-05-02T16:50:32.999Z</time></trkpt><trkpt lat="44.68191034245029" lon="7.592509063495144"><ele>298.0</ele><time>2026-05-02T16:50:33.999Z</time></trkpt><trkpt lat="44.68177801617784" lon="7.592527288621723"><ele>298.5</ele><time>2026-05-02T16:50:34.999Z</time></trkpt><trkpt lat="44.68163711343819" lon="7.592492427443744"><ele>299.0</ele><time>2026-05-02T16:50:35.999Z</time></trkpt><trkpt lat="44.68148227563163" lon="7.592445927140093"><ele>299.0</ele><time>2026-05-02T16:50:36.999Z</time></trkpt><trkpt lat="44.68133194208556" lon="7.592380954187596"><ele>299.0</ele><time>2026-05-02T16:50:37.999Z</time></trkpt><trkpt lat="44.68118420488508" lon="7.592323640223326"><ele>299.0</ele><time>2026-05-02T16:50:38.999Z</time></trkpt><trkpt lat="44.68104409567356" lon="7.5922892545845535"><ele>298.75</ele><time>2026-05-02T16:50:39.999Z</time></trkpt><trkpt lat="44.68090617988314" lon="7.592217986114266"><ele>298.5</ele><time>2026-05-02T16:50:40.999Z</time></trkpt><trkpt lat="44.680776267816505" lon="7.592163464443882"><ele>298.25</ele><time>2026-05-02T16:50:41.999Z</time></trkpt><trkpt lat="44.68063577568296" lon="7.592140858485316"><ele>298.0</ele><time>2026-05-02T16:50:42.999Z</time></trkpt><trkpt lat="44.68047943805245" lon="7.592140821308274"><ele>298.0</ele><time>2026-05-02T16:50:43.999Z</time></trkpt><trkpt lat="44.680323130493015" lon="7.5921486341018944"><ele>298.0</ele><time>2026-05-02T16:50:44.999Z</time></trkpt><trkpt lat="44.68014804083414" lon="7.592169205146922"><ele>298.0</ele><time>2026-05-02T16:50:45.999Z</time></trkpt><trkpt lat="44.679985880567315" lon="7.592206510690703"><ele>298.2</ele><time>2026-05-02T16:50:46.999Z</time></trkpt><trkpt lat="44.67985047877378" lon="7.592238527512158"><ele>298.4</ele><time>2026-05-02T16:50:48Z</time></trkpt><trkpt lat="44.679741848017706" lon="7.592261155445281"><ele>298.59999999999997</ele><time>2026-05-02T16:50:49Z</time></trkpt><trkpt lat="44.679672583110005" lon="7.592282948190064"><ele>298.8</ele><time>2026-05-02T16:50:50Z</time></trkpt><trkpt lat="44.679608089648234" lon="7.5923303443774195"><ele>299.0</ele><time>2026-05-02T16:50:51Z</time></trkpt><trkpt lat="44.67953149865659" lon="7.592426242695431"><ele>299.0</ele><time>2026-05-02T16:50:52Z</time></trkpt><trkpt lat="44.67946051855737" lon="7.592496326938202"><ele>299.0</ele><time>2026-05-02T16:50:53Z</time></trkpt><trkpt lat="44.67935751862538" lon="7.59251971591645"><ele>299.0</ele><time>2026-05-02T16:50:54Z</time></trkpt><trkpt lat="44.679227785206166" lon="7.5925227762299095"><ele>299.0</ele><time>2026-05-02T16:50:55Z</time></trkpt><trkpt lat="44.67909761473851" lon="7.592538053598814"><ele>300.0</ele><time>2026-05-02T16:50:56Z</time></trkpt><trkpt lat="44.67896062746317" lon="7.592586881056117"><ele>301.0</ele><time>2026-05-02T16:50:57Z</time></trkpt><trkpt lat="44.67881179393547" lon="7.592642984174523"><ele>302.0</ele><time>2026-05-02T16:50:58Z</time></trkpt><trkpt lat="44.67865313003855" lon="7.5926736897143385"><ele>302.25</ele><time>2026-05-02T16:50:59Z</time></trkpt><trkpt lat="44.67851632110263" lon="7.592702077138647"><ele>302.5</ele><time>2026-05-02T16:51:00Z</time></trkpt><trkpt lat="44.678381408638714" lon="7.59275232845944"><ele>302.75</ele><time>2026-05-02T16:51:01Z</time></trkpt><trkpt lat="44.67824640927961" lon="7.592802210824158"><ele>303.0</ele><time>2026-05-02T16:51:02Z</time></trkpt><trkpt lat="44.67811270735033" lon="7.592847138049868"><ele>302.4</ele><time>2026-05-02T16:51:03Z</time></trkpt><trkpt lat="44.677983484214096" lon="7.592885578990342"><ele>301.8</ele><time>2026-05-02T16:51:04Z</time></trkpt><trkpt lat="44.67788064089545" lon="7.5929333313972505"><ele>301.2</ele><time>2026-05-02T16:51:05Z</time></trkpt><trkpt lat="44.67783251573188" lon="7.592992281550854"><ele>300.6</ele><time>2026-05-02T16:51:06Z</time></trkpt><trkpt lat="44.67779330022079" lon="7.593115757639932"><ele>300.0</ele><time>2026-05-02T16:51:08Z</time></trkpt><trkpt lat="44.67771493595646" lon="7.593020325872319"><ele>300.0</ele><time>2026-05-02T16:51:10Z</time></trkpt><trkpt lat="44.67768185245911" lon="7.59289571379452"><ele>300.0</ele><time>2026-05-02T16:51:11Z</time></trkpt><trkpt lat="44.67765677954543" lon="7.592727269111336"><ele>300.0</ele><time>2026-05-02T16:51:12Z</time></trkpt><trkpt lat="44.67763154164963" lon="7.592549876760876"><ele>300.0</ele><time>2026-05-02T16:51:13Z</time></trkpt><trkpt lat="44.67759954919868" lon="7.592374417053501"><ele>301.0</ele><time>2026-05-02T16:51:14Z</time></trkpt><trkpt lat="44.67757689888771" lon="7.592219055762284"><ele>302.0</ele><time>2026-05-02T16:51:15Z</time></trkpt><trkpt lat="44.67755714222204" lon="7.592094301418654"><ele>303.0</ele><time>2026-05-02T16:51:16Z</time></trkpt><trkpt lat="44.67755116388911" lon="7.591949928713593"><ele>304.0</ele><time>2026-05-02T16:51:18Z</time></trkpt><trkpt lat="44.677656051465796" lon="7.591865154305263"><ele>305.0</ele><time>2026-05-02T16:51:20Z</time></trkpt><trkpt lat="44.67774256503378" lon="7.5918475726720525"><ele>304.8</ele><time>2026-05-02T16:51:21Z</time></trkpt><trkpt lat="44.67782776278047" lon="7.5918237725898"><ele>304.6</ele><time>2026-05-02T16:51:22Z</time></trkpt><trkpt lat="44.67789776934377" lon="7.591790689772433"><ele>304.4</ele><time>2026-05-02T16:51:23Z</time></trkpt><trkpt lat="44.6779629236673" lon="7.591646402860203"><ele>304.2</ele><time>2026-05-02T16:51:25Z</time></trkpt><trkpt lat="44.67794955693216" lon="7.591517880851445"><ele>304.0</ele><time>2026-05-02T16:51:26Z</time></trkpt><trkpt lat="44.6779205968109" lon="7.591376698826393"><ele>304.0</ele><time>2026-05-02T16:51:27Z</time></trkpt><trkpt lat="44.67792535900333" lon="7.591243505062723"><ele>304.0</ele><time>2026-05-02T16:51:28Z</time></trkpt><trkpt lat="44.67795021839506" lon="7.59112320039549"><ele>304.0</ele><time>2026-05-02T16:51:29Z</time></trkpt><trkpt lat="44.67800321183422" lon="7.590997777655339"><ele>304.0</ele><time>2026-05-02T16:51:30Z</time></trkpt><trkpt lat="44.678067649900804" lon="7.5908530471469415"><ele>304.0</ele><time>2026-05-02T16:51:31Z</time></trkpt><trkpt lat="44.67811857484196" lon="7.5907261681665394"><ele>303.3333333333333</ele><time>2026-05-02T16:51:32Z</time></trkpt><trkpt lat="44.67813774168633" lon="7.5905582374513"><ele>302.66666666666663</ele><time>2026-05-02T16:51:34Z</time></trkpt><trkpt lat="44.6780968335592" lon="7.590450588600755"><ele>302.0</ele><time>2026-05-02T16:51:35Z</time></trkpt><trkpt lat="44.67810329034188" lon="7.590343482529337"><ele>301.3333333333333</ele><time>2026-05-02T16:51:36Z</time></trkpt><trkpt lat="44.67814021237036" lon="7.590246916256902"><ele>300.6666666666667</ele><time>2026-05-02T16:51:37Z</time></trkpt><trkpt lat="44.678206261933" lon="7.590177544415252"><ele>300.0</ele><time>2026-05-02T16:51:38Z</time></trkpt><trkpt lat="44.678294549112216" lon="7.5901300564774825"><ele>299.75</ele><time>2026-05-02T16:51:39Z</time></trkpt><trkpt lat="44.67840972196219" lon="7.590145342435679"><ele>299.5</ele><time>2026-05-02T16:51:40Z</time></trkpt><trkpt lat="44.67854587567996" lon="7.590190231751927"><ele>299.25</ele><time>2026-05-02T16:51:40.999Z</time></trkpt><trkpt lat="44.678660168945996" lon="7.590190934722308"><ele>299.0</ele><time>2026-05-02T16:51:41.999Z</time></trkpt><trkpt lat="44.67878215459305" lon="7.5901825654077335"><ele>299.0</ele><time>2026-05-02T16:51:42.999Z</time></trkpt><trkpt lat="44.67889698125368" lon="7.5902118181890685"><ele>299.0</ele><time>2026-05-02T16:51:43.999Z</time></trkpt><trkpt lat="44.679020347347716" lon="7.590271786313314"><ele>299.0</ele><time>2026-05-02T16:51:44.999Z</time></trkpt><trkpt lat="44.679135055819096" lon="7.590312312695634"><ele>299.0</ele><time>2026-05-02T16:51:45.999Z</time></trkpt><trkpt lat="44.67924811017995" lon="7.590330599046242"><ele>299.0</ele><time>2026-05-02T16:51:46.999Z</time></trkpt><trkpt lat="44.679367922709346" lon="7.590307551224459"><ele>299.0</ele><time>2026-05-02T16:51:47.999Z</time></trkpt><trkpt lat="44.679494602255524" lon="7.59029585549462"><ele>299.0</ele><time>2026-05-02T16:51:48.999Z</time></trkpt><trkpt lat="44.67960822952729" lon="7.590308820477812"><ele>299.0</ele><time>2026-05-02T16:51:49.999Z</time></trkpt><trkpt lat="44.67970252948623" lon="7.590345569846223"><ele>300.0</ele><time>2026-05-02T16:51:50.999Z</time></trkpt><trkpt lat="44.67979813585281" lon="7.590385527075716"><ele>301.0</ele><time>2026-05-02T16:51:51.999Z</time></trkpt><trkpt lat="44.679892768500316" lon="7.590504297719377"><ele>302.0</ele><time>2026-05-02T16:51:52.999Z</time></trkpt><trkpt lat="44.679989295068765" lon="7.5906168927962625"><ele>303.0</ele><time>2026-05-02T16:51:53.999Z</time></trkpt><trkpt lat="44.680081562537836" lon="7.590675649997473"><ele>303.0</ele><time>2026-05-02T16:51:54.999Z</time></trkpt><trkpt lat="44.68019185835971" lon="7.590734134111724"><ele>303.0</ele><time>2026-05-02T16:51:55.999Z</time></trkpt><trkpt lat="44.680316350328226" lon="7.590767868128439"><ele>303.0</ele><time>2026-05-02T16:51:56.999Z</time></trkpt><trkpt lat="44.680427429020995" lon="7.590798346063428"><ele>303.0</ele><time>2026-05-02T16:51:57.999Z</time></trkpt><trkpt lat="44.680526362668395" lon="7.590763645453439"><ele>302.5</ele><time>2026-05-02T16:51:58.999Z</time></trkpt><trkpt lat="44.680638290899616" lon="7.590703825944731"><ele>302.0</ele><time>2026-05-02T16:51:59.999Z</time></trkpt><trkpt lat="44.68077378061399" lon="7.59057649723319"><ele>301.5</ele><time>2026-05-02T16:52:00.999Z</time></trkpt><trkpt lat="44.68089318769623" lon="7.590430551747916"><ele>301.0</ele><time>2026-05-02T16:52:01.999Z</time></trkpt><trkpt lat="44.681002160015076" lon="7.590298776497284"><ele>300.75</ele><time>2026-05-02T16:52:02.999Z</time></trkpt><trkpt lat="44.68108843823595" lon="7.590203832068855"><ele>300.5</ele><time>2026-05-02T16:52:03.999Z</time></trkpt><trkpt lat="44.681153957985785" lon="7.590140294523414"><ele>300.25</ele><time>2026-05-02T16:52:04.999Z</time></trkpt><trkpt lat="44.68129877997228" lon="7.590100725860697"><ele>300.0</ele><time>2026-05-02T16:52:06.999Z</time></trkpt><trkpt lat="44.68141142377037" lon="7.590130959142316"><ele>300.0</ele><time>2026-05-02T16:52:07.999Z</time></trkpt><trkpt lat="44.68153129908528" lon="7.590173950739176"><ele>300.0</ele><time>2026-05-02T16:52:08.999Z</time></trkpt><trkpt lat="44.68166352925703" lon="7.590216141184587"><ele>300.0</ele><time>2026-05-02T16:52:09.999Z</time></trkpt><trkpt lat="44.681777470547694" lon="7.59023134757908"><ele>300.0</ele><time>2026-05-02T16:52:10.999Z</time></trkpt><trkpt lat="44.68187825934756" lon="7.590277733207396"><ele>299.5</ele><time>2026-05-02T16:52:11.999Z</time></trkpt><trkpt lat="44.68197432489003" lon="7.590361160836691"><ele>299.0</ele><time>2026-05-02T16:52:12.999Z</time></trkpt><trkpt lat="44.68209017190134" lon="7.590471376311096"><ele>298.5</ele><time>2026-05-02T16:52:13.999Z</time></trkpt><trkpt lat="44.68220740652784" lon="7.590583522217115"><ele>298.0</ele><time>2026-05-02T16:52:14.999Z</time></trkpt><trkpt lat="44.6823295977156" lon="7.590683769633486"><ele>298.0</ele><time>2026-05-02T16:52:15.999Z</time></trkpt><trkpt lat="44.68247088984141" lon="7.590769095284617"><ele>298.0</ele><time>2026-05-02T16:52:16.999Z</time></trkpt><trkpt lat="44.682616016057175" lon="7.5908348522977445"><ele>298.0</ele><time>2026-05-02T16:52:17.999Z</time></trkpt><trkpt lat="44.68274098291311" lon="7.590899436290126"><ele>298.0</ele><time>2026-05-02T16:52:18.999Z</time></trkpt><trkpt lat="44.68283587148213" lon="7.590955824496222"><ele>298.0</ele><time>2026-05-02T16:52:19.999Z</time></trkpt><trkpt lat="44.682916918031246" lon="7.591016431720779"><ele>298.0</ele><time>2026-05-02T16:52:20.999Z</time></trkpt><trkpt lat="44.68295640254034" lon="7.59109471581959"><ele>298.0</ele><time>2026-05-02T16:52:21.999Z</time></trkpt><trkpt lat="44.68301224138889" lon="7.591221400764313"><ele>298.0</ele><time>2026-05-02T16:52:22.999Z</time></trkpt><trkpt lat="44.683069553940534" lon="7.59138823848543"><ele>298.0</ele><time>2026-05-02T16:52:23.999Z</time></trkpt><trkpt lat="44.683120838163546" lon="7.591550430633882"><ele>298.0</ele><time>2026-05-02T16:52:24.999Z</time></trkpt><trkpt lat="44.6831626877334" lon="7.59174789606846"><ele>298.0</ele><time>2026-05-02T16:52:25.999Z</time></trkpt><trkpt lat="44.683199761352206" lon="7.59192930305852"><ele>298.0</ele><time>2026-05-02T16:52:26.999Z</time></trkpt><trkpt lat="44.683215600578485" lon="7.592037302465067"><ele>298.0</ele><time>2026-05-02T16:52:27.999Z</time></trkpt><trkpt lat="44.68315461243671" lon="7.592176212528218"><ele>297.75</ele><time>2026-05-02T16:52:29.999Z</time></trkpt><trkpt lat="44.683075242509744" lon="7.592244030070963"><ele>297.5</ele><time>2026-05-02T16:52:30.999Z</time></trkpt><trkpt lat="44.682944400176396" lon="7.59228972623442"><ele>297.25</ele><time>2026-05-02T16:52:31.999Z</time></trkpt><trkpt lat="44.68281702445791" lon="7.592335379327671"><ele>297.0</ele><time>2026-05-02T16:52:32.999Z</time></trkpt><trkpt lat="44.682681457631574" lon="7.592389541635673"><ele>297.0</ele><time>2026-05-02T16:52:33.999Z</time></trkpt><trkpt lat="44.68253921251799" lon="7.5924472157599086"><ele>297.0</ele><time>2026-05-02T16:52:34.999Z</time></trkpt><trkpt lat="44.682371423023575" lon="7.592476734104856"><ele>297.0</ele><time>2026-05-02T16:52:35.999Z</time></trkpt><trkpt lat="44.682204949631725" lon="7.592484286706872"><ele>297.0</ele><time>2026-05-02T16:52:36.999Z</time></trkpt><trkpt lat="44.68203664032476" lon="7.592489312748377"><ele>297.0</ele><time>2026-05-02T16:52:37.999Z</time></trkpt><trkpt lat="44.68189506404645" lon="7.592516502136274"><ele>297.0</ele><time>2026-05-02T16:52:38.999Z</time></trkpt><trkpt lat="44.68175178956741" lon="7.592533286959251"><ele>297.6666666666667</ele><time>2026-05-02T16:52:39.999Z</time></trkpt><trkpt lat="44.68160353248234" lon="7.5924977176509065"><ele>298.33333333333337</ele><time>2026-05-02T16:52:40.999Z</time></trkpt><trkpt lat="44.681442415843314" lon="7.592432856605533"><ele>299.0</ele><time>2026-05-02T16:52:41.999Z</time></trkpt><trkpt lat="44.68128657437295" lon="7.59236847448491"><ele>299.0</ele><time>2026-05-02T16:52:42.999Z</time></trkpt><trkpt lat="44.681132072875045" lon="7.592316815220208"><ele>299.0</ele><time>2026-05-02T16:52:43.999Z</time></trkpt><trkpt lat="44.6809908665766" lon="7.592280915452556"><ele>299.0</ele><time>2026-05-02T16:52:44.999Z</time></trkpt><trkpt lat="44.68083735410836" lon="7.59220181025955"><ele>298.6666666666667</ele><time>2026-05-02T16:52:45.999Z</time></trkpt><trkpt lat="44.680685046308014" lon="7.5921510983503895"><ele>298.3333333333333</ele><time>2026-05-02T16:52:46.999Z</time></trkpt><trkpt lat="44.68052454400313" lon="7.592137672983268"><ele>298.0</ele><time>2026-05-02T16:52:47.999Z</time></trkpt><trkpt lat="44.68034710144019" lon="7.592137944706084"><ele>298.3333333333333</ele><time>2026-05-02T16:52:48.999Z</time></trkpt><trkpt lat="44.680175505833994" lon="7.592137487861568"><ele>298.6666666666667</ele><time>2026-05-02T16:52:49.999Z</time></trkpt><trkpt lat="44.679990656006304" lon="7.592162755397031"><ele>299.0</ele><time>2026-05-02T16:52:50.999Z</time></trkpt><trkpt lat="44.67982669252235" lon="7.592193434839461"><ele>299.0</ele><time>2026-05-02T16:52:51.999Z</time></trkpt><trkpt lat="44.67967568453346" lon="7.592209489515222"><ele>299.0</ele><time>2026-05-02T16:52:52.999Z</time></trkpt><trkpt lat="44.679602966988696" lon="7.592256671114433"><ele>299.0</ele><time>2026-05-02T16:52:54Z</time></trkpt><trkpt lat="44.679551975968685" lon="7.592312381360388"><ele>299.0</ele><time>2026-05-02T16:52:56Z</time></trkpt><trkpt lat="44.67954459078789" lon="7.5924015170123065"><ele>299.0</ele><time>2026-05-02T16:52:58Z</time></trkpt><trkpt lat="44.679442348163576" lon="7.592476319572442"><ele>299.75</ele><time>2026-05-02T16:53:00Z</time></trkpt><trkpt lat="44.679345858660476" lon="7.592497707041399"><ele>300.5</ele><time>2026-05-02T16:53:01Z</time></trkpt><trkpt lat="44.67923161567667" lon="7.592501010815949"><ele>301.25</ele><time>2026-05-02T16:53:02Z</time></trkpt><trkpt lat="44.6791062789424" lon="7.592533107560053"><ele>302.0</ele><time>2026-05-02T16:53:03Z</time></trkpt><trkpt lat="44.67897486349416" lon="7.592573663344695"><ele>302.0</ele><time>2026-05-02T16:53:04Z</time></trkpt><trkpt lat="44.67883769595594" lon="7.592626214183336"><ele>302.0</ele><time>2026-05-02T16:53:05Z</time></trkpt><trkpt lat="44.678695200749786" lon="7.592651110300174"><ele>302.0</ele><time>2026-05-02T16:53:06Z</time></trkpt><trkpt lat="44.678549464599634" lon="7.592699791693608"><ele>302.0</ele><time>2026-05-02T16:53:07Z</time></trkpt><trkpt lat="44.67841571620882" lon="7.592754623151895"><ele>302.25</ele><time>2026-05-02T16:53:08Z</time></trkpt><trkpt lat="44.67827884367578" lon="7.592814984502431"><ele>302.5</ele><time>2026-05-02T16:53:09Z</time></trkpt><trkpt lat="44.678149192750716" lon="7.592853817983541"><ele>302.75</ele><time>2026-05-02T16:53:10Z</time></trkpt><trkpt lat="44.67801728797762" lon="7.592897945645167"><ele>303.0</ele><time>2026-05-02T16:53:11Z</time></trkpt><trkpt lat="44.67790834951107" lon="7.592931597245705"><ele>303.3333333333333</ele><time>2026-05-02T16:53:12Z</time></trkpt><trkpt lat="44.677846435065916" lon="7.593000615673457"><ele>303.6666666666667</ele><time>2026-05-02T16:53:13Z</time></trkpt><trkpt lat="44.67780357735282" lon="7.593081783020628"><ele>304.0</ele><time>2026-05-02T16:53:14Z</time></trkpt><trkpt lat="44.67774203885181" lon="7.5931211097640094"><ele>304.33333333333337</ele><time>2026-05-02T16:53:16Z</time></trkpt><trkpt lat="44.67770346346409" lon="7.593033917064592"><ele>304.6666666666667</ele><time>2026-05-02T16:53:17Z</time></trkpt><trkpt lat="44.67767346425775" lon="7.59291103724776"><ele>305.0</ele><time>2026-05-02T16:53:18Z</time></trkpt><trkpt lat="44.67764858448673" lon="7.592750777165276"><ele>305.0</ele><time>2026-05-02T16:53:19Z</time></trkpt><trkpt lat="44.67762156014163" lon="7.592573194555614"><ele>305.0</ele><time>2026-05-02T16:53:20Z</time></trkpt><trkpt lat="44.67758734606191" lon="7.592385559149873"><ele>305.0</ele><time>2026-05-02T16:53:21Z</time></trkpt><trkpt lat="44.67756033579258" lon="7.592222125975457"><ele>305.0</ele><time>2026-05-02T16:53:22Z</time></trkpt><trkpt lat="44.67754296229086" lon="7.592097218594355"><ele>305.2</ele><time>2026-05-02T16:53:23Z</time></trkpt><trkpt lat="44.67755644968061" lon="7.591950853352661"><ele>305.4</ele><time>2026-05-02T16:53:25Z</time></trkpt><trkpt lat="44.67768829784924" lon="7.591880530174685"><ele>305.6</ele><time>2026-05-02T16:53:27Z</time></trkpt><trkpt lat="44.67778784143471" lon="7.591860160922446"><ele>305.8</ele><time>2026-05-02T16:53:28Z</time></trkpt><trkpt lat="44.67788176804302" lon="7.591817489773392"><ele>306.0</ele><time>2026-05-02T16:53:29Z</time></trkpt><trkpt lat="44.67793786810361" lon="7.5917604647525"><ele>305.5</ele><time>2026-05-02T16:53:30Z</time></trkpt><trkpt lat="44.67795308800075" lon="7.59153751640778"><ele>305.0</ele><time>2026-05-02T16:53:32Z</time></trkpt><trkpt lat="44.67793480544859" lon="7.591380562917476"><ele>304.5</ele><time>2026-05-02T16:53:33Z</time></trkpt><trkpt lat="44.67792180762207" lon="7.591234031807238"><ele>304.0</ele><time>2026-05-02T16:53:34Z</time></trkpt><trkpt lat="44.67794119176243" lon="7.591102285731071"><ele>303.2</ele><time>2026-05-02T16:53:35Z</time></trkpt><trkpt lat="44.67799370912618" lon="7.59095570072041"><ele>302.4</ele><time>2026-05-02T16:53:36Z</time></trkpt><trkpt lat="44.67804793132279" lon="7.59080986196747"><ele>301.6</ele><time>2026-05-02T16:53:37Z</time></trkpt><trkpt lat="44.678108074695395" lon="7.590718251424995"><ele>300.8</ele><time>2026-05-02T16:53:38Z</time></trkpt><trkpt lat="44.67813126473149" lon="7.590627041501238"><ele>300.0</ele><time>2026-05-02T16:53:39Z</time></trkpt><trkpt lat="44.67812927966073" lon="7.5905166096801375"><ele>300.0</ele><time>2026-05-02T16:53:40Z</time></trkpt><trkpt lat="44.678118484782985" lon="7.5903776814436155"><ele>300.0</ele><time>2026-05-02T16:53:41Z</time></trkpt><trkpt lat="44.678130381929016" lon="7.590284394881821"><ele>300.0</ele><time>2026-05-02T16:53:42Z</time></trkpt><trkpt lat="44.678203442186934" lon="7.5902063717338795"><ele>300.0</ele><time>2026-05-02T16:53:42.999Z</time></trkpt><trkpt lat="44.678293717589405" lon="7.590142522135732"><ele>300.0</ele><time>2026-05-02T16:53:43.999Z</time></trkpt><trkpt lat="44.67839294310818" lon="7.590127731631734"><ele>299.75</ele><time>2026-05-02T16:53:44.999Z</time></trkpt><trkpt lat="44.67853953319403" lon="7.590169811779888"><ele>299.5</ele><time>2026-05-02T16:53:45.999Z</time></trkpt><trkpt lat="44.67866798280734" lon="7.590188998117366"><ele>299.25</ele><time>2026-05-02T16:53:46.999Z</time></trkpt><trkpt lat="44.67879220580749" lon="7.590174319640866"><ele>299.0</ele><time>2026-05-02T16:53:47.999Z</time></trkpt><trkpt lat="44.67891086301994" lon="7.590206395940186"><ele>299.0</ele><time>2026-05-02T16:53:48.999Z</time></trkpt><trkpt lat="44.679030914545635" lon="7.590251773968783"><ele>299.0</ele><time>2026-05-02T16:53:49.999Z</time></trkpt><trkpt lat="44.6791427991647" lon="7.5902975488556"><ele>299.0</ele><time>2026-05-02T16:53:50.999Z</time></trkpt><trkpt lat="44.6792638458436" lon="7.590306130617535"><ele>299.0</ele><time>2026-05-02T16:53:51.999Z</time></trkpt><trkpt lat="44.679396406878936" lon="7.590291095842896"><ele>298.8</ele><time>2026-05-02T16:53:52.999Z</time></trkpt><trkpt lat="44.679514594301" lon="7.590288715004557"><ele>298.59999999999997</ele><time>2026-05-02T16:53:53.999Z</time></trkpt><trkpt lat="44.67962597475575" lon="7.590323469322914"><ele>298.4</ele><time>2026-05-02T16:53:54.999Z</time></trkpt><trkpt lat="44.67972906278794" lon="7.590368212333755"><ele>298.2</ele><time>2026-05-02T16:53:55.999Z</time></trkpt><trkpt lat="44.67981383241125" lon="7.5904429636627295"><ele>298.0</ele><time>2026-05-02T16:53:56.999Z</time></trkpt><trkpt lat="44.679890695667254" lon="7.590570634964392"><ele>298.75</ele><time>2026-05-02T16:53:57.999Z</time></trkpt><trkpt lat="44.67998334399338" lon="7.590662683829441"><ele>299.5</ele><time>2026-05-02T16:53:58.999Z</time></trkpt><trkpt lat="44.68008487543209" lon="7.590721041972371"><ele>300.25</ele><time>2026-05-02T16:53:59.999Z</time></trkpt><trkpt lat="44.680194601721674" lon="7.590759168023612"><ele>301.0</ele><time>2026-05-02T16:54:00.999Z</time></trkpt><trkpt lat="44.68031187724879" lon="7.590806964877225"><ele>301.0</ele><time>2026-05-02T16:54:01.999Z</time></trkpt><trkpt lat="44.68041296692423" lon="7.590795405195301"><ele>301.0</ele><time>2026-05-02T16:54:02.999Z</time></trkpt><trkpt lat="44.68051293748951" lon="7.590752096652458"><ele>301.0</ele><time>2026-05-02T16:54:03.999Z</time></trkpt><trkpt lat="44.680629242001544" lon="7.5906845988516"><ele>301.0</ele><time>2026-05-02T16:54:04.999Z</time></trkpt><trkpt lat="44.68074717154722" lon="7.590569027360281"><ele>301.0</ele><time>2026-05-02T16:54:05.999Z</time></trkpt><trkpt lat="44.6808495968357" lon="7.590445826490143"><ele>301.0</ele><time>2026-05-02T16:54:06.999Z</time></trkpt><trkpt lat="44.680942302647416" lon="7.590316768041357"><ele>301.0</ele><time>2026-05-02T16:54:07.999Z</time></trkpt><trkpt lat="44.68102376310589" lon="7.590205541699507"><ele>301.0</ele><time>2026-05-02T16:54:08.999Z</time></trkpt><trkpt lat="44.68108743210842" lon="7.590133338294944"><ele>300.75</ele><time>2026-05-02T16:54:09.999Z</time></trkpt><trkpt lat="44.681160590743254" lon="7.590081360311552"><ele>300.5</ele><time>2026-05-02T16:54:10.999Z</time></trkpt><trkpt lat="44.68126914759529" lon="7.59008741113061"><ele>300.25</ele><time>2026-05-02T16:54:11.999Z</time></trkpt><trkpt lat="44.68139811893066" lon="7.590119970250869"><ele>300.0</ele><time>2026-05-02T16:54:12.999Z</time></trkpt><trkpt lat="44.68152594762252" lon="7.590170061423675"><ele>300.0</ele><time>2026-05-02T16:54:13.999Z</time></trkpt><trkpt lat="44.681656072245794" lon="7.590194899732468"><ele>300.0</ele><time>2026-05-02T16:54:14.999Z</time></trkpt><trkpt lat="44.68177051847616" lon="7.590239984643759"><ele>300.0</ele><time>2026-05-02T16:54:15.999Z</time></trkpt><trkpt lat="44.68187760470494" lon="7.590298825415099"><ele>300.0</ele><time>2026-05-02T16:54:16.999Z</time></trkpt><trkpt lat="44.68198900203775" lon="7.59037584775977"><ele>299.3333333333333</ele><time>2026-05-02T16:54:17.999Z</time></trkpt><trkpt lat="44.682109297398576" lon="7.590504407195979"><ele>298.66666666666663</ele><time>2026-05-02T16:54:18.999Z</time></trkpt><trkpt lat="44.68224139793354" lon="7.590611574056313"><ele>298.0</ele><time>2026-05-02T16:54:19.999Z</time></trkpt><trkpt lat="44.68238349821919" lon="7.590701106405338"><ele>298.0</ele><time>2026-05-02T16:54:20.999Z</time></trkpt><trkpt lat="44.68252441512993" lon="7.590787197488459"><ele>298.0</ele><time>2026-05-02T16:54:21.999Z</time></trkpt><trkpt lat="44.68265656913857" lon="7.5908481196815005"><ele>298.0</ele><time>2026-05-02T16:54:22.999Z</time></trkpt><trkpt lat="44.682767680055086" lon="7.590910448771147"><ele>298.0</ele><time>2026-05-02T16:54:23.999Z</time></trkpt><trkpt lat="44.68284268425252" lon="7.590962202317957"><ele>298.0</ele><time>2026-05-02T16:54:24.999Z</time></trkpt><trkpt lat="44.68291138481251" lon="7.591021653314604"><ele>298.0</ele><time>2026-05-02T16:54:25.999Z</time></trkpt><trkpt lat="44.68296513475262" lon="7.591101777222238"><ele>298.0</ele><time>2026-05-02T16:54:26.999Z</time></trkpt><trkpt lat="44.683018106826" lon="7.591228845934623"><ele>298.0</ele><time>2026-05-02T16:54:27.999Z</time></trkpt><trkpt lat="44.683067387171846" lon="7.591385067520719"><ele>298.0</ele><time>2026-05-02T16:54:28.999Z</time></trkpt><trkpt lat="44.68312112626133" lon="7.591541842614878"><ele>298.0</ele><time>2026-05-02T16:54:29.999Z</time></trkpt><trkpt lat="44.683170378539835" lon="7.591715682457626"><ele>298.0</ele><time>2026-05-02T16:54:30.999Z</time></trkpt><trkpt lat="44.68320577312294" lon="7.591875917992113"><ele>298.0</ele><time>2026-05-02T16:54:31.999Z</time></trkpt><trkpt lat="44.68321983678703" lon="7.59199427699032"><ele>298.0</ele><time>2026-05-02T16:54:32.999Z</time></trkpt><trkpt lat="44.68318357294483" lon="7.592157799096478"><ele>297.75</ele><time>2026-05-02T16:54:34.999Z</time></trkpt><trkpt lat="44.68311719450529" lon="7.59222087416146"><ele>297.5</ele><time>2026-05-02T16:54:35.999Z</time></trkpt><trkpt lat="44.683007505118866" lon="7.592266417680538"><ele>297.25</ele><time>2026-05-02T16:54:36.999Z</time></trkpt><trkpt lat="44.68287430930806" lon="7.5923194869283925"><ele>297.0</ele><time>2026-05-02T16:54:37.999Z</time></trkpt><trkpt lat="44.68274068127442" lon="7.592374739453918"><ele>297.0</ele><time>2026-05-02T16:54:38.999Z</time></trkpt><trkpt lat="44.68259511945585" lon="7.592438988972606"><ele>297.0</ele><time>2026-05-02T16:54:39.999Z</time></trkpt><trkpt lat="44.68244880928133" lon="7.592493838064057"><ele>297.0</ele><time>2026-05-02T16:54:40.999Z</time></trkpt><trkpt lat="44.68229595974769" lon="7.592493027012597"><ele>297.0</ele><time>2026-05-02T16:54:41.999Z</time></trkpt><trkpt lat="44.682127012181574" lon="7.592468529346615"><ele>297.0</ele><time>2026-05-02T16:54:42.999Z</time></trkpt><trkpt lat="44.681967585071284" lon="7.592472925633566"><ele>297.0</ele><time>2026-05-02T16:54:43.999Z</time></trkpt><trkpt lat="44.68180326045614" lon="7.592504121156548"><ele>297.6666666666667</ele><time>2026-05-02T16:54:44.999Z</time></trkpt><trkpt lat="44.681656077352294" lon="7.592511515634669"><ele>298.33333333333337</ele><time>2026-05-02T16:54:45.999Z</time></trkpt><trkpt lat="44.68150925677934" lon="7.592462713957424"><ele>299.0</ele><time>2026-05-02T16:54:46.999Z</time></trkpt><trkpt lat="44.681346202266106" lon="7.592404994230957"><ele>299.0</ele><time>2026-05-02T16:54:47.999Z</time></trkpt><trkpt lat="44.681183112275015" lon="7.592350385556113"><ele>299.0</ele><time>2026-05-02T16:54:48.999Z</time></trkpt><trkpt lat="44.68103277525142" lon="7.592297302610289"><ele>299.0</ele><time>2026-05-02T16:54:49.999Z</time></trkpt><trkpt lat="44.680902482948355" lon="7.592229395948644"><ele>298.75</ele><time>2026-05-02T16:54:50.999Z</time></trkpt><trkpt lat="44.68076661952003" lon="7.592178166389401"><ele>298.5</ele><time>2026-05-02T16:54:51.999Z</time></trkpt><trkpt lat="44.68061946843705" lon="7.592137344372161"><ele>298.25</ele><time>2026-05-02T16:54:52.999Z</time></trkpt><trkpt lat="44.68047536091577" lon="7.592114643150576"><ele>298.0</ele><time>2026-05-02T16:54:53.999Z</time></trkpt><trkpt lat="44.68031369924132" lon="7.592127330470728"><ele>298.3333333333333</ele><time>2026-05-02T16:54:54.999Z</time></trkpt><trkpt lat="44.68014136890714" lon="7.592140516115844"><ele>298.6666666666667</ele><time>2026-05-02T16:54:55.999Z</time></trkpt><trkpt lat="44.67998882697643" lon="7.592144987323752"><ele>299.0</ele><time>2026-05-02T16:54:56.999Z</time></trkpt><trkpt lat="44.679848783323266" lon="7.592185822958953"><ele>299.0</ele><time>2026-05-02T16:54:57.999Z</time></trkpt><trkpt lat="44.67974452436105" lon="7.592217107225645"><ele>299.0</ele><time>2026-05-02T16:54:58.999Z</time></trkpt><trkpt lat="44.67965617564074" lon="7.592234228949318"><ele>299.0</ele><time>2026-05-02T16:55:00Z</time></trkpt><trkpt lat="44.67957483198623" lon="7.592296609222764"><ele>299.0</ele><time>2026-05-02T16:55:01Z</time></trkpt><trkpt lat="44.679500431497615" lon="7.592416040518614"><ele>299.0</ele><time>2026-05-02T16:55:02Z</time></trkpt><trkpt lat="44.67942555556186" lon="7.592476765882455"><ele>299.75</ele><time>2026-05-02T16:55:03Z</time></trkpt><trkpt lat="44.679328017860406" lon="7.592486049761326"><ele>300.5</ele><time>2026-05-02T16:55:04Z</time></trkpt><trkpt lat="44.67921347111162" lon="7.592487076263461"><ele>301.25</ele><time>2026-05-02T16:55:05Z</time></trkpt><trkpt lat="44.67909118789975" lon="7.592529177484402"><ele>302.0</ele><time>2026-05-02T16:55:06Z</time></trkpt><trkpt lat="44.67894281998287" lon="7.592582820708188"><ele>302.0</ele><time>2026-05-02T16:55:07Z</time></trkpt><trkpt lat="44.678795381403916" lon="7.592627193722314"><ele>302.0</ele><time>2026-05-02T16:55:08Z</time></trkpt><trkpt lat="44.67865182509864" lon="7.592658010010132"><ele>302.0</ele><time>2026-05-02T16:55:09Z</time></trkpt><trkpt lat="44.67851998563782" lon="7.592701867246986"><ele>302.0</ele><time>2026-05-02T16:55:10Z</time></trkpt><trkpt lat="44.678385258918375" lon="7.592759880950742"><ele>302.25</ele><time>2026-05-02T16:55:11Z</time></trkpt><trkpt lat="44.67824934456996" lon="7.592805293690712"><ele>302.5</ele><time>2026-05-02T16:55:12Z</time></trkpt><trkpt lat="44.67811456507698" lon="7.592852152751768"><ele>302.75</ele><time>2026-05-02T16:55:13Z</time></trkpt><trkpt lat="44.6779945991229" lon="7.592890807967609"><ele>303.0</ele><time>2026-05-02T16:55:14Z</time></trkpt><trkpt lat="44.677885343329685" lon="7.59293602819094"><ele>303.3333333333333</ele><time>2026-05-02T16:55:15Z</time></trkpt><trkpt lat="44.67782015860267" lon="7.593002949839002"><ele>303.6666666666667</ele><time>2026-05-02T16:55:16Z</time></trkpt><trkpt lat="44.67779189642398" lon="7.593082391896495"><ele>304.0</ele><time>2026-05-02T16:55:17Z</time></trkpt><trkpt lat="44.67772376339079" lon="7.593084096277268"><ele>304.33333333333337</ele><time>2026-05-02T16:55:19Z</time></trkpt><trkpt lat="44.677682348215235" lon="7.592978211758383"><ele>304.6666666666667</ele><time>2026-05-02T16:55:20Z</time></trkpt><trkpt lat="44.6776557537649" lon="7.592826795466908"><ele>305.0</ele><time>2026-05-02T16:55:21Z</time></trkpt><trkpt lat="44.677634356875146" lon="7.592666844738461"><ele>305.0</ele><time>2026-05-02T16:55:22Z</time></trkpt><trkpt lat="44.67760311808515" lon="7.592488521946855"><ele>305.0</ele><time>2026-05-02T16:55:23Z</time></trkpt><trkpt lat="44.67757643849513" lon="7.592301578375889"><ele>305.0</ele><time>2026-05-02T16:55:24Z</time></trkpt><trkpt lat="44.67755236160533" lon="7.592153570087478"><ele>305.0</ele><time>2026-05-02T16:55:25Z</time></trkpt><trkpt lat="44.67753744705545" lon="7.592046064176594"><ele>305.2</ele><time>2026-05-02T16:55:26Z</time></trkpt><trkpt lat="44.67756455063922" lon="7.591910905161899"><ele>305.4</ele><time>2026-05-02T16:55:28Z</time></trkpt><trkpt lat="44.67763208079726" lon="7.591872025324288"><ele>305.6</ele><time>2026-05-02T16:55:29Z</time></trkpt><trkpt lat="44.67772370133893" lon="7.591846872256212"><ele>305.8</ele><time>2026-05-02T16:55:30Z</time></trkpt><trkpt lat="44.677829847973086" lon="7.5918174772402836"><ele>306.0</ele><time>2026-05-02T16:55:31Z</time></trkpt><trkpt lat="44.677903728981235" lon="7.59178500605831"><ele>305.6</ele><time>2026-05-02T16:55:32Z</time></trkpt><trkpt lat="44.677949116560015" lon="7.59171218440124"><ele>305.20000000000005</ele><time>2026-05-02T16:55:33Z</time></trkpt><trkpt lat="44.6779563051982" lon="7.591590505504444"><ele>304.79999999999995</ele><time>2026-05-02T16:55:34Z</time></trkpt><trkpt lat="44.67793535327245" lon="7.591459543330913"><ele>304.4</ele><time>2026-05-02T16:55:35Z</time></trkpt><trkpt lat="44.677917779900355" lon="7.591308751368468"><ele>304.0</ele><time>2026-05-02T16:55:36Z</time></trkpt><trkpt lat="44.677919617702116" lon="7.591167273860274"><ele>303.2</ele><time>2026-05-02T16:55:37Z</time></trkpt><trkpt lat="44.677959850670604" lon="7.591032685435932"><ele>302.4</ele><time>2026-05-02T16:55:38Z</time></trkpt><trkpt lat="44.67803216021172" lon="7.590883076693325"><ele>301.6</ele><time>2026-05-02T16:55:39Z</time></trkpt><trkpt lat="44.67808664536342" lon="7.590775857473837"><ele>300.8</ele><time>2026-05-02T16:55:40Z</time></trkpt><trkpt lat="44.67811413710729" lon="7.590677736534193"><ele>300.0</ele><time>2026-05-02T16:55:40.999Z</time></trkpt><trkpt lat="44.67812115316046" lon="7.5905746501973335"><ele>300.0</ele><time>2026-05-02T16:55:41.999Z</time></trkpt><trkpt lat="44.67809684410464" lon="7.590446808262798"><ele>300.0</ele><time>2026-05-02T16:55:42.999Z</time></trkpt><trkpt lat="44.67810104994366" lon="7.590338754948016"><ele>300.0</ele><time>2026-05-02T16:55:43.999Z</time></trkpt><trkpt lat="44.67814983345059" lon="7.590252519668712"><ele>300.0</ele><time>2026-05-02T16:55:44.999Z</time></trkpt><trkpt lat="44.6782261753882" lon="7.590175139259321"><ele>300.0</ele><time>2026-05-02T16:55:45.999Z</time></trkpt><trkpt lat="44.678331714672964" lon="7.590130389581667"><ele>299.75</ele><time>2026-05-02T16:55:46.999Z</time></trkpt><trkpt lat="44.678460806943576" lon="7.590166472244002"><ele>299.5</ele><time>2026-05-02T16:55:47.999Z</time></trkpt><trkpt lat="44.67858928762539" lon="7.59018695415913"><ele>299.25</ele><time>2026-05-02T16:55:48.999Z</time></trkpt><trkpt lat="44.67872915573023" lon="7.590170907206242"><ele>299.0</ele><time>2026-05-02T16:55:49.999Z</time></trkpt><trkpt lat="44.678849487954764" lon="7.590196483593275"><ele>299.0</ele><time>2026-05-02T16:55:50.999Z</time></trkpt><trkpt lat="44.678967878016635" lon="7.590256027270544"><ele>299.0</ele><time>2026-05-02T16:55:51.999Z</time></trkpt><trkpt lat="44.67909027487713" lon="7.590309444813554"><ele>299.0</ele><time>2026-05-02T16:55:52.999Z</time></trkpt><trkpt lat="44.679204236548" lon="7.590319326499403"><ele>299.0</ele><time>2026-05-02T16:55:53.999Z</time></trkpt><trkpt lat="44.67932815726205" lon="7.590299517256252"><ele>298.8</ele><time>2026-05-02T16:55:54.999Z</time></trkpt><trkpt lat="44.679449450619" lon="7.590288262718722"><ele>298.59999999999997</ele><time>2026-05-02T16:55:55.999Z</time></trkpt><trkpt lat="44.67956613137689" lon="7.590321691064363"><ele>298.4</ele><time>2026-05-02T16:55:56.999Z</time></trkpt><trkpt lat="44.679673374533095" lon="7.590363449610744"><ele>298.2</ele><time>2026-05-02T16:55:57.999Z</time></trkpt><trkpt lat="44.679766936164576" lon="7.590391404646935"><ele>298.0</ele><time>2026-05-02T16:55:58.999Z</time></trkpt><trkpt lat="44.679881850327604" lon="7.590469462207523"><ele>298.75</ele><time>2026-05-02T16:55:59.999Z</time></trkpt><trkpt lat="44.68000111120248" lon="7.590532885859562"><ele>299.5</ele><time>2026-05-02T16:56:00.999Z</time></trkpt><trkpt lat="44.680096557394585" lon="7.590604751373319"><ele>300.25</ele><time>2026-05-02T16:56:01.999Z</time></trkpt><trkpt lat="44.680186364566104" lon="7.590679434261441"><ele>301.0</ele><time>2026-05-02T16:56:02.999Z</time></trkpt><trkpt lat="44.68030465016546" lon="7.59072834711897"><ele>301.0</ele><time>2026-05-02T16:56:03.999Z</time></trkpt><trkpt lat="44.68041954503955" lon="7.590753852672135"><ele>301.0</ele><time>2026-05-02T16:56:04.999Z</time></trkpt><trkpt lat="44.68051886821967" lon="7.590716224221812"><ele>301.0</ele><time>2026-05-02T16:56:05.999Z</time></trkpt><trkpt lat="44.68063543360972" lon="7.590634027952027"><ele>301.0</ele><time>2026-05-02T16:56:06.999Z</time></trkpt><trkpt lat="44.68075960625462" lon="7.590537745778804"><ele>301.0</ele><time>2026-05-02T16:56:07.999Z</time></trkpt><trkpt lat="44.68088459316815" lon="7.590412614942445"><ele>301.0</ele><time>2026-05-02T16:56:08.999Z</time></trkpt><trkpt lat="44.6809873839897" lon="7.590293953883818"><ele>301.0</ele><time>2026-05-02T16:56:09.999Z</time></trkpt><trkpt lat="44.68106674795078" lon="7.590197675617536"><ele>301.0</ele><time>2026-05-02T16:56:10.999Z</time></trkpt><trkpt lat="44.68112763513383" lon="7.590137409669202"><ele>300.8</ele><time>2026-05-02T16:56:11.999Z</time></trkpt><trkpt lat="44.68118487880702" lon="7.59009857619"><ele>300.6</ele><time>2026-05-02T16:56:12.999Z</time></trkpt><trkpt lat="44.68127748840706" lon="7.590086261513334"><ele>300.4</ele><time>2026-05-02T16:56:13.999Z</time></trkpt><trkpt lat="44.681394172586266" lon="7.590129196155466"><ele>300.2</ele><time>2026-05-02T16:56:14.999Z</time></trkpt><trkpt lat="44.681517295258175" lon="7.59017199171919"><ele>300.0</ele><time>2026-05-02T16:56:15.999Z</time></trkpt><trkpt lat="44.68164704497184" lon="7.59021385159"><ele>300.0</ele><time>2026-05-02T16:56:16.999Z</time></trkpt><trkpt lat="44.681763133955876" lon="7.590240278973852"><ele>300.0</ele><time>2026-05-02T16:56:17.999Z</time></trkpt><trkpt lat="44.68187316742457" lon="7.590294197479853"><ele>300.0</ele><time>2026-05-02T16:56:18.999Z</time></trkpt><trkpt lat="44.68198934749126" lon="7.59038261573932"><ele>300.0</ele><time>2026-05-02T16:56:19.999Z</time></trkpt><trkpt lat="44.68210190158449" lon="7.59051143490473"><ele>299.3333333333333</ele><time>2026-05-02T16:56:20.999Z</time></trkpt><trkpt lat="44.68222937472038" lon="7.590617559042787"><ele>298.66666666666663</ele><time>2026-05-02T16:56:21.999Z</time></trkpt><trkpt lat="44.68238453114694" lon="7.590711064109597"><ele>298.0</ele><time>2026-05-02T16:56:22.999Z</time></trkpt><trkpt lat="44.68252848645289" lon="7.590781015775562"><ele>298.0</ele><time>2026-05-02T16:56:23.999Z</time></trkpt><trkpt lat="44.68266107724351" lon="7.590852184654965"><ele>298.0</ele><time>2026-05-02T16:56:24.999Z</time></trkpt><trkpt lat="44.68277256384721" lon="7.590914300282267"><ele>298.0</ele><time>2026-05-02T16:56:25.999Z</time></trkpt><trkpt lat="44.682860373808055" lon="7.590980939539378"><ele>298.0</ele><time>2026-05-02T16:56:26.999Z</time></trkpt><trkpt lat="44.68296954554177" lon="7.591125722431617"><ele>298.0</ele><time>2026-05-02T16:56:28.999Z</time></trkpt><trkpt lat="44.68303465920049" lon="7.591270148338161"><ele>298.0</ele><time>2026-05-02T16:56:29.999Z</time></trkpt><trkpt lat="44.68308463705684" lon="7.591432370373434"><ele>298.0</ele><time>2026-05-02T16:56:30.999Z</time></trkpt><trkpt lat="44.68313716290083" lon="7.591602328507102"><ele>298.0</ele><time>2026-05-02T16:56:31.999Z</time></trkpt><trkpt lat="44.68318137618519" lon="7.591790607807048"><ele>298.0</ele><time>2026-05-02T16:56:32.999Z</time></trkpt><trkpt lat="44.68321220043989" lon="7.591951842533665"><ele>298.0</ele><time>2026-05-02T16:56:33.999Z</time></trkpt><trkpt lat="44.68323109249804" lon="7.592063731839342"><ele>298.0</ele><time>2026-05-02T16:56:34.999Z</time></trkpt><trkpt lat="44.68315926214753" lon="7.592211115957546"><ele>298.0</ele><time>2026-05-02T16:56:36.999Z</time></trkpt><trkpt lat="44.68306906730168" lon="7.592263471934943"><ele>298.0</ele><time>2026-05-02T16:56:37.999Z</time></trkpt><trkpt lat="44.682951102461935" lon="7.592310045731894"><ele>297.75</ele><time>2026-05-02T16:56:38.999Z</time></trkpt><trkpt lat="44.68281713483406" lon="7.592358649913274"><ele>297.5</ele><time>2026-05-02T16:56:39.999Z</time></trkpt><trkpt lat="44.68268935849906" lon="7.592414657768151"><ele>297.25</ele><time>2026-05-02T16:56:40.999Z</time></trkpt><trkpt lat="44.682564842849004" lon="7.592470827876886"><ele>297.0</ele><time>2026-05-02T16:56:41.999Z</time></trkpt><trkpt lat="44.68243516050013" lon="7.59250321642886"><ele>297.0</ele><time>2026-05-02T16:56:42.999Z</time></trkpt><trkpt lat="44.68229341049569" lon="7.592500016369601"><ele>297.0</ele><time>2026-05-02T16:56:43.999Z</time></trkpt><trkpt lat="44.6821321147663" lon="7.592487128265396"><ele>297.0</ele><time>2026-05-02T16:56:44.999Z</time></trkpt><trkpt lat="44.68196944398799" lon="7.592504567056411"><ele>297.5</ele><time>2026-05-02T16:56:45.999Z</time></trkpt><trkpt lat="44.68181746985625" lon="7.592525745498038"><ele>298.0</ele><time>2026-05-02T16:56:46.999Z</time></trkpt><trkpt lat="44.68168994176838" lon="7.592508871579972"><ele>298.5</ele><time>2026-05-02T16:56:47.999Z</time></trkpt><trkpt lat="44.68153647794169" lon="7.592453896812523"><ele>299.0</ele><time>2026-05-02T16:56:48.999Z</time></trkpt><trkpt lat="44.681383866837756" lon="7.592393801888171"><ele>299.0</ele><time>2026-05-02T16:56:49.999Z</time></trkpt><trkpt lat="44.681232718101924" lon="7.592335180048096"><ele>299.0</ele><time>2026-05-02T16:56:50.999Z</time></trkpt><trkpt lat="44.681077161507716" lon="7.59228184897951"><ele>299.0</ele><time>2026-05-02T16:56:51.999Z</time></trkpt><trkpt lat="44.68093458298081" lon="7.592210961084503"><ele>298.6666666666667</ele><time>2026-05-02T16:56:52.999Z</time></trkpt><trkpt lat="44.68079297179764" lon="7.592145810054682"><ele>298.3333333333333</ele><time>2026-05-02T16:56:53.999Z</time></trkpt><trkpt lat="44.680645355115416" lon="7.592098416618432"><ele>298.0</ele><time>2026-05-02T16:56:54.999Z</time></trkpt><trkpt lat="44.68048221891916" lon="7.592074147946039"><ele>298.0</ele><time>2026-05-02T16:56:55.999Z</time></trkpt><trkpt lat="44.680321109495345" lon="7.592071431667311"><ele>298.0</ele><time>2026-05-02T16:56:56.999Z</time></trkpt><trkpt lat="44.68014983310601" lon="7.592095012648982"><ele>298.0</ele><time>2026-05-02T16:56:57.999Z</time></trkpt><trkpt lat="44.680000082950485" lon="7.5921353340153575"><ele>298.25</ele><time>2026-05-02T16:56:58.999Z</time></trkpt><trkpt lat="44.67985749754222" lon="7.592175464139544"><ele>298.5</ele><time>2026-05-02T16:56:59.999Z</time></trkpt><trkpt lat="44.679748925834055" lon="7.592199970126281"><ele>298.75</ele><time>2026-05-02T16:57:00.999Z</time></trkpt><trkpt lat="44.67968265019285" lon="7.592232330290751"><ele>299.0</ele><time>2026-05-02T16:57:01.999Z</time></trkpt><trkpt lat="44.6795692631829" lon="7.592376261056261"><ele>299.0</ele><time>2026-05-02T16:57:03.999Z</time></trkpt><trkpt lat="44.67948600997834" lon="7.5924551884527"><ele>299.0</ele><time>2026-05-02T16:57:04.999Z</time></trkpt><trkpt lat="44.67938147150175" lon="7.592488453920519"><ele>299.0</ele><time>2026-05-02T16:57:06Z</time></trkpt><trkpt lat="44.6792526065557" lon="7.592487230947843"><ele>299.0</ele><time>2026-05-02T16:57:07Z</time></trkpt><trkpt lat="44.67911879556606" lon="7.592501876195972"><ele>300.0</ele><time>2026-05-02T16:57:08Z</time></trkpt><trkpt lat="44.67897377601192" lon="7.592547166307904"><ele>301.0</ele><time>2026-05-02T16:57:09Z</time></trkpt><trkpt lat="44.67882164718579" lon="7.592614611343687"><ele>302.0</ele><time>2026-05-02T16:57:10Z</time></trkpt><trkpt lat="44.678654029137995" lon="7.592654313421407"><ele>302.25</ele><time>2026-05-02T16:57:11Z</time></trkpt><trkpt lat="44.67850302262156" lon="7.592690759452785"><ele>302.5</ele><time>2026-05-02T16:57:12Z</time></trkpt><trkpt lat="44.67835994007477" lon="7.59273835087557"><ele>302.75</ele><time>2026-05-02T16:57:13Z</time></trkpt><trkpt lat="44.67821867646263" lon="7.592799125074856"><ele>303.0</ele><time>2026-05-02T16:57:14Z</time></trkpt><trkpt lat="44.67808925268226" lon="7.592856381648504"><ele>302.4</ele><time>2026-05-02T16:57:15Z</time></trkpt><trkpt lat="44.677958588628925" lon="7.5928936202542685"><ele>301.8</ele><time>2026-05-02T16:57:16Z</time></trkpt><trkpt lat="44.677861446763416" lon="7.592938478769833"><ele>301.2</ele><time>2026-05-02T16:57:17Z</time></trkpt><trkpt lat="44.677804591798576" lon="7.593027372556997"><ele>300.6</ele><time>2026-05-02T16:57:18Z</time></trkpt><trkpt lat="44.67775061724747" lon="7.593122649714578"><ele>300.0</ele><time>2026-05-02T16:57:20Z</time></trkpt><trkpt lat="44.6776933215095" lon="7.5929681570393734"><ele>301.25</ele><time>2026-05-02T16:57:22Z</time></trkpt><trkpt lat="44.67766518578348" lon="7.592833380128408"><ele>302.5</ele><time>2026-05-02T16:57:23Z</time></trkpt><trkpt lat="44.67763414146631" lon="7.592684622787583"><ele>303.75</ele><time>2026-05-02T16:57:24Z</time></trkpt><trkpt lat="44.67760470166572" lon="7.592500618968855"><ele>305.0</ele><time>2026-05-02T16:57:25Z</time></trkpt><trkpt lat="44.67757571812671" lon="7.5923298641018455"><ele>305.0</ele><time>2026-05-02T16:57:26Z</time></trkpt><trkpt lat="44.677553816136786" lon="7.592176135191683"><ele>305.0</ele><time>2026-05-02T16:57:27Z</time></trkpt><trkpt lat="44.6775379103761" lon="7.592062523622228"><ele>305.0</ele><time>2026-05-02T16:57:28Z</time></trkpt><trkpt lat="44.677543159302424" lon="7.591937175708791"><ele>305.0</ele><time>2026-05-02T16:57:30Z</time></trkpt><trkpt lat="44.67766855148121" lon="7.59188728516753"><ele>305.0</ele><time>2026-05-02T16:57:32Z</time></trkpt><trkpt lat="44.67774621419417" lon="7.591852146025127"><ele>304.8</ele><time>2026-05-02T16:57:33Z</time></trkpt><trkpt lat="44.67783519081738" lon="7.591843298016637"><ele>304.6</ele><time>2026-05-02T16:57:34Z</time></trkpt><trkpt lat="44.67791397953034" lon="7.591799492837991"><ele>304.4</ele><time>2026-05-02T16:57:35Z</time></trkpt><trkpt lat="44.67794653632996" lon="7.591582584175064"><ele>304.2</ele><time>2026-05-02T16:57:37Z</time></trkpt><trkpt lat="44.67792434248442" lon="7.591442058517144"><ele>304.0</ele><time>2026-05-02T16:57:38Z</time></trkpt><trkpt lat="44.67790105567073" lon="7.591287012507702"><ele>303.0</ele><time>2026-05-02T16:57:39Z</time></trkpt><trkpt lat="44.677918061361" lon="7.591144335765944"><ele>302.0</ele><time>2026-05-02T16:57:39.999Z</time></trkpt><trkpt lat="44.67797345159723" lon="7.591009551285117"><ele>301.0</ele><time>2026-05-02T16:57:40.999Z</time></trkpt><trkpt lat="44.67804241463406" lon="7.590866166603046"><ele>300.0</ele><time>2026-05-02T16:57:41.999Z</time></trkpt><trkpt lat="44.678108726706185" lon="7.5907368550766705"><ele>300.0</ele><time>2026-05-02T16:57:42.999Z</time></trkpt><trkpt lat="44.6781386185929" lon="7.590640281872992"><ele>300.0</ele><time>2026-05-02T16:57:43.999Z</time></trkpt><trkpt lat="44.678115748834365" lon="7.590516585424493"><ele>300.0</ele><time>2026-05-02T16:57:44.999Z</time></trkpt><trkpt lat="44.678094404746346" lon="7.590392186556942"><ele>300.0</ele><time>2026-05-02T16:57:45.999Z</time></trkpt><trkpt lat="44.67811338723928" lon="7.5903024880462135"><ele>300.0</ele><time>2026-05-02T16:57:46.999Z</time></trkpt><trkpt lat="44.67817038392568" lon="7.590205011813181"><ele>300.0</ele><time>2026-05-02T16:57:47.999Z</time></trkpt><trkpt lat="44.67825784461384" lon="7.590129010236714"><ele>299.75</ele><time>2026-05-02T16:57:48.999Z</time></trkpt><trkpt lat="44.67836421579146" lon="7.590114350657791"><ele>299.5</ele><time>2026-05-02T16:57:49.999Z</time></trkpt><trkpt lat="44.67849883325663" lon="7.590171240951362"><ele>299.25</ele><time>2026-05-02T16:57:50.999Z</time></trkpt><trkpt lat="44.67864249424944" lon="7.590179929134543"><ele>299.0</ele><time>2026-05-02T16:57:51.999Z</time></trkpt><trkpt lat="44.678772130884795" lon="7.590168192470145"><ele>299.0</ele><time>2026-05-02T16:57:52.999Z</time></trkpt><trkpt lat="44.67889317196926" lon="7.590195483321178"><ele>299.0</ele><time>2026-05-02T16:57:53.999Z</time></trkpt><trkpt lat="44.679024970166495" lon="7.5902733666280024"><ele>299.0</ele><time>2026-05-02T16:57:54.999Z</time></trkpt><trkpt lat="44.67914150649417" lon="7.590319655038642"><ele>299.0</ele><time>2026-05-02T16:57:55.999Z</time></trkpt><trkpt lat="44.6792675990149" lon="7.590328468593713"><ele>299.0</ele><time>2026-05-02T16:57:56.999Z</time></trkpt><trkpt lat="44.67939338222569" lon="7.590293626303466"><ele>299.0</ele><time>2026-05-02T16:57:57.999Z</time></trkpt><trkpt lat="44.679529764384775" lon="7.590302279256337"><ele>299.0</ele><time>2026-05-02T16:57:58.999Z</time></trkpt><trkpt lat="44.67965803267429" lon="7.590337372866217"><ele>299.0</ele><time>2026-05-02T16:57:59.999Z</time></trkpt><trkpt lat="44.679763031961855" lon="7.590380491577028"><ele>300.0</ele><time>2026-05-02T16:58:00.999Z</time></trkpt><trkpt lat="44.67985986396467" lon="7.590477361461422"><ele>301.0</ele><time>2026-05-02T16:58:01.999Z</time></trkpt><trkpt lat="44.67993302415688" lon="7.59062553968389"><ele>302.0</ele><time>2026-05-02T16:58:02.999Z</time></trkpt><trkpt lat="44.68002945336597" lon="7.590699399814012"><ele>303.0</ele><time>2026-05-02T16:58:03.999Z</time></trkpt><trkpt lat="44.6801320135536" lon="7.590750160031867"><ele>302.5</ele><time>2026-05-02T16:58:04.999Z</time></trkpt><trkpt lat="44.68027059154264" lon="7.5907730493986"><ele>302.0</ele><time>2026-05-02T16:58:05.999Z</time></trkpt><trkpt lat="44.680383646190045" lon="7.590796176243921"><ele>301.5</ele><time>2026-05-02T16:58:06.999Z</time></trkpt><trkpt lat="44.680506460870006" lon="7.590756953378878"><ele>301.0</ele><time>2026-05-02T16:58:07.999Z</time></trkpt><trkpt lat="44.68063874649251" lon="7.59065599937874"><ele>301.0</ele><time>2026-05-02T16:58:08.999Z</time></trkpt><trkpt lat="44.680774171392535" lon="7.590538906348528"><ele>301.0</ele><time>2026-05-02T16:58:09.999Z</time></trkpt><trkpt lat="44.68090232846615" lon="7.590393861243295"><ele>301.0</ele><time>2026-05-02T16:58:10.999Z</time></trkpt><trkpt lat="44.68100459262436" lon="7.590261232766892"><ele>300.8</ele><time>2026-05-02T16:58:11.999Z</time></trkpt><trkpt lat="44.68108390610206" lon="7.590156323790875"><ele>300.6</ele><time>2026-05-02T16:58:12.999Z</time></trkpt><trkpt lat="44.68115027862537" lon="7.59010731251503"><ele>300.4</ele><time>2026-05-02T16:58:13.999Z</time></trkpt><trkpt lat="44.681224109707365" lon="7.590094192489601"><ele>300.2</ele><time>2026-05-02T16:58:14.999Z</time></trkpt><trkpt lat="44.68132038710754" lon="7.590129324387143"><ele>300.0</ele><time>2026-05-02T16:58:15.999Z</time></trkpt><trkpt lat="44.68142977028351" lon="7.590173821111789"><ele>300.0</ele><time>2026-05-02T16:58:16.999Z</time></trkpt><trkpt lat="44.68155274960996" lon="7.590201565092524"><ele>300.0</ele><time>2026-05-02T16:58:17.999Z</time></trkpt><trkpt lat="44.68168665798807" lon="7.59023761446591"><ele>300.0</ele><time>2026-05-02T16:58:18.999Z</time></trkpt><trkpt lat="44.68179479259147" lon="7.590260407871893"><ele>300.0</ele><time>2026-05-02T16:58:19.999Z</time></trkpt><trkpt lat="44.68188421871581" lon="7.590344212699232"><ele>299.3333333333333</ele><time>2026-05-02T16:58:20.999Z</time></trkpt><trkpt lat="44.681989436767566" lon="7.5904694987557315"><ele>298.66666666666663</ele><time>2026-05-02T16:58:21.999Z</time></trkpt><trkpt lat="44.68212351908839" lon="7.590576832719725"><ele>298.0</ele><time>2026-05-02T16:58:22.999Z</time></trkpt><trkpt lat="44.682269071445255" lon="7.590673852963216"><ele>298.0</ele><time>2026-05-02T16:58:23.999Z</time></trkpt><trkpt lat="44.682412175457735" lon="7.590762868625725"><ele>298.0</ele><time>2026-05-02T16:58:24.999Z</time></trkpt><trkpt lat="44.68254461194617" lon="7.5908469915304995"><ele>298.0</ele><time>2026-05-02T16:58:25.999Z</time></trkpt><trkpt lat="44.68269521151354" lon="7.590910146297284"><ele>298.0</ele><time>2026-05-02T16:58:26.999Z</time></trkpt><trkpt lat="44.68281356877584" lon="7.590976919313407"><ele>298.0</ele><time>2026-05-02T16:58:27.999Z</time></trkpt><trkpt lat="44.682893316220245" lon="7.591033702467934"><ele>298.0</ele><time>2026-05-02T16:58:28.999Z</time></trkpt><trkpt lat="44.682947113591446" lon="7.591106701479318"><ele>298.0</ele><time>2026-05-02T16:58:29.999Z</time></trkpt><trkpt lat="44.682997408331296" lon="7.591231374537693"><ele>298.0</ele><time>2026-05-02T16:58:30.999Z</time></trkpt><trkpt lat="44.683055832825815" lon="7.591404492738067"><ele>298.0</ele><time>2026-05-02T16:58:31.999Z</time></trkpt><trkpt lat="44.68311537693115" lon="7.591569842080229"><ele>298.0</ele><time>2026-05-02T16:58:32.999Z</time></trkpt><trkpt lat="44.68317182493366" lon="7.591752837214394"><ele>298.0</ele><time>2026-05-02T16:58:33.999Z</time></trkpt><trkpt lat="44.68320114370908" lon="7.591929295229173"><ele>298.0</ele><time>2026-05-02T16:58:34.999Z</time></trkpt><trkpt lat="44.68321436114782" lon="7.592042174611524"><ele>297.0</ele><time>2026-05-02T16:58:35.999Z</time></trkpt><trkpt lat="44.68317489733342" lon="7.592195389406336"><ele>296.0</ele><time>2026-05-02T16:58:37.999Z</time></trkpt><trkpt lat="44.68309156385143" lon="7.59225824419086"><ele>295.0</ele><time>2026-05-02T16:58:38.999Z</time></trkpt><trkpt lat="44.68296911895886" lon="7.592300800837782"><ele>294.0</ele><time>2026-05-02T16:58:39.999Z</time></trkpt><trkpt lat="44.68284329716669" lon="7.592343211810753"><ele>294.75</ele><time>2026-05-02T16:58:40.999Z</time></trkpt><trkpt lat="44.68271695326727" lon="7.592399163470382"><ele>295.5</ele><time>2026-05-02T16:58:41.999Z</time></trkpt><trkpt lat="44.68258058558141" lon="7.59246286623295"><ele>296.25</ele><time>2026-05-02T16:58:42.999Z</time></trkpt><trkpt lat="44.68242974823025" lon="7.592509655660613"><ele>297.0</ele><time>2026-05-02T16:58:43.999Z</time></trkpt><trkpt lat="44.68227646381476" lon="7.592509136384245"><ele>297.0</ele><time>2026-05-02T16:58:44.999Z</time></trkpt><trkpt lat="44.6821125202271" lon="7.592499457144754"><ele>297.0</ele><time>2026-05-02T16:58:45.999Z</time></trkpt><trkpt lat="44.68195962522791" lon="7.592506898633022"><ele>297.0</ele><time>2026-05-02T16:58:46.999Z</time></trkpt><trkpt lat="44.68181550577778" lon="7.592541536070722"><ele>297.6666666666667</ele><time>2026-05-02T16:58:47.999Z</time></trkpt><trkpt lat="44.68167043002668" lon="7.592517771725924"><ele>298.33333333333337</ele><time>2026-05-02T16:58:48.999Z</time></trkpt><trkpt lat="44.681518790343986" lon="7.592467970686657"><ele>299.0</ele><time>2026-05-02T16:58:49.999Z</time></trkpt><trkpt lat="44.68136089193693" lon="7.59242212616717"><ele>299.0</ele><time>2026-05-02T16:58:50.999Z</time></trkpt><trkpt lat="44.68119859536346" lon="7.592379484609903"><ele>299.0</ele><time>2026-05-02T16:58:51.999Z</time></trkpt><trkpt lat="44.681045839045375" lon="7.59232113699534"><ele>299.0</ele><time>2026-05-02T16:58:52.999Z</time></trkpt><trkpt lat="44.68091042913147" lon="7.592235305447536"><ele>298.75</ele><time>2026-05-02T16:58:53.999Z</time></trkpt><trkpt lat="44.68076208624655" lon="7.59217727564478"><ele>298.5</ele><time>2026-05-02T16:58:54.999Z</time></trkpt><trkpt lat="44.680624678437496" lon="7.592151090548019"><ele>298.25</ele><time>2026-05-02T16:58:55.999Z</time></trkpt><trkpt lat="44.68047806664705" lon="7.592138996841869"><ele>298.0</ele><time>2026-05-02T16:58:56.999Z</time></trkpt><trkpt lat="44.68030347291479" lon="7.59214648862673"><ele>298.3333333333333</ele><time>2026-05-02T16:58:57.999Z</time></trkpt><trkpt lat="44.68014407544312" lon="7.592144650387031"><ele>298.6666666666667</ele><time>2026-05-02T16:58:58.999Z</time></trkpt><trkpt lat="44.67999472660699" lon="7.592168015898786"><ele>299.0</ele><time>2026-05-02T16:58:59.999Z</time></trkpt><trkpt lat="44.679854670167764" lon="7.592214256661154"><ele>299.0</ele><time>2026-05-02T16:59:00.999Z</time></trkpt><trkpt lat="44.67972725435377" lon="7.59224360446572"><ele>299.0</ele><time>2026-05-02T16:59:01.999Z</time></trkpt><trkpt lat="44.67965281197867" lon="7.592272765053812"><ele>299.0</ele><time>2026-05-02T16:59:02.999Z</time></trkpt><trkpt lat="44.67959220407258" lon="7.592324065194926"><ele>299.0</ele><time>2026-05-02T16:59:03.999Z</time></trkpt><trkpt lat="44.679521033582326" lon="7.592410338339685"><ele>299.0</ele><time>2026-05-02T16:59:04.999Z</time></trkpt><trkpt lat="44.67942075578714" lon="7.592488589059897"><ele>299.75</ele><time>2026-05-02T16:59:05.999Z</time></trkpt><trkpt lat="44.67928963152074" lon="7.592519604931582"><ele>300.5</ele><time>2026-05-02T16:59:06.999Z</time></trkpt><trkpt lat="44.679158230148374" lon="7.59252383148513"><ele>301.25</ele><time>2026-05-02T16:59:07.999Z</time></trkpt><trkpt lat="44.679014397691006" lon="7.592565177261013"><ele>302.0</ele><time>2026-05-02T16:59:08.999Z</time></trkpt><trkpt lat="44.678858497217895" lon="7.5926221132595435"><ele>302.0</ele><time>2026-05-02T16:59:09.999Z</time></trkpt><trkpt lat="44.678704624535285" lon="7.592652717866866"><ele>302.0</ele><time>2026-05-02T16:59:10.999Z</time></trkpt><trkpt lat="44.678543034481756" lon="7.592694233905465"><ele>302.0</ele><time>2026-05-02T16:59:12Z</time></trkpt><trkpt lat="44.678389206691556" lon="7.592747567077883"><ele>302.25</ele><time>2026-05-02T16:59:13Z</time></trkpt><trkpt lat="44.67824345717373" lon="7.592814632552679"><ele>302.5</ele><time>2026-05-02T16:59:14Z</time></trkpt><trkpt lat="44.67810552369517" lon="7.592871868580325"><ele>302.75</ele><time>2026-05-02T16:59:15Z</time></trkpt><trkpt lat="44.67797458613469" lon="7.592913011565751"><ele>303.0</ele><time>2026-05-02T16:59:16Z</time></trkpt><trkpt lat="44.67788132081903" lon="7.592958060248959"><ele>303.4</ele><time>2026-05-02T16:59:17Z</time></trkpt><trkpt lat="44.67783120954244" lon="7.593019682114766"><ele>303.8</ele><time>2026-05-02T16:59:18Z</time></trkpt><trkpt lat="44.67777591246612" lon="7.593124388607278"><ele>304.2</ele><time>2026-05-02T16:59:20Z</time></trkpt><trkpt lat="44.67772805653905" lon="7.59300940880576"><ele>304.6</ele><time>2026-05-02T16:59:22Z</time></trkpt><trkpt lat="44.677697945960205" lon="7.592892021967838"><ele>305.0</ele><time>2026-05-02T16:59:23Z</time></trkpt><trkpt lat="44.67768254710672" lon="7.592735153221564"><ele>305.0</ele><time>2026-05-02T16:59:24Z</time></trkpt><trkpt lat="44.6776533655836" lon="7.592569783020025"><ele>305.0</ele><time>2026-05-02T16:59:25Z</time></trkpt><trkpt lat="44.67761863290963" lon="7.592387559911148"><ele>305.0</ele><time>2026-05-02T16:59:26Z</time></trkpt><trkpt lat="44.67758379334394" lon="7.5922122361012025"><ele>305.0</ele><time>2026-05-02T16:59:27Z</time></trkpt><trkpt lat="44.67756820666283" lon="7.5920886856112375"><ele>305.2</ele><time>2026-05-02T16:59:28Z</time></trkpt><trkpt lat="44.677569495893316" lon="7.591951348223244"><ele>305.4</ele><time>2026-05-02T16:59:30Z</time></trkpt><trkpt lat="44.677678517675325" lon="7.591887585118218"><ele>305.6</ele><time>2026-05-02T16:59:32Z</time></trkpt><trkpt lat="44.67776395062391" lon="7.591868754477669"><ele>305.8</ele><time>2026-05-02T16:59:33Z</time></trkpt><trkpt lat="44.677857791460134" lon="7.591818676766032"><ele>306.0</ele><time>2026-05-02T16:59:34Z</time></trkpt><trkpt lat="44.6779381207494" lon="7.591770633996848"><ele>305.5</ele><time>2026-05-02T16:59:35Z</time></trkpt><trkpt lat="44.677972146546885" lon="7.591580773908237"><ele>305.0</ele><time>2026-05-02T16:59:37Z</time></trkpt><trkpt lat="44.67794285383176" lon="7.591449304853253"><ele>304.5</ele><time>2026-05-02T16:59:38Z</time></trkpt><trkpt lat="44.67790345955684" lon="7.591296128710168"><ele>304.0</ele><time>2026-05-02T16:59:39Z</time></trkpt><trkpt lat="44.6779160686725" lon="7.59115426394691"><ele>303.2</ele><time>2026-05-02T16:59:39.999Z</time></trkpt><trkpt lat="44.67796942890037" lon="7.591017719795609"><ele>302.4</ele><time>2026-05-02T16:59:40.999Z</time></trkpt><trkpt lat="44.67804505201878" lon="7.590875905274919"><ele>301.6</ele><time>2026-05-02T16:59:41.999Z</time></trkpt><trkpt lat="44.6781004978005" lon="7.59074375747756"><ele>300.8</ele><time>2026-05-02T16:59:42.999Z</time></trkpt><trkpt lat="44.67812850738456" lon="7.590634702470441"><ele>300.0</ele><time>2026-05-02T16:59:43.999Z</time></trkpt><trkpt lat="44.6781140251237" lon="7.590511857981651"><ele>300.0</ele><time>2026-05-02T16:59:44.999Z</time></trkpt><trkpt lat="44.67810028122661" lon="7.590366532736326"><ele>300.0</ele><time>2026-05-02T16:59:45.999Z</time></trkpt><trkpt lat="44.67813127997159" lon="7.590258388125474"><ele>300.0</ele><time>2026-05-02T16:59:46.999Z</time></trkpt><trkpt lat="44.67820142384041" lon="7.590177525027554"><ele>300.0</ele><time>2026-05-02T16:59:47.999Z</time></trkpt><trkpt lat="44.67829702849565" lon="7.590138823942468"><ele>300.0</ele><time>2026-05-02T16:59:48.999Z</time></trkpt><trkpt lat="44.67840191570161" lon="7.590159477629807"><ele>299.75</ele><time>2026-05-02T16:59:49.999Z</time></trkpt><trkpt lat="44.67852874729892" lon="7.590194501674469"><ele>299.5</ele><time>2026-05-02T16:59:50.999Z</time></trkpt><trkpt lat="44.678651907054814" lon="7.590194040097123"><ele>299.25</ele><time>2026-05-02T16:59:51.999Z</time></trkpt><trkpt lat="44.67878698117747" lon="7.59016518648768"><ele>299.0</ele><time>2026-05-02T16:59:52.999Z</time></trkpt><trkpt lat="44.67889818564153" lon="7.590207926876168"><ele>299.0</ele><time>2026-05-02T16:59:53.999Z</time></trkpt><trkpt lat="44.67902006215406" lon="7.590297973423524"><ele>299.0</ele><time>2026-05-02T16:59:54.999Z</time></trkpt><trkpt lat="44.679145771853875" lon="7.590343793852196"><ele>299.0</ele><time>2026-05-02T16:59:55.999Z</time></trkpt><trkpt lat="44.6792708576706" lon="7.59031496697951"><ele>299.0</ele><time>2026-05-02T16:59:56.999Z</time></trkpt><trkpt lat="44.67939836703088" lon="7.590290955397195"><ele>298.75</ele><time>2026-05-02T16:59:57.999Z</time></trkpt><trkpt lat="44.67952196797584" lon="7.590292798501606"><ele>298.5</ele><time>2026-05-02T16:59:58.999Z</time></trkpt><trkpt lat="44.67964134539053" lon="7.590322878284947"><ele>298.25</ele><time>2026-05-02T16:59:59.999Z</time></trkpt><trkpt lat="44.679744803760194" lon="7.590367735136913"><ele>298.0</ele><time>2026-05-02T17:00:00.999Z</time></trkpt><trkpt lat="44.67983453993895" lon="7.590446675570996"><ele>299.25</ele><time>2026-05-02T17:00:01.999Z</time></trkpt><trkpt lat="44.679931761460765" lon="7.590556670340994"><ele>300.5</ele><time>2026-05-02T17:00:02.999Z</time></trkpt><trkpt lat="44.68003062147431" lon="7.590655530039176"><ele>301.75</ele><time>2026-05-02T17:00:03.999Z</time></trkpt><trkpt lat="44.68013653717083" lon="7.590725037693442"><ele>303.0</ele><time>2026-05-02T17:00:04.999Z</time></trkpt><trkpt lat="44.68025596069585" lon="7.590766444043499"><ele>302.5</ele><time>2026-05-02T17:00:05.999Z</time></trkpt><trkpt lat="44.68038285652339" lon="7.590782295413402"><ele>302.0</ele><time>2026-05-02T17:00:06.999Z</time></trkpt><trkpt lat="44.68051105594561" lon="7.590762704205764"><ele>301.5</ele><time>2026-05-02T17:00:07.999Z</time></trkpt><trkpt lat="44.68063581551276" lon="7.590674447219516"><ele>301.0</ele><time>2026-05-02T17:00:08.999Z</time></trkpt><trkpt lat="44.68075733027457" lon="7.590571419108745"><ele>301.0</ele><time>2026-05-02T17:00:09.999Z</time></trkpt><trkpt lat="44.68087970682665" lon="7.590432261362679"><ele>301.0</ele><time>2026-05-02T17:00:10.999Z</time></trkpt><trkpt lat="44.680985211390414" lon="7.590297356024637"><ele>301.0</ele><time>2026-05-02T17:00:11.999Z</time></trkpt><trkpt lat="44.681068951214854" lon="7.5901968062983105"><ele>301.0</ele><time>2026-05-02T17:00:12.999Z</time></trkpt><trkpt lat="44.68112962468822" lon="7.590122573673438"><ele>300.8</ele><time>2026-05-02T17:00:13.999Z</time></trkpt><trkpt lat="44.68119450589104" lon="7.590085199072728"><ele>300.6</ele><time>2026-05-02T17:00:14.999Z</time></trkpt><trkpt lat="44.681318140942714" lon="7.5900903815533605"><ele>300.4</ele><time>2026-05-02T17:00:15.999Z</time></trkpt><trkpt lat="44.68142818290421" lon="7.59014280875135"><ele>300.2</ele><time>2026-05-02T17:00:16.999Z</time></trkpt><trkpt lat="44.68155526474916" lon="7.590192515757541"><ele>300.0</ele><time>2026-05-02T17:00:17.999Z</time></trkpt><trkpt lat="44.68168230283938" lon="7.590226109974693"><ele>300.0</ele><time>2026-05-02T17:00:18.999Z</time></trkpt><trkpt lat="44.68179186737546" lon="7.590240268961774"><ele>300.0</ele><time>2026-05-02T17:00:19.999Z</time></trkpt><trkpt lat="44.681904324227624" lon="7.590291461312014"><ele>300.0</ele><time>2026-05-02T17:00:20.999Z</time></trkpt><trkpt lat="44.68201617472518" lon="7.5903831520797045"><ele>300.0</ele><time>2026-05-02T17:00:21.999Z</time></trkpt><trkpt lat="44.68214350989912" lon="7.590481767064326"><ele>299.3333333333333</ele><time>2026-05-02T17:00:22.999Z</time></trkpt><trkpt lat="44.68226879936725" lon="7.590607076377923"><ele>298.66666666666663</ele><time>2026-05-02T17:00:23.999Z</time></trkpt><trkpt lat="44.68240297922653" lon="7.590706621857975"><ele>298.0</ele><time>2026-05-02T17:00:24.999Z</time></trkpt><trkpt lat="44.682543534049664" lon="7.590791690737573"><ele>298.0</ele><time>2026-05-02T17:00:25.999Z</time></trkpt><trkpt lat="44.682684965109516" lon="7.590864178633313"><ele>298.0</ele><time>2026-05-02T17:00:26.999Z</time></trkpt><trkpt lat="44.68279410911373" lon="7.590918463669489"><ele>298.0</ele><time>2026-05-02T17:00:27.999Z</time></trkpt><trkpt lat="44.68287526485683" lon="7.590989646833906"><ele>298.0</ele><time>2026-05-02T17:00:28.999Z</time></trkpt><trkpt lat="44.682940269108684" lon="7.591062790556744"><ele>298.0</ele><time>2026-05-02T17:00:29.999Z</time></trkpt><trkpt lat="44.683000568464664" lon="7.591163980531817"><ele>298.0</ele><time>2026-05-02T17:00:30.999Z</time></trkpt><trkpt lat="44.683054044318936" lon="7.591291014610805"><ele>298.0</ele><time>2026-05-02T17:00:31.999Z</time></trkpt><trkpt lat="44.68309674514623" lon="7.591445209682368"><ele>298.0</ele><time>2026-05-02T17:00:32.999Z</time></trkpt><trkpt lat="44.68314942593203" lon="7.591621881511752"><ele>298.0</ele><time>2026-05-02T17:00:33.999Z</time></trkpt><trkpt lat="44.68319318648666" lon="7.591824100916874"><ele>298.0</ele><time>2026-05-02T17:00:34.999Z</time></trkpt><trkpt lat="44.68322105222447" lon="7.591985524706997"><ele>298.0</ele><time>2026-05-02T17:00:35.999Z</time></trkpt><trkpt lat="44.68323698679802" lon="7.59209959773443"><ele>298.0</ele><time>2026-05-02T17:00:36.999Z</time></trkpt><trkpt lat="44.68315935871383" lon="7.592231799809756"><ele>298.0</ele><time>2026-05-02T17:00:38.999Z</time></trkpt><trkpt lat="44.68307585298699" lon="7.592262864200498"><ele>298.0</ele><time>2026-05-02T17:00:39.999Z</time></trkpt><trkpt lat="44.682978173550005" lon="7.592304560457842"><ele>297.75</ele><time>2026-05-02T17:00:40.999Z</time></trkpt><trkpt lat="44.682854597304726" lon="7.592342321871822"><ele>297.5</ele><time>2026-05-02T17:00:41.999Z</time></trkpt><trkpt lat="44.68273293773035" lon="7.592396155653469"><ele>297.25</ele><time>2026-05-02T17:00:42.999Z</time></trkpt><trkpt lat="44.68260256383886" lon="7.5924511420163245"><ele>297.0</ele><time>2026-05-02T17:00:43.999Z</time></trkpt><trkpt lat="44.682456057992916" lon="7.5925029144591765"><ele>297.0</ele><time>2026-05-02T17:00:44.999Z</time></trkpt><trkpt lat="44.68229802074898" lon="7.592511337923839"><ele>297.0</ele><time>2026-05-02T17:00:45.999Z</time></trkpt><trkpt lat="44.682139578038026" lon="7.592488959852607"><ele>297.0</ele><time>2026-05-02T17:00:46.999Z</time></trkpt><trkpt lat="44.681985994594335" lon="7.592488924529076"><ele>297.6666666666667</ele><time>2026-05-02T17:00:47.999Z</time></trkpt><trkpt lat="44.681833837143756" lon="7.592530869151909"><ele>298.33333333333337</ele><time>2026-05-02T17:00:48.999Z</time></trkpt><trkpt lat="44.68168464413154" lon="7.592518409991123"><ele>299.0</ele><time>2026-05-02T17:00:49.999Z</time></trkpt><trkpt lat="44.68152968745305" lon="7.5924733267697055"><ele>299.0</ele><time>2026-05-02T17:00:50.999Z</time></trkpt><trkpt lat="44.68137812967685" lon="7.592414191371679"><ele>299.0</ele><time>2026-05-02T17:00:51.999Z</time></trkpt><trkpt lat="44.68120760342498" lon="7.592370196475672"><ele>299.0</ele><time>2026-05-02T17:00:52.999Z</time></trkpt><trkpt lat="44.68106471092112" lon="7.592312748028804"><ele>298.75</ele><time>2026-05-02T17:00:53.999Z</time></trkpt><trkpt lat="44.68093886418807" lon="7.5922323351858365"><ele>298.5</ele><time>2026-05-02T17:00:54.999Z</time></trkpt><trkpt lat="44.68081074985023" lon="7.592181479419986"><ele>298.25</ele><time>2026-05-02T17:00:55.999Z</time></trkpt><trkpt lat="44.68067432290995" lon="7.5921545506486146"><ele>298.0</ele><time>2026-05-02T17:00:56.999Z</time></trkpt><trkpt lat="44.68053156984926" lon="7.592120982090835"><ele>298.0</ele><time>2026-05-02T17:00:57.999Z</time></trkpt><trkpt lat="44.68038415182858" lon="7.59211306223492"><ele>298.0</ele><time>2026-05-02T17:00:58.999Z</time></trkpt><trkpt lat="44.68021885605839" lon="7.592117566050979"><ele>298.0</ele><time>2026-05-02T17:00:59.999Z</time></trkpt><trkpt lat="44.68005929528323" lon="7.5921472323242645"><ele>298.25</ele><time>2026-05-02T17:01:00.999Z</time></trkpt><trkpt lat="44.679901676225356" lon="7.592194362081751"><ele>298.5</ele><time>2026-05-02T17:01:01.999Z</time></trkpt><trkpt lat="44.67978588681744" lon="7.592211637561914"><ele>298.75</ele><time>2026-05-02T17:01:02.999Z</time></trkpt><trkpt lat="44.67969175544231" lon="7.59223490864659"><ele>299.0</ele><time>2026-05-02T17:01:03.999Z</time></trkpt><trkpt lat="44.679609917744166" lon="7.592298783873118"><ele>299.0</ele><time>2026-05-02T17:01:04.999Z</time></trkpt><trkpt lat="44.67951704722095" lon="7.592399222021511"><ele>299.0</ele><time>2026-05-02T17:01:05.999Z</time></trkpt><trkpt lat="44.67944690887652" lon="7.5924751546420515"><ele>299.0</ele><time>2026-05-02T17:01:06.999Z</time></trkpt><trkpt lat="44.67935681115843" lon="7.592492390498081"><ele>299.0</ele><time>2026-05-02T17:01:07.999Z</time></trkpt><trkpt lat="44.67923806696791" lon="7.592490250009408"><ele>299.0</ele><time>2026-05-02T17:01:08.999Z</time></trkpt><trkpt lat="44.67910996807512" lon="7.592518016163211"><ele>299.75</ele><time>2026-05-02T17:01:09.999Z</time></trkpt><trkpt lat="44.67898688311365" lon="7.592560693716296"><ele>300.5</ele><time>2026-05-02T17:01:10.999Z</time></trkpt><trkpt lat="44.6788433649904" lon="7.592610028563055"><ele>301.25</ele><time>2026-05-02T17:01:11.999Z</time></trkpt><trkpt lat="44.67868854924272" lon="7.592642064755665"><ele>302.0</ele><time>2026-05-02T17:01:12.999Z</time></trkpt><trkpt lat="44.678525704793614" lon="7.5926800721021435"><ele>302.33333333333337</ele><time>2026-05-02T17:01:13.999Z</time></trkpt><trkpt lat="44.678378950360404" lon="7.592748298440979"><ele>302.6666666666667</ele><time>2026-05-02T17:01:14.999Z</time></trkpt><trkpt lat="44.67823174709604" lon="7.592823216781653"><ele>303.0</ele><time>2026-05-02T17:01:15.999Z</time></trkpt><trkpt lat="44.67808286604286" lon="7.592877999733698"><ele>302.4</ele><time>2026-05-02T17:01:16.999Z</time></trkpt><trkpt lat="44.677958520838615" lon="7.592904531003579"><ele>301.8</ele><time>2026-05-02T17:01:18Z</time></trkpt><trkpt lat="44.677866848772496" lon="7.5929694949381625"><ele>301.2</ele><time>2026-05-02T17:01:19Z</time></trkpt><trkpt lat="44.677811979547336" lon="7.593049404634208"><ele>300.6</ele><time>2026-05-02T17:01:20Z</time></trkpt><trkpt lat="44.67776571830485" lon="7.59314420694651"><ele>300.0</ele><time>2026-05-02T17:01:22Z</time></trkpt><trkpt lat="44.67768556899339" lon="7.592889664282598"><ele>301.25</ele><time>2026-05-02T17:01:29Z</time></trkpt><trkpt lat="44.67766809943363" lon="7.592725918241722"><ele>302.5</ele><time>2026-05-02T17:01:30Z</time></trkpt><trkpt lat="44.6776370667789" lon="7.592558235469063"><ele>303.75</ele><time>2026-05-02T17:01:31Z</time></trkpt><trkpt lat="44.67760254049594" lon="7.592377827966745"><ele>305.0</ele><time>2026-05-02T17:01:32Z</time></trkpt><trkpt lat="44.67757182455197" lon="7.592205069246846"><ele>305.0</ele><time>2026-05-02T17:01:33Z</time></trkpt><trkpt lat="44.67755495701639" lon="7.592064229453281"><ele>305.0</ele><time>2026-05-02T17:01:34Z</time></trkpt><trkpt lat="44.677565354007214" lon="7.591938523020207"><ele>305.0</ele><time>2026-05-02T17:01:36Z</time></trkpt><trkpt lat="44.67768151854223" lon="7.59187766644154"><ele>305.0</ele><time>2026-05-02T17:01:38Z</time></trkpt><trkpt lat="44.67777739839802" lon="7.59186899459239"><ele>305.0</ele><time>2026-05-02T17:01:39Z</time></trkpt><trkpt lat="44.6778768812449" lon="7.591822639509976"><ele>304.75</ele><time>2026-05-02T17:01:40Z</time></trkpt><trkpt lat="44.67794175012464" lon="7.591767060798805"><ele>304.5</ele><time>2026-05-02T17:01:41Z</time></trkpt><trkpt lat="44.67795178300411" lon="7.591551962373847"><ele>304.25</ele><time>2026-05-02T17:01:42.999Z</time></trkpt><trkpt lat="44.67792429001585" lon="7.591397510126273"><ele>304.0</ele><time>2026-05-02T17:01:43.999Z</time></trkpt><trkpt lat="44.67791509002928" lon="7.59124177921739"><ele>303.0</ele><time>2026-05-02T17:01:44.999Z</time></trkpt><trkpt lat="44.67793276406406" lon="7.591086175287244"><ele>302.0</ele><time>2026-05-02T17:01:45.999Z</time></trkpt><trkpt lat="44.67799987940707" lon="7.5909416266034055"><ele>301.0</ele><time>2026-05-02T17:01:46.999Z</time></trkpt><trkpt lat="44.6780761226815" lon="7.5908016777014575"><ele>300.0</ele><time>2026-05-02T17:01:47.999Z</time></trkpt><trkpt lat="44.67812566096672" lon="7.59069253399616"><ele>300.0</ele><time>2026-05-02T17:01:48.999Z</time></trkpt><trkpt lat="44.6781274853105" lon="7.5905906837888075"><ele>300.0</ele><time>2026-05-02T17:01:49.999Z</time></trkpt><trkpt lat="44.67811273044209" lon="7.5904656869739995"><ele>300.0</ele><time>2026-05-02T17:01:50.999Z</time></trkpt><trkpt lat="44.67812332862128" lon="7.590355438757885"><ele>300.0</ele><time>2026-05-02T17:01:51.999Z</time></trkpt><trkpt lat="44.67816596664075" lon="7.590261281556925"><ele>300.0</ele><time>2026-05-02T17:01:52.999Z</time></trkpt><trkpt lat="44.67823375707043" lon="7.59017216747854"><ele>300.0</ele><time>2026-05-02T17:01:53.999Z</time></trkpt><trkpt lat="44.678327705941086" lon="7.590118846536634"><ele>299.75</ele><time>2026-05-02T17:01:54.999Z</time></trkpt><trkpt lat="44.67844591421201" lon="7.590150025688633"><ele>299.5</ele><time>2026-05-02T17:01:55.999Z</time></trkpt><trkpt lat="44.67857418242638" lon="7.590181637279929"><ele>299.25</ele><time>2026-05-02T17:01:56.999Z</time></trkpt><trkpt lat="44.67870369842405" lon="7.590176550739018"><ele>299.0</ele><time>2026-05-02T17:01:57.999Z</time></trkpt><trkpt lat="44.6788181643245" lon="7.590177135608374"><ele>299.0</ele><time>2026-05-02T17:01:58.999Z</time></trkpt><trkpt lat="44.67892502271068" lon="7.59021202771272"><ele>299.0</ele><time>2026-05-02T17:01:59.999Z</time></trkpt><trkpt lat="44.67903287363857" lon="7.590263763395477"><ele>299.0</ele><time>2026-05-02T17:02:00.999Z</time></trkpt><trkpt lat="44.67914694951871" lon="7.590310461337734"><ele>299.0</ele><time>2026-05-02T17:02:01.999Z</time></trkpt><trkpt lat="44.67926453774301" lon="7.590309498498803"><ele>299.0</ele><time>2026-05-02T17:02:02.999Z</time></trkpt><trkpt lat="44.67937308075803" lon="7.590291702619371"><ele>299.0</ele><time>2026-05-02T17:02:03.999Z</time></trkpt><trkpt lat="44.679506551857784" lon="7.590294408685263"><ele>299.0</ele><time>2026-05-02T17:02:04.999Z</time></trkpt><trkpt lat="44.67962012825551" lon="7.590329058344542"><ele>299.0</ele><time>2026-05-02T17:02:05.999Z</time></trkpt><trkpt lat="44.679728391250805" lon="7.590380862699224"><ele>300.0</ele><time>2026-05-02T17:02:06.999Z</time></trkpt><trkpt lat="44.67982403180003" lon="7.590450252652614"><ele>301.0</ele><time>2026-05-02T17:02:07.999Z</time></trkpt><trkpt lat="44.679921707727566" lon="7.590561071467542"><ele>302.0</ele><time>2026-05-02T17:02:08.999Z</time></trkpt><trkpt lat="44.68001068770495" lon="7.59065217092296"><ele>303.0</ele><time>2026-05-02T17:02:09.999Z</time></trkpt><trkpt lat="44.68011709970909" lon="7.590728885598197"><ele>303.0</ele><time>2026-05-02T17:02:10.999Z</time></trkpt><trkpt lat="44.68023640908282" lon="7.590765256804754"><ele>303.0</ele><time>2026-05-02T17:02:11.999Z</time></trkpt><trkpt lat="44.68035707392893" lon="7.590779537807124"><ele>303.0</ele><time>2026-05-02T17:02:12.999Z</time></trkpt><trkpt lat="44.68046571279292" lon="7.5907605030919045"><ele>303.0</ele><time>2026-05-02T17:02:13.999Z</time></trkpt><trkpt lat="44.680570283344665" lon="7.59069411276609"><ele>302.5</ele><time>2026-05-02T17:02:14.999Z</time></trkpt><trkpt lat="44.680676446881385" lon="7.590606566808354"><ele>302.0</ele><time>2026-05-02T17:02:15.999Z</time></trkpt><trkpt lat="44.68078120980602" lon="7.590510731464996"><ele>301.5</ele><time>2026-05-02T17:02:16.999Z</time></trkpt><trkpt lat="44.68088037454384" lon="7.590392081345617"><ele>301.0</ele><time>2026-05-02T17:02:17.999Z</time></trkpt><trkpt lat="44.68097623744989" lon="7.590269821579523"><ele>300.8</ele><time>2026-05-02T17:02:18.999Z</time></trkpt><trkpt lat="44.68105849968179" lon="7.590178668379967"><ele>300.6</ele><time>2026-05-02T17:02:19.999Z</time></trkpt><trkpt lat="44.68112577148039" lon="7.590113171400466"><ele>300.4</ele><time>2026-05-02T17:02:20.999Z</time></trkpt><trkpt lat="44.681193996479145" lon="7.5900851805748175"><ele>300.2</ele><time>2026-05-02T17:02:21.999Z</time></trkpt><trkpt lat="44.68129197650301" lon="7.590114443636948"><ele>300.0</ele><time>2026-05-02T17:02:22.999Z</time></trkpt><trkpt lat="44.68142085779429" lon="7.590161931352727"><ele>300.0</ele><time>2026-05-02T17:02:23.999Z</time></trkpt><trkpt lat="44.68154523898461" lon="7.590202502002581"><ele>300.0</ele><time>2026-05-02T17:02:24.999Z</time></trkpt><trkpt lat="44.681667425063225" lon="7.590216448825222"><ele>300.0</ele><time>2026-05-02T17:02:25.999Z</time></trkpt><trkpt lat="44.68178221580413" lon="7.590247953070304"><ele>300.0</ele><time>2026-05-02T17:02:26.999Z</time></trkpt><trkpt lat="44.68188810422868" lon="7.5903065190067895"><ele>299.5</ele><time>2026-05-02T17:02:27.999Z</time></trkpt><trkpt lat="44.681991983520476" lon="7.590393969370248"><ele>299.0</ele><time>2026-05-02T17:02:28.999Z</time></trkpt><trkpt lat="44.68209760007025" lon="7.590505088562254"><ele>298.5</ele><time>2026-05-02T17:02:29.999Z</time></trkpt><trkpt lat="44.68221234710394" lon="7.590613485597668"><ele>298.0</ele><time>2026-05-02T17:02:30.999Z</time></trkpt><trkpt lat="44.682354586051495" lon="7.590699938507798"><ele>298.0</ele><time>2026-05-02T17:02:31.999Z</time></trkpt><trkpt lat="44.68249947226881" lon="7.590779902194662"><ele>298.0</ele><time>2026-05-02T17:02:32.999Z</time></trkpt><trkpt lat="44.68264925229868" lon="7.590853505686622"><ele>298.0</ele><time>2026-05-02T17:02:33.999Z</time></trkpt><trkpt lat="44.68277551608817" lon="7.590929549057943"><ele>298.0</ele><time>2026-05-02T17:02:34.999Z</time></trkpt><trkpt lat="44.68287563475705" lon="7.590986148765158"><ele>298.0</ele><time>2026-05-02T17:02:35.999Z</time></trkpt><trkpt lat="44.68294847553404" lon="7.5910501895044495"><ele>298.0</ele><time>2026-05-02T17:02:36.999Z</time></trkpt><trkpt lat="44.68299713773161" lon="7.59113010746208"><ele>298.0</ele><time>2026-05-02T17:02:37.999Z</time></trkpt><trkpt lat="44.683038557843574" lon="7.591255824791889"><ele>298.0</ele><time>2026-05-02T17:02:38.999Z</time></trkpt><trkpt lat="44.68309260747468" lon="7.591415229091595"><ele>298.0</ele><time>2026-05-02T17:02:39.999Z</time></trkpt><trkpt lat="44.683141444459714" lon="7.591581522408752"><ele>298.0</ele><time>2026-05-02T17:02:40.999Z</time></trkpt><trkpt lat="44.683185176872605" lon="7.591766387944536"><ele>298.0</ele><time>2026-05-02T17:02:41.999Z</time></trkpt><trkpt lat="44.683221231270856" lon="7.591924388721676"><ele>298.0</ele><time>2026-05-02T17:02:42.999Z</time></trkpt><trkpt lat="44.68323141881011" lon="7.592033249142474"><ele>297.0</ele><time>2026-05-02T17:02:43.999Z</time></trkpt><trkpt lat="44.68318678117004" lon="7.5921663592545325"><ele>296.0</ele><time>2026-05-02T17:02:45.999Z</time></trkpt><trkpt lat="44.683106936549564" lon="7.592220587209458"><ele>295.0</ele><time>2026-05-02T17:02:46.999Z</time></trkpt><trkpt lat="44.68299169060237" lon="7.592278435534645"><ele>294.0</ele><time>2026-05-02T17:02:47.999Z</time></trkpt><trkpt lat="44.68285916269705" lon="7.592341008364663"><ele>295.0</ele><time>2026-05-02T17:02:48.999Z</time></trkpt><trkpt lat="44.682722577623004" lon="7.592401116165536"><ele>296.0</ele><time>2026-05-02T17:02:49.999Z</time></trkpt><trkpt lat="44.68257788448847" lon="7.592458291200996"><ele>297.0</ele><time>2026-05-02T17:02:50.999Z</time></trkpt><trkpt lat="44.68241442827145" lon="7.592486244561479"><ele>297.0</ele><time>2026-05-02T17:02:51.999Z</time></trkpt><trkpt lat="44.68224835350328" lon="7.592494051616427"><ele>297.0</ele><time>2026-05-02T17:02:52.999Z</time></trkpt><trkpt lat="44.68208572109281" lon="7.5925086858366235"><ele>297.0</ele><time>2026-05-02T17:02:53.999Z</time></trkpt><trkpt lat="44.6819451910758" lon="7.592532944148521"><ele>297.5</ele><time>2026-05-02T17:02:54.999Z</time></trkpt><trkpt lat="44.68180211481185" lon="7.592554855422117"><ele>298.0</ele><time>2026-05-02T17:02:55.999Z</time></trkpt><trkpt lat="44.681657891241706" lon="7.592540875420286"><ele>298.5</ele><time>2026-05-02T17:02:56.999Z</time></trkpt><trkpt lat="44.68152654284192" lon="7.5924750040969915"><ele>299.0</ele><time>2026-05-02T17:02:57.999Z</time></trkpt><trkpt lat="44.68137691767596" lon="7.592401000957286"><ele>299.0</ele><time>2026-05-02T17:02:58.999Z</time></trkpt><trkpt lat="44.68120339697973" lon="7.592354506670236"><ele>299.0</ele><time>2026-05-02T17:02:59.999Z</time></trkpt><trkpt lat="44.68105184015683" lon="7.592296584324494"><ele>299.0</ele><time>2026-05-02T17:03:00.999Z</time></trkpt><trkpt lat="44.6809133350073" lon="7.5922194432789745"><ele>298.6666666666667</ele><time>2026-05-02T17:03:01.999Z</time></trkpt><trkpt lat="44.68077482523722" lon="7.592156236714218"><ele>298.3333333333333</ele><time>2026-05-02T17:03:02.999Z</time></trkpt><trkpt lat="44.68061454741219" lon="7.59212764812189"><ele>298.0</ele><time>2026-05-02T17:03:03.999Z</time></trkpt><trkpt lat="44.68045254543842" lon="7.592112261181644"><ele>298.0</ele><time>2026-05-02T17:03:04.999Z</time></trkpt><trkpt lat="44.68028803533744" lon="7.592109782582972"><ele>298.0</ele><time>2026-05-02T17:03:05.999Z</time></trkpt><trkpt lat="44.680109955849325" lon="7.592134216389119"><ele>298.0</ele><time>2026-05-02T17:03:06.999Z</time></trkpt><trkpt lat="44.679948014200676" lon="7.592162237466924"><ele>298.2</ele><time>2026-05-02T17:03:07.999Z</time></trkpt><trkpt lat="44.67980767426428" lon="7.592216565154317"><ele>298.4</ele><time>2026-05-02T17:03:08.999Z</time></trkpt><trkpt lat="44.67969939372809" lon="7.592247203960718"><ele>298.59999999999997</ele><time>2026-05-02T17:03:09.999Z</time></trkpt><trkpt lat="44.67963604159138" lon="7.592269127838312"><ele>298.8</ele><time>2026-05-02T17:03:10.999Z</time></trkpt><trkpt lat="44.67957661400416" lon="7.5923270814266015"><ele>299.0</ele><time>2026-05-02T17:03:11.999Z</time></trkpt><trkpt lat="44.67949314032293" lon="7.592425432245007"><ele>299.75</ele><time>2026-05-02T17:03:12.999Z</time></trkpt><trkpt lat="44.67939700893846" lon="7.592475595373364"><ele>300.5</ele><time>2026-05-02T17:03:13.999Z</time></trkpt><trkpt lat="44.67926970905417" lon="7.592504714314041"><ele>301.25</ele><time>2026-05-02T17:03:14.999Z</time></trkpt><trkpt lat="44.67913471354046" lon="7.59251861808498"><ele>302.0</ele><time>2026-05-02T17:03:15.999Z</time></trkpt><trkpt lat="44.67899025702208" lon="7.592570672643871"><ele>302.0</ele><time>2026-05-02T17:03:16.999Z</time></trkpt><trkpt lat="44.67884245731753" lon="7.592615180338534"><ele>302.0</ele><time>2026-05-02T17:03:17.999Z</time></trkpt><trkpt lat="44.67868337657335" lon="7.592638169446937"><ele>302.0</ele><time>2026-05-02T17:03:18.999Z</time></trkpt><trkpt lat="44.678525904955045" lon="7.592677443799636"><ele>302.25</ele><time>2026-05-02T17:03:19.999Z</time></trkpt><trkpt lat="44.67839284663001" lon="7.5927147037498575"><ele>302.5</ele><time>2026-05-02T17:03:20.999Z</time></trkpt><trkpt lat="44.678251341288146" lon="7.592776484317089"><ele>302.75</ele><time>2026-05-02T17:03:21.999Z</time></trkpt><trkpt lat="44.678115062668496" lon="7.5928271652755415"><ele>303.0</ele><time>2026-05-02T17:03:22.999Z</time></trkpt><trkpt lat="44.67799375010331" lon="7.592862196094821"><ele>303.4</ele><time>2026-05-02T17:03:24Z</time></trkpt><trkpt lat="44.67789631067783" lon="7.592917410002191"><ele>303.8</ele><time>2026-05-02T17:03:25Z</time></trkpt><trkpt lat="44.67781553552616" lon="7.592987794195216"><ele>304.2</ele><time>2026-05-02T17:03:26Z</time></trkpt><trkpt lat="44.67778003134071" lon="7.593066672152176"><ele>304.6</ele><time>2026-05-02T17:03:27Z</time></trkpt><trkpt lat="44.67770244559651" lon="7.592965029006171"><ele>305.0</ele><time>2026-05-02T17:03:30Z</time></trkpt><trkpt lat="44.67768448708073" lon="7.592828414162576"><ele>305.0</ele><time>2026-05-02T17:03:31Z</time></trkpt><trkpt lat="44.67765435533898" lon="7.5926494471730175"><ele>305.0</ele><time>2026-05-02T17:03:32Z</time></trkpt><trkpt lat="44.67762134741825" lon="7.592492585303584"><ele>305.0</ele><time>2026-05-02T17:03:33Z</time></trkpt><trkpt lat="44.67758525370017" lon="7.59232232119005"><ele>305.0</ele><time>2026-05-02T17:03:34Z</time></trkpt><trkpt lat="44.677547730671506" lon="7.592166998791761"><ele>305.0</ele><time>2026-05-02T17:03:35Z</time></trkpt><trkpt lat="44.677538090206845" lon="7.592058876457354"><ele>305.0</ele><time>2026-05-02T17:03:36Z</time></trkpt><trkpt lat="44.67754803028782" lon="7.591935089621538"><ele>305.0</ele><time>2026-05-02T17:03:38Z</time></trkpt><trkpt lat="44.67766673652484" lon="7.591876198982463"><ele>305.0</ele><time>2026-05-02T17:03:40Z</time></trkpt><trkpt lat="44.67776108977073" lon="7.591843400989857"><ele>305.0</ele><time>2026-05-02T17:03:41Z</time></trkpt><trkpt lat="44.67786675846296" lon="7.591822962736872"><ele>304.8</ele><time>2026-05-02T17:03:42Z</time></trkpt><trkpt lat="44.67793669974517" lon="7.591778181147509"><ele>304.6</ele><time>2026-05-02T17:03:42.999Z</time></trkpt><trkpt lat="44.67797269746725" lon="7.591591343662586"><ele>304.4</ele><time>2026-05-02T17:03:44.999Z</time></trkpt><trkpt lat="44.677953359299494" lon="7.591464635699945"><ele>304.2</ele><time>2026-05-02T17:03:45.999Z</time></trkpt><trkpt lat="44.67793214863356" lon="7.591335276176473"><ele>304.0</ele><time>2026-05-02T17:03:46.999Z</time></trkpt><trkpt lat="44.67795075578182" lon="7.591201747269579"><ele>303.3333333333333</ele><time>2026-05-02T17:03:47.999Z</time></trkpt><trkpt lat="44.6779891077838" lon="7.591057942184485"><ele>302.66666666666663</ele><time>2026-05-02T17:03:48.999Z</time></trkpt><trkpt lat="44.678035727574525" lon="7.590937936515887"><ele>302.0</ele><time>2026-05-02T17:03:49.999Z</time></trkpt><trkpt lat="44.678073831675064" lon="7.590825258898175"><ele>301.3333333333333</ele><time>2026-05-02T17:03:50.999Z</time></trkpt><trkpt lat="44.67810336459999" lon="7.590729938652276"><ele>300.6666666666667</ele><time>2026-05-02T17:03:51.999Z</time></trkpt><trkpt lat="44.67812383778822" lon="7.590628062100322"><ele>300.0</ele><time>2026-05-02T17:03:52.999Z</time></trkpt><trkpt lat="44.67809849223741" lon="7.590472956899373"><ele>299.99999999999994</ele><time>2026-05-02T17:03:53.999Z</time></trkpt><trkpt lat="44.67809589843269" lon="7.590354006144129"><ele>300.0</ele><time>2026-05-02T17:03:54.999Z</time></trkpt><trkpt lat="44.67814094977317" lon="7.590260490552692"><ele>300.0</ele><time>2026-05-02T17:03:55.999Z</time></trkpt><trkpt lat="44.67819626306219" lon="7.590186162437181"><ele>300.0</ele><time>2026-05-02T17:03:56.999Z</time></trkpt><trkpt lat="44.67825022507274" lon="7.590136638335095"><ele>300.0</ele><time>2026-05-02T17:03:57.999Z</time></trkpt><trkpt lat="44.67831060731537" lon="7.590164495846298"><ele>299.99999999999994</ele><time>2026-05-02T17:03:59.999Z</time></trkpt><trkpt lat="44.678373638208534" lon="7.590206075130786"><ele>300.0</ele><time>2026-05-02T17:04:33Z</time></trkpt><trkpt lat="44.67844812752659" lon="7.590194851235447"><ele>299.8</ele><time>2026-05-02T17:04:34Z</time></trkpt><trkpt lat="44.67854187515165" lon="7.590181383055802"><ele>299.6</ele><time>2026-05-02T17:04:35Z</time></trkpt><trkpt lat="44.67865319722475" lon="7.590171845057156"><ele>299.4</ele><time>2026-05-02T17:04:36Z</time></trkpt><trkpt lat="44.67876218296385" lon="7.590174344720629"><ele>299.2</ele><time>2026-05-02T17:04:37Z</time></trkpt><trkpt lat="44.678871984498045" lon="7.590200262112796"><ele>299.0</ele><time>2026-05-02T17:04:38Z</time></trkpt><trkpt lat="44.67898849575792" lon="7.590261084002663"><ele>299.0</ele><time>2026-05-02T17:04:39Z</time></trkpt><trkpt lat="44.679104021924715" lon="7.590314487287998"><ele>299.0</ele><time>2026-05-02T17:04:40Z</time></trkpt><trkpt lat="44.67921728641015" lon="7.590333292229228"><ele>299.0</ele><time>2026-05-02T17:04:41Z</time></trkpt><trkpt lat="44.679332656045744" lon="7.590315712556734"><ele>299.0</ele><time>2026-05-02T17:04:42Z</time></trkpt><trkpt lat="44.67945348610661" lon="7.590298036619704"><ele>298.75</ele><time>2026-05-02T17:04:43Z</time></trkpt><trkpt lat="44.679583729229485" lon="7.5903151739315975"><ele>298.5</ele><time>2026-05-02T17:04:44Z</time></trkpt><trkpt lat="44.67971295049996" lon="7.59036814558756"><ele>298.25</ele><time>2026-05-02T17:04:45Z</time></trkpt><trkpt lat="44.67982892330686" lon="7.590438775307403"><ele>298.0</ele><time>2026-05-02T17:04:46Z</time></trkpt><trkpt lat="44.67993339566658" lon="7.590541656241305"><ele>298.75</ele><time>2026-05-02T17:04:47Z</time></trkpt><trkpt lat="44.680030218393824" lon="7.590625779219503"><ele>299.5</ele><time>2026-05-02T17:04:48Z</time></trkpt><trkpt lat="44.68013183310333" lon="7.5907247060770295"><ele>300.25</ele><time>2026-05-02T17:04:49Z</time></trkpt><trkpt lat="44.68024838546894" lon="7.590775375021887"><ele>301.0</ele><time>2026-05-02T17:04:50Z</time></trkpt><trkpt lat="44.68036642289516" lon="7.590805031475095"><ele>301.0</ele><time>2026-05-02T17:04:51Z</time></trkpt><trkpt lat="44.680479220639555" lon="7.5907825788477075"><ele>301.0</ele><time>2026-05-02T17:04:52Z</time></trkpt><trkpt lat="44.68060060807591" lon="7.590699000969882"><ele>301.0</ele><time>2026-05-02T17:04:53Z</time></trkpt><trkpt lat="44.68072894358814" lon="7.59057787865145"><ele>301.0</ele><time>2026-05-02T17:04:54Z</time></trkpt><trkpt lat="44.680842327700006" lon="7.590439314210581"><ele>300.8</ele><time>2026-05-02T17:04:55Z</time></trkpt><trkpt lat="44.6809558336805" lon="7.5903036867921125"><ele>300.6</ele><time>2026-05-02T17:04:56Z</time></trkpt><trkpt lat="44.68104103321204" lon="7.590189178016902"><ele>300.4</ele><time>2026-05-02T17:04:57Z</time></trkpt><trkpt lat="44.6811121270259" lon="7.590098020379586"><ele>300.2</ele><time>2026-05-02T17:04:58Z</time></trkpt><trkpt lat="44.681187905805494" lon="7.590059300312526"><ele>300.0</ele><time>2026-05-02T17:04:59Z</time></trkpt><trkpt lat="44.68130209251022" lon="7.590083040322433"><ele>300.0</ele><time>2026-05-02T17:05:00Z</time></trkpt><trkpt lat="44.681441697554064" lon="7.590151697122964"><ele>300.0</ele><time>2026-05-02T17:05:01Z</time></trkpt><trkpt lat="44.68158008730343" lon="7.5902167756706795"><ele>300.0</ele><time>2026-05-02T17:05:02Z</time></trkpt><trkpt lat="44.681715375122366" lon="7.5902400982617175"><ele>300.0</ele><time>2026-05-02T17:05:03Z</time></trkpt><trkpt lat="44.68184284175652" lon="7.590270932500799"><ele>299.3333333333333</ele><time>2026-05-02T17:05:04Z</time></trkpt><trkpt lat="44.68198200910412" lon="7.590363682681449"><ele>298.66666666666663</ele><time>2026-05-02T17:05:05Z</time></trkpt><trkpt lat="44.68211514764975" lon="7.590492959880967"><ele>298.0</ele><time>2026-05-02T17:05:06Z</time></trkpt><trkpt lat="44.68224807992025" lon="7.590619864834401"><ele>298.0</ele><time>2026-05-02T17:05:07Z</time></trkpt><trkpt lat="44.68238995657551" lon="7.59072239986685"><ele>298.0</ele><time>2026-05-02T17:05:08Z</time></trkpt><trkpt lat="44.682529346294196" lon="7.590806126258426"><ele>298.0</ele><time>2026-05-02T17:05:09Z</time></trkpt><trkpt lat="44.68266822654215" lon="7.59088015355927"><ele>298.0</ele><time>2026-05-02T17:05:10Z</time></trkpt><trkpt lat="44.68279103290496" lon="7.590947309078052"><ele>298.0</ele><time>2026-05-02T17:05:11Z</time></trkpt><trkpt lat="44.68289627789484" lon="7.591008252695929"><ele>298.0</ele><time>2026-05-02T17:05:12Z</time></trkpt><trkpt lat="44.68297634622065" lon="7.59107762020152"><ele>298.0</ele><time>2026-05-02T17:05:13Z</time></trkpt><trkpt lat="44.68303428176988" lon="7.591212274469433"><ele>298.0</ele><time>2026-05-02T17:05:14Z</time></trkpt><trkpt lat="44.68307693030024" lon="7.591395451804933"><ele>298.0</ele><time>2026-05-02T17:05:15Z</time></trkpt><trkpt lat="44.683135334235594" lon="7.591559855328428"><ele>298.0</ele><time>2026-05-02T17:05:16Z</time></trkpt><trkpt lat="44.68318800714875" lon="7.591753130916293"><ele>298.0</ele><time>2026-05-02T17:05:17Z</time></trkpt><trkpt lat="44.68322011846477" lon="7.591937593587743"><ele>297.2</ele><time>2026-05-02T17:05:18Z</time></trkpt><trkpt lat="44.68323786366407" lon="7.592050324396615"><ele>296.4</ele><time>2026-05-02T17:05:19Z</time></trkpt><trkpt lat="44.683172680305994" lon="7.592202607138278"><ele>295.59999999999997</ele><time>2026-05-02T17:05:21Z</time></trkpt><trkpt lat="44.68308916294246" lon="7.592271658786446"><ele>294.8</ele><time>2026-05-02T17:05:22Z</time></trkpt><trkpt lat="44.6829793680461" lon="7.5923232375700245"><ele>294.0</ele><time>2026-05-02T17:05:23Z</time></trkpt><trkpt lat="44.682846191869466" lon="7.592367417408041"><ele>294.59999999999997</ele><time>2026-05-02T17:05:24Z</time></trkpt><trkpt lat="44.68271985792713" lon="7.592417263582757"><ele>295.2</ele><time>2026-05-02T17:05:25Z</time></trkpt><trkpt lat="44.68261643980298" lon="7.592464965985417"><ele>295.79999999999995</ele><time>2026-05-02T17:05:26Z</time></trkpt><trkpt lat="44.68251894994413" lon="7.592491311367032"><ele>296.4</ele><time>2026-05-02T17:05:27Z</time></trkpt><trkpt lat="44.68241681447632" lon="7.592521631945883"><ele>297.0</ele><time>2026-05-02T17:05:28Z</time></trkpt><trkpt lat="44.6823135914311" lon="7.5925255356101715"><ele>297.0</ele><time>2026-05-02T17:05:29Z</time></trkpt><trkpt lat="44.68220473367609" lon="7.5925220967593825"><ele>297.0</ele><time>2026-05-02T17:05:30Z</time></trkpt><trkpt lat="44.68210477116494" lon="7.592510519584506"><ele>297.0</ele><time>2026-05-02T17:05:31Z</time></trkpt><trkpt lat="44.681994128481854" lon="7.592527058900185"><ele>297.0</ele><time>2026-05-02T17:05:32Z</time></trkpt><trkpt lat="44.681894553439115" lon="7.592548647766493"><ele>297.0</ele><time>2026-05-02T17:05:33Z</time></trkpt><trkpt lat="44.68178448706271" lon="7.59253854244541"><ele>297.5</ele><time>2026-05-02T17:05:34Z</time></trkpt><trkpt lat="44.68165703097454" lon="7.592496264521566"><ele>298.0</ele><time>2026-05-02T17:05:35Z</time></trkpt><trkpt lat="44.68151197781529" lon="7.5924044636718975"><ele>298.5</ele><time>2026-05-02T17:05:36Z</time></trkpt><trkpt lat="44.681364151279624" lon="7.59233342095661"><ele>299.0</ele><time>2026-05-02T17:05:37Z</time></trkpt><trkpt lat="44.68122191000546" lon="7.592298376186532"><ele>298.75</ele><time>2026-05-02T17:05:38Z</time></trkpt><trkpt lat="44.68108169502213" lon="7.592276479720078"><ele>298.5</ele><time>2026-05-02T17:05:39Z</time></trkpt><trkpt lat="44.6809496077769" lon="7.592222981620942"><ele>298.25</ele><time>2026-05-02T17:05:40Z</time></trkpt><trkpt lat="44.680809193151646" lon="7.592157428206133"><ele>298.0</ele><time>2026-05-02T17:05:41Z</time></trkpt><trkpt lat="44.6806601055077" lon="7.592130463494785"><ele>298.0</ele><time>2026-05-02T17:05:42Z</time></trkpt><trkpt lat="44.6805020269486" lon="7.592106815995376"><ele>298.0</ele><time>2026-05-02T17:05:43Z</time></trkpt><trkpt lat="44.6803374585238" lon="7.592097069889087"><ele>298.0</ele><time>2026-05-02T17:05:44Z</time></trkpt><trkpt lat="44.680170945939494" lon="7.592090859412838"><ele>298.3333333333333</ele><time>2026-05-02T17:05:45Z</time></trkpt><trkpt lat="44.67998844768248" lon="7.5920940745517935"><ele>298.6666666666667</ele><time>2026-05-02T17:05:46Z</time></trkpt><trkpt lat="44.67983522813792" lon="7.592140436789276"><ele>299.0</ele><time>2026-05-02T17:05:47Z</time></trkpt><trkpt lat="44.67969894328889" lon="7.592167550676747"><ele>299.0</ele><time>2026-05-02T17:05:48Z</time></trkpt><trkpt lat="44.679622751291284" lon="7.592205725994934"><ele>299.0</ele><time>2026-05-02T17:05:49Z</time></trkpt><trkpt lat="44.67959373258195" lon="7.592291942256713"><ele>299.0</ele><time>2026-05-02T17:05:50Z</time></trkpt><trkpt lat="44.679517838294046" lon="7.5923937722098715"><ele>299.0</ele><time>2026-05-02T17:05:51Z</time></trkpt><trkpt lat="44.679438622931315" lon="7.59247849261276"><ele>299.0</ele><time>2026-05-02T17:05:52Z</time></trkpt><trkpt lat="44.67931608102405" lon="7.592497206681184"><ele>299.75</ele><time>2026-05-02T17:05:53Z</time></trkpt><trkpt lat="44.67919425252032" lon="7.592501082604678"><ele>300.5</ele><time>2026-05-02T17:05:54Z</time></trkpt><trkpt lat="44.67906981093542" lon="7.592528472381505"><ele>301.25</ele><time>2026-05-02T17:05:55Z</time></trkpt><trkpt lat="44.678920342623606" lon="7.592592389536655"><ele>302.0</ele><time>2026-05-02T17:05:56Z</time></trkpt><trkpt lat="44.67876064238619" lon="7.5926327214471385"><ele>302.33333333333337</ele><time>2026-05-02T17:05:57Z</time></trkpt><trkpt lat="44.67859486992752" lon="7.592666669860836"><ele>302.6666666666667</ele><time>2026-05-02T17:05:58Z</time></trkpt><trkpt lat="44.678452196538316" lon="7.592701205464371"><ele>303.0</ele><time>2026-05-02T17:05:59Z</time></trkpt><trkpt lat="44.678312760406634" lon="7.592753705181124"><ele>303.0</ele><time>2026-05-02T17:06:00Z</time></trkpt><trkpt lat="44.67816877795199" lon="7.592831537804678"><ele>303.0</ele><time>2026-05-02T17:06:01Z</time></trkpt><trkpt lat="44.67805265711825" lon="7.592874985218654"><ele>303.0</ele><time>2026-05-02T17:06:02Z</time></trkpt><trkpt lat="44.67795020657039" lon="7.592905787201595"><ele>303.0</ele><time>2026-05-02T17:06:03Z</time></trkpt><trkpt lat="44.677877385948214" lon="7.592956704614834"><ele>302.5</ele><time>2026-05-02T17:06:04Z</time></trkpt><trkpt lat="44.67780878608747" lon="7.593065331220167"><ele>302.0</ele><time>2026-05-02T17:06:06Z</time></trkpt><trkpt lat="44.67777809019651" lon="7.593155863083911"><ele>301.5</ele><time>2026-05-02T17:06:08Z</time></trkpt><trkpt lat="44.677773250389535" lon="7.593254101047488"><ele>301.0</ele><time>2026-05-02T17:06:11Z</time></trkpt><trkpt lat="44.67777585902053" lon="7.593352913931918"><ele>300.5</ele><time>2026-05-02T17:06:40Z</time></trkpt><trkpt lat="44.6777920021348" lon="7.593456535960813"><ele>300.0</ele><time>2026-05-02T17:06:41Z</time></trkpt><trkpt lat="44.67780038257916" lon="7.593603382819789"><ele>300.0</ele><time>2026-05-02T17:06:42Z</time></trkpt><trkpt lat="44.67779614099868" lon="7.5937783624787185"><ele>300.0</ele><time>2026-05-02T17:06:43Z</time></trkpt><trkpt lat="44.67779538406013" lon="7.593959565887294"><ele>300.0</ele><time>2026-05-02T17:06:44Z</time></trkpt><trkpt lat="44.67781158679904" lon="7.594148232028823"><ele>300.0</ele><time>2026-05-02T17:06:45Z</time></trkpt><trkpt lat="44.67784000364409" lon="7.594324691356955"><ele>300.0</ele><time>2026-05-02T17:06:46Z</time></trkpt><trkpt lat="44.67787408026502" lon="7.594493034453233"><ele>300.0</ele><time>2026-05-02T17:06:47Z</time></trkpt><trkpt lat="44.67790041772917" lon="7.5946458660299845"><ele>300.0</ele><time>2026-05-02T17:06:48Z</time></trkpt><trkpt lat="44.67791790491563" lon="7.594782200542244"><ele>300.0</ele><time>2026-05-02T17:06:49Z</time></trkpt><trkpt lat="44.677936467546594" lon="7.594925173895662"><ele>300.0</ele><time>2026-05-02T17:06:50Z</time></trkpt><trkpt lat="44.67796827281899" lon="7.59508788042597"><ele>299.5</ele><time>2026-05-02T17:06:51Z</time></trkpt><trkpt lat="44.677994963729354" lon="7.595248461560463"><ele>299.0</ele><time>2026-05-02T17:06:52Z</time></trkpt><trkpt lat="44.67803147803639" lon="7.595424484043245"><ele>298.5</ele><time>2026-05-02T17:06:53Z</time></trkpt><trkpt lat="44.67806654276186" lon="7.59562885606122"><ele>298.0</ele><time>2026-05-02T17:06:54Z</time></trkpt><trkpt lat="44.6781023515777" lon="7.595843275279985"><ele>298.0</ele><time>2026-05-02T17:06:55Z</time></trkpt><trkpt lat="44.67813741859774" lon="7.596078813991453"><ele>298.0</ele><time>2026-05-02T17:06:56Z</time></trkpt><trkpt lat="44.67818166564741" lon="7.596316729118868"><ele>298.0</ele><time>2026-05-02T17:06:57Z</time></trkpt><trkpt lat="44.67821852307212" lon="7.596547584542731"><ele>297.66666666666663</ele><time>2026-05-02T17:06:58Z</time></trkpt><trkpt lat="44.67825479998982" lon="7.596763525540085"><ele>297.3333333333333</ele><time>2026-05-02T17:06:59Z</time></trkpt><trkpt lat="44.67829155043298" lon="7.596976654087131"><ele>297.0</ele><time>2026-05-02T17:07:00Z</time></trkpt><trkpt lat="44.67832348772579" lon="7.597179095874414"><ele>297.0</ele><time>2026-05-02T17:07:01Z</time></trkpt><trkpt lat="44.67834684548788" lon="7.597359546182049"><ele>297.0</ele><time>2026-05-02T17:07:02Z</time></trkpt><trkpt lat="44.67835089246724" lon="7.5975646399756345"><ele>297.0</ele><time>2026-05-02T17:07:03Z</time></trkpt><trkpt lat="44.678342350662746" lon="7.597769387838544"><ele>297.0</ele><time>2026-05-02T17:07:04Z</time></trkpt><trkpt lat="44.67834101468113" lon="7.597977642891062"><ele>297.3333333333333</ele><time>2026-05-02T17:07:05Z</time></trkpt><trkpt lat="44.67836776490633" lon="7.598199384407699"><ele>297.66666666666663</ele><time>2026-05-02T17:07:06Z</time></trkpt><trkpt lat="44.67842104301281" lon="7.598428980758997"><ele>298.0</ele><time>2026-05-02T17:07:07Z</time></trkpt><trkpt lat="44.67847631620595" lon="7.59866039010128"><ele>298.0</ele><time>2026-05-02T17:07:08Z</time></trkpt><trkpt lat="44.67852627163968" lon="7.598896866691216"><ele>298.0</ele><time>2026-05-02T17:07:09Z</time></trkpt><trkpt lat="44.678574181252415" lon="7.599114157273074"><ele>298.0</ele><time>2026-05-02T17:07:10Z</time></trkpt><trkpt lat="44.678622166850516" lon="7.599337891358551"><ele>296.66666666666663</ele><time>2026-05-02T17:07:11Z</time></trkpt><trkpt lat="44.67866734998416" lon="7.599557504940135"><ele>295.3333333333333</ele><time>2026-05-02T17:07:12Z</time></trkpt><trkpt lat="44.67871695271589" lon="7.59977429308262"><ele>294.0</ele><time>2026-05-02T17:07:13Z</time></trkpt><trkpt lat="44.678770470797446" lon="7.599988681504059"><ele>294.0</ele><time>2026-05-02T17:07:14Z</time></trkpt><trkpt lat="44.6788310925161" lon="7.6001998790344345"><ele>294.0</ele><time>2026-05-02T17:07:15Z</time></trkpt><trkpt lat="44.678901650552376" lon="7.600410924046337"><ele>294.0</ele><time>2026-05-02T17:07:16Z</time></trkpt><trkpt lat="44.67897562012504" lon="7.600619863892919"><ele>294.0</ele><time>2026-05-02T17:07:17Z</time></trkpt><trkpt lat="44.67904537568322" lon="7.600824887284189"><ele>294.0</ele><time>2026-05-02T17:07:18Z</time></trkpt><trkpt lat="44.67910856042888" lon="7.601028124679019"><ele>294.0</ele><time>2026-05-02T17:07:19Z</time></trkpt><trkpt lat="44.67915855304971" lon="7.601222025156081"><ele>294.0</ele><time>2026-05-02T17:07:20Z</time></trkpt><trkpt lat="44.67920950869546" lon="7.6014234328144985"><ele>294.0</ele><time>2026-05-02T17:07:21Z</time></trkpt><trkpt lat="44.67925992488662" lon="7.601638640201138"><ele>294.0</ele><time>2026-05-02T17:07:22Z</time></trkpt><trkpt lat="44.679304993207204" lon="7.601867110694823"><ele>294.0</ele><time>2026-05-02T17:07:23Z</time></trkpt><trkpt lat="44.67933950821633" lon="7.602101364606452"><ele>294.0</ele><time>2026-05-02T17:07:24Z</time></trkpt><trkpt lat="44.679370527541" lon="7.602334766127995"><ele>294.0</ele><time>2026-05-02T17:07:25Z</time></trkpt><trkpt lat="44.67940781920311" lon="7.602568303712521"><ele>294.0</ele><time>2026-05-02T17:07:26Z</time></trkpt><trkpt lat="44.679450706904454" lon="7.602805799906131"><ele>294.0</ele><time>2026-05-02T17:07:27Z</time></trkpt><trkpt lat="44.67949494296582" lon="7.603033587496285"><ele>294.0</ele><time>2026-05-02T17:07:28Z</time></trkpt><trkpt lat="44.67953397529645" lon="7.603257669405372"><ele>294.0</ele><time>2026-05-02T17:07:29Z</time></trkpt><trkpt lat="44.67957132867874" lon="7.603487713239997"><ele>294.0</ele><time>2026-05-02T17:07:30Z</time></trkpt><trkpt lat="44.67960611569884" lon="7.603722274102052"><ele>294.0</ele><time>2026-05-02T17:07:31Z</time></trkpt><trkpt lat="44.67964329784716" lon="7.603953025883313"><ele>294.0</ele><time>2026-05-02T17:07:32Z</time></trkpt><trkpt lat="44.67967837892001" lon="7.604180123094546"><ele>294.0</ele><time>2026-05-02T17:07:33Z</time></trkpt><trkpt lat="44.6797090467716" lon="7.604389390573227"><ele>294.0</ele><time>2026-05-02T17:07:34Z</time></trkpt><trkpt lat="44.67973888607046" lon="7.604594525565743"><ele>294.0</ele><time>2026-05-02T17:07:35Z</time></trkpt><trkpt lat="44.67977285980424" lon="7.604808661774993"><ele>294.0</ele><time>2026-05-02T17:07:36Z</time></trkpt><trkpt lat="44.67983198938886" lon="7.605002972231731"><ele>294.0</ele><time>2026-05-02T17:07:37Z</time></trkpt><trkpt lat="44.679894633037236" lon="7.605185736955386"><ele>294.0</ele><time>2026-05-02T17:07:38Z</time></trkpt><trkpt lat="44.67990555042974" lon="7.605375928209837"><ele>294.0</ele><time>2026-05-02T17:07:39Z</time></trkpt><trkpt lat="44.6799294920217" lon="7.605588752371664"><ele>294.0</ele><time>2026-05-02T17:07:40Z</time></trkpt><trkpt lat="44.67995271393822" lon="7.6058179975575175"><ele>294.0</ele><time>2026-05-02T17:07:41Z</time></trkpt><trkpt lat="44.679975657447386" lon="7.606044494217556"><ele>294.0</ele><time>2026-05-02T17:07:42Z</time></trkpt><trkpt lat="44.67999791483816" lon="7.606264217471588"><ele>294.0</ele><time>2026-05-02T17:07:43Z</time></trkpt><trkpt lat="44.68001271709698" lon="7.606467839601233"><ele>294.0</ele><time>2026-05-02T17:07:44Z</time></trkpt><trkpt lat="44.68002033540246" lon="7.6066607722919155"><ele>294.0</ele><time>2026-05-02T17:07:45Z</time></trkpt><trkpt lat="44.68003812352576" lon="7.606843180544829"><ele>294.0</ele><time>2026-05-02T17:07:46Z</time></trkpt><trkpt lat="44.68006885117459" lon="7.607003384184756"><ele>294.0</ele><time>2026-05-02T17:07:47Z</time></trkpt><trkpt lat="44.6800873977631" lon="7.6071647131843845"><ele>294.0</ele><time>2026-05-02T17:07:48Z</time></trkpt><trkpt lat="44.68010480887191" lon="7.607351604889772"><ele>294.0</ele><time>2026-05-02T17:07:49Z</time></trkpt><trkpt lat="44.680123449381554" lon="7.607552637628582"><ele>294.0</ele><time>2026-05-02T17:07:50Z</time></trkpt><trkpt lat="44.68014169082602" lon="7.6077635347945245"><ele>294.0</ele><time>2026-05-02T17:07:51Z</time></trkpt><trkpt lat="44.68016206978887" lon="7.6079778701646275"><ele>294.25</ele><time>2026-05-02T17:07:52Z</time></trkpt><trkpt lat="44.680177473848765" lon="7.608176831118729"><ele>294.5</ele><time>2026-05-02T17:07:53Z</time></trkpt><trkpt lat="44.680189818734554" lon="7.6083594565200166"><ele>294.75</ele><time>2026-05-02T17:07:54Z</time></trkpt><trkpt lat="44.68020460573679" lon="7.6085179249831265"><ele>295.0</ele><time>2026-05-02T17:07:55Z</time></trkpt><trkpt lat="44.6802165892679" lon="7.608653313374508"><ele>295.2</ele><time>2026-05-02T17:07:56Z</time></trkpt><trkpt lat="44.68020195293208" lon="7.608748961110183"><ele>295.4</ele><time>2026-05-02T17:07:57Z</time></trkpt><trkpt lat="44.68013503950319" lon="7.60885733944287"><ele>295.6</ele><time>2026-05-02T17:07:59Z</time></trkpt><trkpt lat="44.68004887820561" lon="7.608867378929633"><ele>295.8</ele><time>2026-05-02T17:08:01Z</time></trkpt><trkpt lat="44.67997708428302" lon="7.608818549052479"><ele>296.0</ele><time>2026-05-02T17:08:03Z</time></trkpt><trkpt lat="44.679864162237216" lon="7.608791052638499"><ele>296.0</ele><time>2026-05-02T17:08:05Z</time></trkpt><trkpt lat="44.6797619520236" lon="7.608790762269452"><ele>296.0</ele><time>2026-05-02T17:08:07Z</time></trkpt><trkpt lat="44.679743082211466" lon="7.6090453541211485"><ele>296.0</ele><time>2026-05-02T17:08:09Z</time></trkpt><trkpt lat="44.679757931370474" lon="7.609169389517255"><ele>296.0</ele><time>2026-05-02T17:08:10Z</time></trkpt><trkpt lat="44.67977395201734" lon="7.609279556067481"><ele>296.0</ele><time>2026-05-02T17:08:11Z</time></trkpt><trkpt lat="44.67978449992968" lon="7.609382702097848"><ele>296.0</ele><time>2026-05-02T17:08:12Z</time></trkpt><trkpt lat="44.679802016661" lon="7.609501523737551"><ele>296.0</ele><time>2026-05-02T17:08:13Z</time></trkpt><trkpt lat="44.679828780281774" lon="7.6096350200766425"><ele>296.0</ele><time>2026-05-02T17:08:14Z</time></trkpt><trkpt lat="44.679859743683615" lon="7.609772044459738"><ele>296.0</ele><time>2026-05-02T17:08:15Z</time></trkpt><trkpt lat="44.6798914981497" lon="7.609913079937317"><ele>296.0</ele><time>2026-05-02T17:08:16Z</time></trkpt><trkpt lat="44.679933671762605" lon="7.610060453268531"><ele>296.0</ele><time>2026-05-02T17:08:17Z</time></trkpt><trkpt lat="44.67998443003116" lon="7.610210162097879"><ele>296.0</ele><time>2026-05-02T17:08:18Z</time></trkpt><trkpt lat="44.68003140089971" lon="7.610359629146932"><ele>296.0</ele><time>2026-05-02T17:08:19Z</time></trkpt><trkpt lat="44.68007722304928" lon="7.610517879253007"><ele>295.5</ele><time>2026-05-02T17:08:20Z</time></trkpt><trkpt lat="44.68010878415959" lon="7.610696300409908"><ele>295.0</ele><time>2026-05-02T17:08:21Z</time></trkpt><trkpt lat="44.68016014318812" lon="7.610883161868005"><ele>294.5</ele><time>2026-05-02T17:08:22Z</time></trkpt><trkpt lat="44.680215860654364" lon="7.611080576147141"><ele>294.0</ele><time>2026-05-02T17:08:23Z</time></trkpt><trkpt lat="44.6802830048031" lon="7.611257548734724"><ele>294.0</ele><time>2026-05-02T17:08:24Z</time></trkpt><trkpt lat="44.68031790009129" lon="7.611450457034236"><ele>294.0</ele><time>2026-05-02T17:08:25Z</time></trkpt><trkpt lat="44.680393790884224" lon="7.611621077389798"><ele>294.0</ele><time>2026-05-02T17:08:26Z</time></trkpt><trkpt lat="44.68049167171718" lon="7.611767111846199"><ele>294.0</ele><time>2026-05-02T17:08:27Z</time></trkpt><trkpt lat="44.680587886304714" lon="7.611916177656992"><ele>293.5</ele><time>2026-05-02T17:08:28Z</time></trkpt><trkpt lat="44.680692915668956" lon="7.61205493632519"><ele>293.0</ele><time>2026-05-02T17:08:29Z</time></trkpt><trkpt lat="44.680782477089075" lon="7.612212572861269"><ele>292.5</ele><time>2026-05-02T17:08:30Z</time></trkpt><trkpt lat="44.680877178127936" lon="7.612358466580968"><ele>292.0</ele><time>2026-05-02T17:08:31Z</time></trkpt><trkpt lat="44.68097183083487" lon="7.612496969624914"><ele>292.0</ele><time>2026-05-02T17:08:32Z</time></trkpt><trkpt lat="44.68107574706617" lon="7.612618267610678"><ele>292.0</ele><time>2026-05-02T17:08:33Z</time></trkpt><trkpt lat="44.68118143177595" lon="7.612701280864805"><ele>292.0</ele><time>2026-05-02T17:08:34Z</time></trkpt><trkpt lat="44.68127766747187" lon="7.612791837673182"><ele>292.0</ele><time>2026-05-02T17:08:35Z</time></trkpt><trkpt lat="44.681366335126356" lon="7.612876971175441"><ele>292.2</ele><time>2026-05-02T17:08:36Z</time></trkpt><trkpt lat="44.681442241701184" lon="7.612946514858978"><ele>292.4</ele><time>2026-05-02T17:08:37Z</time></trkpt><trkpt lat="44.68150044370725" lon="7.613011576895277"><ele>292.6</ele><time>2026-05-02T17:08:38Z</time></trkpt><trkpt lat="44.681541652661394" lon="7.613078780462235"><ele>292.8</ele><time>2026-05-02T17:08:39Z</time></trkpt><trkpt lat="44.681539452625586" lon="7.613252581395778"><ele>293.0</ele><time>2026-05-02T17:08:41Z</time></trkpt><trkpt lat="44.68155563555922" lon="7.613403434400932"><ele>293.0</ele><time>2026-05-02T17:08:43Z</time></trkpt><trkpt lat="44.68156753745914" lon="7.613537076907892"><ele>293.0</ele><time>2026-05-02T17:08:45Z</time></trkpt><trkpt lat="44.681577717300605" lon="7.613655321213386"><ele>293.0</ele><time>2026-05-02T17:08:47Z</time></trkpt><trkpt lat="44.681587382126594" lon="7.613767583331078"><ele>293.0</ele><time>2026-05-02T17:08:50Z</time></trkpt><trkpt lat="44.68163605417123" lon="7.613824586587372"><ele>293.0</ele><time>2026-05-02T17:09:22Z</time></trkpt><trkpt lat="44.68163522393013" lon="7.613924871026929"><ele>293.0</ele><time>2026-05-02T17:09:24Z</time></trkpt><trkpt lat="44.68164127714574" lon="7.614028829796131"><ele>293.2</ele><time>2026-05-02T17:09:25Z</time></trkpt><trkpt lat="44.68165331402683" lon="7.614146357385423"><ele>293.4</ele><time>2026-05-02T17:09:26Z</time></trkpt><trkpt lat="44.681635521320594" lon="7.614277232366711"><ele>293.59999999999997</ele><time>2026-05-02T17:09:27Z</time></trkpt><trkpt lat="44.68165348722053" lon="7.614411160860194"><ele>293.8</ele><time>2026-05-02T17:09:28Z</time></trkpt><trkpt lat="44.68167534318635" lon="7.61455938590983"><ele>294.0</ele><time>2026-05-02T17:09:29Z</time></trkpt><trkpt lat="44.68169582038442" lon="7.61469826039787"><ele>294.0</ele><time>2026-05-02T17:09:30Z</time></trkpt><trkpt lat="44.68171682280277" lon="7.614840697590401"><ele>294.0</ele><time>2026-05-02T17:09:31Z</time></trkpt><trkpt lat="44.681740356558215" lon="7.614997342767442"><ele>294.0</ele><time>2026-05-02T17:09:32Z</time></trkpt><trkpt lat="44.68176350886024" lon="7.615144025424506"><ele>294.0</ele><time>2026-05-02T17:09:33Z</time></trkpt><trkpt lat="44.68178529482102" lon="7.615267804760802"><ele>294.0</ele><time>2026-05-02T17:09:34Z</time></trkpt><trkpt lat="44.68180572493872" lon="7.61537280992797"><ele>293.8</ele><time>2026-05-02T17:09:35Z</time></trkpt><trkpt lat="44.68183570338284" lon="7.615528755435532"><ele>293.59999999999997</ele><time>2026-05-02T17:09:37Z</time></trkpt><trkpt lat="44.68186537456096" lon="7.615710089558505"><ele>293.4</ele><time>2026-05-02T17:09:39Z</time></trkpt><trkpt lat="44.68187954503059" lon="7.615805989082988"><ele>293.2</ele><time>2026-05-02T17:09:40Z</time></trkpt><trkpt lat="44.68189263913829" lon="7.615899228663787"><ele>293.0</ele><time>2026-05-02T17:09:41Z</time></trkpt><trkpt lat="44.6819239781958" lon="7.616018771183941"><ele>293.0</ele><time>2026-05-02T17:09:43Z</time></trkpt><trkpt lat="44.68185159815644" lon="7.61601102434209"><ele>293.0</ele><time>2026-05-02T17:09:45Z</time></trkpt><trkpt lat="44.68177812396779" lon="7.615969748496251"><ele>293.0</ele><time>2026-05-02T17:09:46Z</time></trkpt><trkpt lat="44.681712218186924" lon="7.615932724328803"><ele>293.0</ele><time>2026-05-02T17:09:47Z</time></trkpt><trkpt lat="44.681646500838546" lon="7.615917623971934"><ele>293.0</ele><time>2026-05-02T17:09:48Z</time></trkpt><trkpt lat="44.68158769528438" lon="7.615883123376298"><ele>293.0</ele><time>2026-05-02T17:09:49Z</time></trkpt><trkpt lat="44.68147885286214" lon="7.615817459868968"><ele>293.0</ele><time>2026-05-02T17:09:51Z</time></trkpt><trkpt lat="44.68137935534642" lon="7.61573780398503"><ele>293.0</ele><time>2026-05-02T17:09:53Z</time></trkpt><trkpt lat="44.68127875395323" lon="7.615677515059238"><ele>293.0</ele><time>2026-05-02T17:09:55Z</time></trkpt><trkpt lat="44.68120024414085" lon="7.615630465301924"><ele>293.0</ele><time>2026-05-02T17:09:57Z</time></trkpt><trkpt lat="44.68113592578224" lon="7.615591920256886"><ele>293.0</ele><time>2026-05-02T17:10:02Z</time></trkpt><trkpt lat="44.681073366342424" lon="7.615564173722444"><ele>293.0</ele><time>2026-05-02T17:10:07Z</time></trkpt><trkpt lat="44.6809896471975" lon="7.615500814512495"><ele>293.0</ele><time>2026-05-02T17:10:09Z</time></trkpt><trkpt lat="44.68088365182592" lon="7.615430488000889"><ele>293.0</ele><time>2026-05-02T17:10:11Z</time></trkpt><trkpt lat="44.68081340221388" lon="7.61538469042951"><ele>293.0</ele><time>2026-05-02T17:10:12Z</time></trkpt><trkpt lat="44.680735013066126" lon="7.61533253093407"><ele>293.0</ele><time>2026-05-02T17:10:13Z</time></trkpt><trkpt lat="44.680645309071345" lon="7.615275978637815"><ele>293.0</ele><time>2026-05-02T17:10:14Z</time></trkpt><trkpt lat="44.68054122766285" lon="7.615207557941236"><ele>293.0</ele><time>2026-05-02T17:10:15Z</time></trkpt><trkpt lat="44.68043258947685" lon="7.615134475557696"><ele>293.0</ele><time>2026-05-02T17:10:16Z</time></trkpt><trkpt lat="44.68032561501531" lon="7.615058790435793"><ele>293.0</ele><time>2026-05-02T17:10:17Z</time></trkpt><trkpt lat="44.68022169270079" lon="7.614980667594437"><ele>293.0</ele><time>2026-05-02T17:10:18Z</time></trkpt><trkpt lat="44.68012214959743" lon="7.614907016239125"><ele>293.2</ele><time>2026-05-02T17:10:19Z</time></trkpt><trkpt lat="44.68002582076182" lon="7.6148361984732285"><ele>293.4</ele><time>2026-05-02T17:10:20Z</time></trkpt><trkpt lat="44.67993293075115" lon="7.614763754077247"><ele>293.59999999999997</ele><time>2026-05-02T17:10:21Z</time></trkpt><trkpt lat="44.679844178311384" lon="7.6146898858125995"><ele>293.8</ele><time>2026-05-02T17:10:22Z</time></trkpt><trkpt lat="44.67975823761814" lon="7.6146162421789585"><ele>294.0</ele><time>2026-05-02T17:10:23Z</time></trkpt><trkpt lat="44.67966592236488" lon="7.614550586830341"><ele>294.0</ele><time>2026-05-02T17:10:24Z</time></trkpt><trkpt lat="44.67957081050918" lon="7.614487097638235"><ele>294.0</ele><time>2026-05-02T17:10:25Z</time></trkpt><trkpt lat="44.6794817833103" lon="7.614419990285499"><ele>294.0</ele><time>2026-05-02T17:10:26Z</time></trkpt><trkpt lat="44.67939963022995" lon="7.614349666171212"><ele>294.0</ele><time>2026-05-02T17:10:27Z</time></trkpt><trkpt lat="44.67931950077017" lon="7.6142740772509425"><ele>294.0</ele><time>2026-05-02T17:10:28Z</time></trkpt><trkpt lat="44.679239056399304" lon="7.614195450992719"><ele>294.2</ele><time>2026-05-02T17:10:29Z</time></trkpt><trkpt lat="44.67916134301685" lon="7.614110043379388"><ele>294.4</ele><time>2026-05-02T17:10:30Z</time></trkpt><trkpt lat="44.67908307365772" lon="7.6140194667957175"><ele>294.6</ele><time>2026-05-02T17:10:31Z</time></trkpt><trkpt lat="44.67900323415196" lon="7.61392307838778"><ele>294.8</ele><time>2026-05-02T17:10:32Z</time></trkpt><trkpt lat="44.67892060984769" lon="7.613815973805998"><ele>295.0</ele><time>2026-05-02T17:10:33Z</time></trkpt><trkpt lat="44.67883621788946" lon="7.613694040986132"><ele>294.75</ele><time>2026-05-02T17:10:34Z</time></trkpt><trkpt lat="44.67874847680266" lon="7.613563610205881"><ele>294.5</ele><time>2026-05-02T17:10:35Z</time></trkpt><trkpt lat="44.678662941264065" lon="7.613429746322075"><ele>294.25</ele><time>2026-05-02T17:10:36Z</time></trkpt><trkpt lat="44.67858299505461" lon="7.613300803014421"><ele>294.0</ele><time>2026-05-02T17:10:37Z</time></trkpt><trkpt lat="44.67850583285054" lon="7.613172464836708"><ele>294.0</ele><time>2026-05-02T17:10:38Z</time></trkpt><trkpt lat="44.67842354626665" lon="7.613045668836247"><ele>294.0</ele><time>2026-05-02T17:10:39Z</time></trkpt><trkpt lat="44.678337064035446" lon="7.612924204624618"><ele>294.0</ele><time>2026-05-02T17:10:40Z</time></trkpt><trkpt lat="44.67824642566853" lon="7.612813990184972"><ele>294.0</ele><time>2026-05-02T17:10:41Z</time></trkpt><trkpt lat="44.67814528102685" lon="7.612714684054836"><ele>294.25</ele><time>2026-05-02T17:10:42Z</time></trkpt><trkpt lat="44.67803891074111" lon="7.612623458957433"><ele>294.5</ele><time>2026-05-02T17:10:43Z</time></trkpt><trkpt lat="44.67793372533512" lon="7.612537068226853"><ele>294.75</ele><time>2026-05-02T17:10:44Z</time></trkpt><trkpt lat="44.67782723210941" lon="7.612456085357831"><ele>295.0</ele><time>2026-05-02T17:10:45Z</time></trkpt><trkpt lat="44.67771651587607" lon="7.612382243938176"><ele>295.25</ele><time>2026-05-02T17:10:46Z</time></trkpt><trkpt lat="44.67760667162737" lon="7.61231471934641"><ele>295.5</ele><time>2026-05-02T17:10:47Z</time></trkpt><trkpt lat="44.677490437863725" lon="7.612265808068466"><ele>295.75</ele><time>2026-05-02T17:10:48Z</time></trkpt><trkpt lat="44.67736780240739" lon="7.612244916656852"><ele>296.0</ele><time>2026-05-02T17:10:49Z</time></trkpt><trkpt lat="44.67724230178971" lon="7.612246566576571"><ele>296.0</ele><time>2026-05-02T17:10:50Z</time></trkpt><trkpt lat="44.677116940004744" lon="7.612247874922924"><ele>296.0</ele><time>2026-05-02T17:10:51Z</time></trkpt><trkpt lat="44.67699653316835" lon="7.612238477271184"><ele>296.0</ele><time>2026-05-02T17:10:52Z</time></trkpt><trkpt lat="44.67687978230215" lon="7.612224704883005"><ele>296.0</ele><time>2026-05-02T17:10:53Z</time></trkpt><trkpt lat="44.67675665943346" lon="7.61221667783677"><ele>296.0</ele><time>2026-05-02T17:10:54Z</time></trkpt><trkpt lat="44.676640202738184" lon="7.612216692772418"><ele>296.0</ele><time>2026-05-02T17:10:55Z</time></trkpt><trkpt lat="44.67652098931222" lon="7.612217975939339"><ele>296.0</ele><time>2026-05-02T17:10:56Z</time></trkpt><trkpt lat="44.676398953378396" lon="7.612210346349605"><ele>296.0</ele><time>2026-05-02T17:10:57Z</time></trkpt><trkpt lat="44.67627713921735" lon="7.612200232891174"><ele>296.0</ele><time>2026-05-02T17:10:58Z</time></trkpt><trkpt lat="44.67614749581726" lon="7.612197498989984"><ele>296.0</ele><time>2026-05-02T17:10:59Z</time></trkpt><trkpt lat="44.67601962790841" lon="7.61219477049826"><ele>296.0</ele><time>2026-05-02T17:11:00Z</time></trkpt><trkpt lat="44.67589216148145" lon="7.6121814864352055"><ele>296.0</ele><time>2026-05-02T17:11:01Z</time></trkpt><trkpt lat="44.675764168197475" lon="7.612166241096181"><ele>296.5</ele><time>2026-05-02T17:11:02Z</time></trkpt><trkpt lat="44.67564027416856" lon="7.6121495662800625"><ele>297.0</ele><time>2026-05-02T17:11:03Z</time></trkpt><trkpt lat="44.67551538471084" lon="7.6121228539590255"><ele>297.5</ele><time>2026-05-02T17:11:04Z</time></trkpt><trkpt lat="44.67539422848546" lon="7.61208645806826"><ele>298.0</ele><time>2026-05-02T17:11:05Z</time></trkpt><trkpt lat="44.67527355940426" lon="7.612049391662482"><ele>298.25</ele><time>2026-05-02T17:11:06Z</time></trkpt><trkpt lat="44.675157599828474" lon="7.612010333687977"><ele>298.5</ele><time>2026-05-02T17:11:07Z</time></trkpt><trkpt lat="44.67503881390521" lon="7.611969450098208"><ele>298.75</ele><time>2026-05-02T17:11:08Z</time></trkpt><trkpt lat="44.67491995064863" lon="7.61192900542148"><ele>299.0</ele><time>2026-05-02T17:11:09Z</time></trkpt><trkpt lat="44.67480285044928" lon="7.6118827343069135"><ele>299.75</ele><time>2026-05-02T17:11:10Z</time></trkpt><trkpt lat="44.67468523061624" lon="7.611826923303192"><ele>300.5</ele><time>2026-05-02T17:11:11Z</time></trkpt><trkpt lat="44.67456843392792" lon="7.611765156707513"><ele>301.25</ele><time>2026-05-02T17:11:12Z</time></trkpt><trkpt lat="44.67445555150098" lon="7.611689665499756"><ele>302.0</ele><time>2026-05-02T17:11:13Z</time></trkpt><trkpt lat="44.67437344233861" lon="7.611550741048231"><ele>302.0</ele><time>2026-05-02T17:11:14Z</time></trkpt><trkpt lat="44.67428856284663" lon="7.611421981185381"><ele>302.0</ele><time>2026-05-02T17:11:15Z</time></trkpt><trkpt lat="44.67422554313522" lon="7.611262973689795"><ele>302.0</ele><time>2026-05-02T17:11:16Z</time></trkpt><trkpt lat="44.67416970630866" lon="7.61109581983134"><ele>302.0</ele><time>2026-05-02T17:11:17Z</time></trkpt><trkpt lat="44.67412012780305" lon="7.610926387185229"><ele>301.5</ele><time>2026-05-02T17:11:18Z</time></trkpt><trkpt lat="44.674074699629" lon="7.610770311647054"><ele>301.0</ele><time>2026-05-02T17:11:19Z</time></trkpt><trkpt lat="44.674023207002946" lon="7.610618970199943"><ele>300.5</ele><time>2026-05-02T17:11:20Z</time></trkpt><trkpt lat="44.67398334895823" lon="7.610474788978114"><ele>300.0</ele><time>2026-05-02T17:11:21Z</time></trkpt><trkpt lat="44.67394641826709" lon="7.610325662503959"><ele>299.5</ele><time>2026-05-02T17:11:22Z</time></trkpt><trkpt lat="44.67390698676667" lon="7.610173062998639"><ele>299.0</ele><time>2026-05-02T17:11:23Z</time></trkpt><trkpt lat="44.67386265798492" lon="7.610028880288804"><ele>298.5</ele><time>2026-05-02T17:11:24Z</time></trkpt><trkpt lat="44.673818619647975" lon="7.609883213708718"><ele>298.0</ele><time>2026-05-02T17:11:25Z</time></trkpt><trkpt lat="44.67377277757435" lon="7.609742870935691"><ele>298.0</ele><time>2026-05-02T17:11:26Z</time></trkpt><trkpt lat="44.6737169155301" lon="7.609607147655903"><ele>298.0</ele><time>2026-05-02T17:11:27Z</time></trkpt><trkpt lat="44.67365096373288" lon="7.609466888671861"><ele>298.0</ele><time>2026-05-02T17:11:28Z</time></trkpt><trkpt lat="44.673571657432454" lon="7.609330162884789"><ele>298.0</ele><time>2026-05-02T17:11:29Z</time></trkpt><trkpt lat="44.67347986026913" lon="7.609212017008818"><ele>298.5</ele><time>2026-05-02T17:11:30Z</time></trkpt><trkpt lat="44.67336851786648" lon="7.609124737210963"><ele>299.0</ele><time>2026-05-02T17:11:31Z</time></trkpt><trkpt lat="44.67325233208018" lon="7.609032558645468"><ele>299.5</ele><time>2026-05-02T17:11:32Z</time></trkpt><trkpt lat="44.67311212389337" lon="7.609018568184997"><ele>300.0</ele><time>2026-05-02T17:11:33Z</time></trkpt><trkpt lat="44.67296739668786" lon="7.609006052080586"><ele>300.0</ele><time>2026-05-02T17:11:34Z</time></trkpt><trkpt lat="44.672822562541896" lon="7.60897128296521"><ele>300.0</ele><time>2026-05-02T17:11:35Z</time></trkpt><trkpt lat="44.6726804377222" lon="7.608957088677546"><ele>300.0</ele><time>2026-05-02T17:11:36Z</time></trkpt><trkpt lat="44.67254249020531" lon="7.608925629101028"><ele>300.0</ele><time>2026-05-02T17:11:37Z</time></trkpt><trkpt lat="44.67240761689918" lon="7.6088813392131005"><ele>300.0</ele><time>2026-05-02T17:11:38Z</time></trkpt><trkpt lat="44.672281029473936" lon="7.608820243108317"><ele>300.0</ele><time>2026-05-02T17:11:39Z</time></trkpt><trkpt lat="44.67216637202782" lon="7.6087412430706864"><ele>300.0</ele><time>2026-05-02T17:11:39.999Z</time></trkpt><trkpt lat="44.67205721684877" lon="7.608652012827125"><ele>300.0</ele><time>2026-05-02T17:11:40.999Z</time></trkpt><trkpt lat="44.67195378122017" lon="7.608546725486272"><ele>300.0</ele><time>2026-05-02T17:11:41.999Z</time></trkpt><trkpt lat="44.67186109299586" lon="7.608439430136049"><ele>300.0</ele><time>2026-05-02T17:11:42.999Z</time></trkpt><trkpt lat="44.671756076660884" lon="7.608337511900094"><ele>300.0</ele><time>2026-05-02T17:11:43.999Z</time></trkpt><trkpt lat="44.671665460932495" lon="7.608206790434536"><ele>300.0</ele><time>2026-05-02T17:11:44.999Z</time></trkpt><trkpt lat="44.67157095583065" lon="7.608072096837662"><ele>300.0</ele><time>2026-05-02T17:11:46Z</time></trkpt><trkpt lat="44.671475403312414" lon="7.6079415582506345"><ele>300.0</ele><time>2026-05-02T17:11:47Z</time></trkpt><trkpt lat="44.67137295216258" lon="7.607806298883354"><ele>300.0</ele><time>2026-05-02T17:11:48Z</time></trkpt><trkpt lat="44.67126652102259" lon="7.607659444735108"><ele>300.0</ele><time>2026-05-02T17:11:49Z</time></trkpt><trkpt lat="44.67117682961767" lon="7.607476084865814"><ele>300.3333333333333</ele><time>2026-05-02T17:11:50Z</time></trkpt><trkpt lat="44.671078383072604" lon="7.60729377705522"><ele>300.66666666666663</ele><time>2026-05-02T17:11:51Z</time></trkpt><trkpt lat="44.67097904847719" lon="7.607134347888965"><ele>301.0</ele><time>2026-05-02T17:11:52Z</time></trkpt><trkpt lat="44.67089596604735" lon="7.606961752227308"><ele>301.66666666666663</ele><time>2026-05-02T17:11:53Z</time></trkpt><trkpt lat="44.67080843251719" lon="7.606789730787299"><ele>302.3333333333333</ele><time>2026-05-02T17:11:54Z</time></trkpt><trkpt lat="44.670716838680704" lon="7.606617473839676"><ele>303.0</ele><time>2026-05-02T17:11:55Z</time></trkpt><trkpt lat="44.67062885995417" lon="7.606443750920611"><ele>303.0</ele><time>2026-05-02T17:11:56Z</time></trkpt><trkpt lat="44.670541853050636" lon="7.606271710992185"><ele>303.0</ele><time>2026-05-02T17:11:57Z</time></trkpt><trkpt lat="44.67045441747433" lon="7.606102826544373"><ele>303.0</ele><time>2026-05-02T17:11:58Z</time></trkpt><trkpt lat="44.67036506844379" lon="7.605937580175844"><ele>303.0</ele><time>2026-05-02T17:11:59Z</time></trkpt><trkpt lat="44.67028489883988" lon="7.605776560656153"><ele>302.5</ele><time>2026-05-02T17:12:00Z</time></trkpt><trkpt lat="44.67020453253898" lon="7.6056183414755125"><ele>302.0</ele><time>2026-05-02T17:12:01Z</time></trkpt><trkpt lat="44.670119615054574" lon="7.605463273429142"><ele>301.5</ele><time>2026-05-02T17:12:02Z</time></trkpt><trkpt lat="44.6700374847691" lon="7.605305175960838"><ele>301.0</ele><time>2026-05-02T17:12:03Z</time></trkpt><trkpt lat="44.6699544427691" lon="7.605146701396514"><ele>301.0</ele><time>2026-05-02T17:12:04Z</time></trkpt><trkpt lat="44.669880564557616" lon="7.604991901067808"><ele>301.0</ele><time>2026-05-02T17:12:05Z</time></trkpt><trkpt lat="44.66980178017487" lon="7.604833435431822"><ele>301.0</ele><time>2026-05-02T17:12:06Z</time></trkpt><trkpt lat="44.66971838827906" lon="7.604675590319896"><ele>301.0</ele><time>2026-05-02T17:12:07Z</time></trkpt><trkpt lat="44.66963238024871" lon="7.604517451850371"><ele>300.75</ele><time>2026-05-02T17:12:08Z</time></trkpt><trkpt lat="44.669550183107994" lon="7.604357417645715"><ele>300.5</ele><time>2026-05-02T17:12:09Z</time></trkpt><trkpt lat="44.669467637631016" lon="7.604197841791387"><ele>300.25</ele><time>2026-05-02T17:12:10Z</time></trkpt><trkpt lat="44.669387207250146" lon="7.604041471208357"><ele>300.0</ele><time>2026-05-02T17:12:11Z</time></trkpt><trkpt lat="44.6693072652057" lon="7.603891013246193"><ele>300.5</ele><time>2026-05-02T17:12:12Z</time></trkpt><trkpt lat="44.669220203314374" lon="7.603745255871742"><ele>301.0</ele><time>2026-05-02T17:12:13Z</time></trkpt><trkpt lat="44.66912836468104" lon="7.603596004072165"><ele>301.5</ele><time>2026-05-02T17:12:14Z</time></trkpt><trkpt lat="44.6690323719833" lon="7.603450083489684"><ele>302.0</ele><time>2026-05-02T17:12:15Z</time></trkpt><trkpt lat="44.668940667696" lon="7.603307437503192"><ele>302.0</ele><time>2026-05-02T17:12:16Z</time></trkpt><trkpt lat="44.66884708646656" lon="7.603160870893463"><ele>302.0</ele><time>2026-05-02T17:12:17Z</time></trkpt><trkpt lat="44.6687583854674" lon="7.603008202265654"><ele>302.0</ele><time>2026-05-02T17:12:18Z</time></trkpt><trkpt lat="44.668680103518014" lon="7.6028453731773125"><ele>302.0</ele><time>2026-05-02T17:12:19Z</time></trkpt><trkpt lat="44.66861036537614" lon="7.60266993382188"><ele>302.0</ele><time>2026-05-02T17:12:20Z</time></trkpt><trkpt lat="44.66856754176422" lon="7.602474450436475"><ele>302.0</ele><time>2026-05-02T17:12:21Z</time></trkpt><trkpt lat="44.66850788934742" lon="7.602293756214086"><ele>302.0</ele><time>2026-05-02T17:12:22Z</time></trkpt><trkpt lat="44.668493770572155" lon="7.602094229501605"><ele>302.0</ele><time>2026-05-02T17:12:23Z</time></trkpt><trkpt lat="44.66845926447425" lon="7.601900071641009"><ele>302.0</ele><time>2026-05-02T17:12:24Z</time></trkpt><trkpt lat="44.66845572994409" lon="7.601696489322423"><ele>302.0</ele><time>2026-05-02T17:12:25Z</time></trkpt><trkpt lat="44.66846348367074" lon="7.601496052609242"><ele>302.0</ele><time>2026-05-02T17:12:26Z</time></trkpt><trkpt lat="44.6685012122127" lon="7.601301427678127"><ele>302.0</ele><time>2026-05-02T17:12:27Z</time></trkpt><trkpt lat="44.66851478037987" lon="7.6010972129296315"><ele>302.0</ele><time>2026-05-02T17:12:28Z</time></trkpt><trkpt lat="44.66855337835039" lon="7.600908638310766"><ele>302.0</ele><time>2026-05-02T17:12:29Z</time></trkpt><trkpt lat="44.66858136297458" lon="7.600728172381517"><ele>302.0</ele><time>2026-05-02T17:12:30Z</time></trkpt><trkpt lat="44.668604943808084" lon="7.6005586445667515"><ele>302.0</ele><time>2026-05-02T17:12:31Z</time></trkpt><trkpt lat="44.66864211951468" lon="7.6004069747213405"><ele>302.0</ele><time>2026-05-02T17:12:32Z</time></trkpt><trkpt lat="44.66865349994853" lon="7.600283617161575"><ele>302.0</ele><time>2026-05-02T17:12:33Z</time></trkpt><trkpt lat="44.66864363385681" lon="7.600154521408804"><ele>302.0</ele><time>2026-05-02T17:12:34Z</time></trkpt><trkpt lat="44.66860493182113" lon="7.600039161585037"><ele>302.0</ele><time>2026-05-02T17:12:35Z</time></trkpt><trkpt lat="44.66850269534045" lon="7.59998546808303"><ele>302.0</ele><time>2026-05-02T17:12:36Z</time></trkpt><trkpt lat="44.66840995082682" lon="7.599921521633759"><ele>302.25</ele><time>2026-05-02T17:12:37Z</time></trkpt><trkpt lat="44.66830692652448" lon="7.5998789612037925"><ele>302.5</ele><time>2026-05-02T17:12:38Z</time></trkpt><trkpt lat="44.66820187705358" lon="7.599795860257398"><ele>302.75</ele><time>2026-05-02T17:12:39Z</time></trkpt><trkpt lat="44.66807540269932" lon="7.599747282357008"><ele>303.0</ele><time>2026-05-02T17:12:40Z</time></trkpt><trkpt lat="44.667948171201814" lon="7.5996719533571895"><ele>303.0</ele><time>2026-05-02T17:12:41Z</time></trkpt><trkpt lat="44.66782793188866" lon="7.599603123530774"><ele>303.0</ele><time>2026-05-02T17:12:42Z</time></trkpt><trkpt lat="44.66770496121446" lon="7.599533644734295"><ele>303.0</ele><time>2026-05-02T17:12:43Z</time></trkpt><trkpt lat="44.66758237434819" lon="7.5994630055447585"><ele>303.0</ele><time>2026-05-02T17:12:44Z</time></trkpt><trkpt lat="44.66746525586217" lon="7.59937632491485"><ele>303.0</ele><time>2026-05-02T17:12:45Z</time></trkpt><trkpt lat="44.66734313653686" lon="7.599296820050811"><ele>303.0</ele><time>2026-05-02T17:12:46Z</time></trkpt><trkpt lat="44.66721909272079" lon="7.599186433630766"><ele>303.0</ele><time>2026-05-02T17:12:47Z</time></trkpt><trkpt lat="44.66711092126862" lon="7.599056005384557"><ele>303.0</ele><time>2026-05-02T17:12:48Z</time></trkpt><trkpt lat="44.66703132429558" lon="7.5989434136498755"><ele>303.0</ele><time>2026-05-02T17:12:49Z</time></trkpt><trkpt lat="44.66695880674097" lon="7.598850267234751"><ele>303.0</ele><time>2026-05-02T17:12:50Z</time></trkpt><trkpt lat="44.66690077035743" lon="7.598781114146812"><ele>303.0</ele><time>2026-05-02T17:12:51Z</time></trkpt><trkpt lat="44.66682964704097" lon="7.598747338363224"><ele>303.0</ele><time>2026-05-02T17:12:52Z</time></trkpt><trkpt lat="44.66672953213973" lon="7.598784994059784"><ele>303.0</ele><time>2026-05-02T17:12:53Z</time></trkpt><trkpt lat="44.666632488956495" lon="7.598845157440738"><ele>303.75</ele><time>2026-05-02T17:12:54Z</time></trkpt><trkpt lat="44.666529607449604" lon="7.598930718243803"><ele>304.5</ele><time>2026-05-02T17:12:55Z</time></trkpt><trkpt lat="44.66642057718031" lon="7.599005434491404"><ele>305.25</ele><time>2026-05-02T17:12:56Z</time></trkpt><trkpt lat="44.666308216688904" lon="7.59907292551726"><ele>306.0</ele><time>2026-05-02T17:12:57Z</time></trkpt><trkpt lat="44.66618622387518" lon="7.599146675758956"><ele>306.25</ele><time>2026-05-02T17:12:58Z</time></trkpt><trkpt lat="44.66605457977482" lon="7.599229836408439"><ele>306.5</ele><time>2026-05-02T17:12:59Z</time></trkpt><trkpt lat="44.66592474105881" lon="7.599305140752332"><ele>306.75</ele><time>2026-05-02T17:13:00Z</time></trkpt><trkpt lat="44.66580041340269" lon="7.599381321507236"><ele>307.0</ele><time>2026-05-02T17:13:01Z</time></trkpt><trkpt lat="44.665674980481384" lon="7.599457012830171"><ele>307.0</ele><time>2026-05-02T17:13:02Z</time></trkpt><trkpt lat="44.66554361486913" lon="7.5995166040018205"><ele>307.0</ele><time>2026-05-02T17:13:03Z</time></trkpt><trkpt lat="44.665415756710914" lon="7.59959273168489"><ele>307.0</ele><time>2026-05-02T17:13:04Z</time></trkpt><trkpt lat="44.66529370115983" lon="7.599686725796919"><ele>307.0</ele><time>2026-05-02T17:13:05Z</time></trkpt><trkpt lat="44.665159568352024" lon="7.599766776215087"><ele>307.0</ele><time>2026-05-02T17:13:06Z</time></trkpt><trkpt lat="44.66501249062742" lon="7.599849995305784"><ele>307.0</ele><time>2026-05-02T17:13:07Z</time></trkpt><trkpt lat="44.664862883842254" lon="7.599943093625677"><ele>307.0</ele><time>2026-05-02T17:13:08Z</time></trkpt><trkpt lat="44.664710454323284" lon="7.60001356007715"><ele>307.0</ele><time>2026-05-02T17:13:09Z</time></trkpt><trkpt lat="44.66455734741689" lon="7.600127979572444"><ele>307.0</ele><time>2026-05-02T17:13:10Z</time></trkpt><trkpt lat="44.66440487445696" lon="7.600211385972009"><ele>307.0</ele><time>2026-05-02T17:13:11Z</time></trkpt><trkpt lat="44.66426055115648" lon="7.600297966897556"><ele>306.66666666666663</ele><time>2026-05-02T17:13:12Z</time></trkpt><trkpt lat="44.66412135986989" lon="7.600379683399357"><ele>306.3333333333333</ele><time>2026-05-02T17:13:13Z</time></trkpt><trkpt lat="44.66398175920273" lon="7.600467390231196"><ele>306.0</ele><time>2026-05-02T17:13:14Z</time></trkpt><trkpt lat="44.66384476672761" lon="7.600556459259198"><ele>306.0</ele><time>2026-05-02T17:13:15Z</time></trkpt><trkpt lat="44.66370648363245" lon="7.60064371959597"><ele>306.0</ele><time>2026-05-02T17:13:16Z</time></trkpt><trkpt lat="44.66356710429878" lon="7.6007263061582355"><ele>306.0</ele><time>2026-05-02T17:13:17Z</time></trkpt><trkpt lat="44.66343167102687" lon="7.600808870610895"><ele>306.5</ele><time>2026-05-02T17:13:18Z</time></trkpt><trkpt lat="44.66330453694918" lon="7.600894508923014"><ele>307.0</ele><time>2026-05-02T17:13:19Z</time></trkpt><trkpt lat="44.663178865342196" lon="7.600973988652082"><ele>307.5</ele><time>2026-05-02T17:13:20Z</time></trkpt><trkpt lat="44.66305190194545" lon="7.601053900888842"><ele>308.0</ele><time>2026-05-02T17:13:21Z</time></trkpt><trkpt lat="44.66292475785585" lon="7.601131948420503"><ele>307.75</ele><time>2026-05-02T17:13:22Z</time></trkpt><trkpt lat="44.66279542357072" lon="7.601210413735581"><ele>307.5</ele><time>2026-05-02T17:13:23Z</time></trkpt><trkpt lat="44.662671079459926" lon="7.60128605172492"><ele>307.25</ele><time>2026-05-02T17:13:24Z</time></trkpt><trkpt lat="44.66255577993224" lon="7.6013785193701615"><ele>307.0</ele><time>2026-05-02T17:13:25Z</time></trkpt><trkpt lat="44.66243540591341" lon="7.601434113228838"><ele>307.0</ele><time>2026-05-02T17:13:26Z</time></trkpt><trkpt lat="44.66232809414014" lon="7.601500537585724"><ele>307.0</ele><time>2026-05-02T17:13:27Z</time></trkpt><trkpt lat="44.66224334534954" lon="7.60157681495487"><ele>307.0</ele><time>2026-05-02T17:13:28Z</time></trkpt><trkpt lat="44.662157955108654" lon="7.601606916046821"><ele>307.0</ele><time>2026-05-02T17:13:29Z</time></trkpt><trkpt lat="44.6620850637278" lon="7.601646676499508"><ele>307.0</ele><time>2026-05-02T17:13:30Z</time></trkpt><trkpt lat="44.66202244801914" lon="7.601663056319616"><ele>307.0</ele><time>2026-05-02T17:13:31Z</time></trkpt><trkpt lat="44.66193322123969" lon="7.601555502994227"><ele>307.16666666666663</ele><time>2026-05-02T17:13:33Z</time></trkpt><trkpt lat="44.661942730108926" lon="7.601436941193668"><ele>307.3333333333333</ele><time>2026-05-02T17:13:34Z</time></trkpt><trkpt lat="44.66190752015646" lon="7.601325125473805"><ele>307.5</ele><time>2026-05-02T17:13:35Z</time></trkpt><trkpt lat="44.661878660786805" lon="7.601232832927755"><ele>307.6666666666667</ele><time>2026-05-02T17:13:36Z</time></trkpt><trkpt lat="44.66182831144995" lon="7.601168715331592"><ele>307.83333333333337</ele><time>2026-05-02T17:13:36.999Z</time></trkpt><trkpt lat="44.66174226766068" lon="7.601149639948934"><ele>308.0</ele><time>2026-05-02T17:13:37.999Z</time></trkpt><trkpt lat="44.66165848574175" lon="7.601197091456058"><ele>308.0</ele><time>2026-05-02T17:13:38.999Z</time></trkpt><trkpt lat="44.661577479042656" lon="7.601216504732601"><ele>308.0</ele><time>2026-05-02T17:13:39.999Z</time></trkpt><trkpt lat="44.661481030053665" lon="7.601241599680837"><ele>308.0</ele><time>2026-05-02T17:13:40.999Z</time></trkpt><trkpt lat="44.66136899755825" lon="7.601277478446869"><ele>308.0</ele><time>2026-05-02T17:13:41.999Z</time></trkpt><trkpt lat="44.66125259354124" lon="7.601299338299102"><ele>308.0</ele><time>2026-05-02T17:13:42.999Z</time></trkpt><trkpt lat="44.66113259383296" lon="7.601334304261773"><ele>308.25</ele><time>2026-05-02T17:13:43.999Z</time></trkpt><trkpt lat="44.66099703015666" lon="7.601375781058575"><ele>308.5</ele><time>2026-05-02T17:13:44.999Z</time></trkpt><trkpt lat="44.660851534243534" lon="7.60141451846231"><ele>308.75</ele><time>2026-05-02T17:13:45.999Z</time></trkpt><trkpt lat="44.660704079170806" lon="7.601453322171884"><ele>309.0</ele><time>2026-05-02T17:13:46.999Z</time></trkpt><trkpt lat="44.66055688297482" lon="7.6014921838132485"><ele>309.0</ele><time>2026-05-02T17:13:47.999Z</time></trkpt><trkpt lat="44.66040748506272" lon="7.601525875774476"><ele>309.0</ele><time>2026-05-02T17:13:48.999Z</time></trkpt><trkpt lat="44.6602520155139" lon="7.601546738540981"><ele>309.0</ele><time>2026-05-02T17:13:49.999Z</time></trkpt><trkpt lat="44.66008801995195" lon="7.601517874118523"><ele>309.0</ele><time>2026-05-02T17:13:50.999Z</time></trkpt><trkpt lat="44.65991227330501" lon="7.60150310234315"><ele>309.0</ele><time>2026-05-02T17:13:52Z</time></trkpt><trkpt lat="44.65973229178988" lon="7.60154730745339"><ele>309.0</ele><time>2026-05-02T17:13:53Z</time></trkpt><trkpt lat="44.65954767656736" lon="7.601601505078235"><ele>308.6666666666667</ele><time>2026-05-02T17:13:54Z</time></trkpt><trkpt lat="44.659364250936775" lon="7.601663750852935"><ele>308.33333333333337</ele><time>2026-05-02T17:13:55Z</time></trkpt><trkpt lat="44.65917461326169" lon="7.601713326920734"><ele>308.0</ele><time>2026-05-02T17:13:56Z</time></trkpt><trkpt lat="44.65897889660284" lon="7.6017598069014305"><ele>308.0</ele><time>2026-05-02T17:13:57Z</time></trkpt><trkpt lat="44.65877852024787" lon="7.601807032464819"><ele>308.0</ele><time>2026-05-02T17:13:58Z</time></trkpt><trkpt lat="44.65857632009546" lon="7.601852202543991"><ele>308.0</ele><time>2026-05-02T17:13:59Z</time></trkpt><trkpt lat="44.658374156026724" lon="7.601896203864746"><ele>308.33333333333337</ele><time>2026-05-02T17:14:00Z</time></trkpt><trkpt lat="44.65817729000366" lon="7.601942688704918"><ele>308.6666666666667</ele><time>2026-05-02T17:14:01Z</time></trkpt><trkpt lat="44.65799025860904" lon="7.60198475859119"><ele>309.0</ele><time>2026-05-02T17:14:02Z</time></trkpt><trkpt lat="44.657813435966546" lon="7.602022403683704"><ele>310.0</ele><time>2026-05-02T17:14:03Z</time></trkpt><trkpt lat="44.65764510815199" lon="7.602062406590819"><ele>311.0</ele><time>2026-05-02T17:14:04Z</time></trkpt><trkpt lat="44.65748466686046" lon="7.602106379166956"><ele>312.0</ele><time>2026-05-02T17:14:05Z</time></trkpt><trkpt lat="44.65733372873473" lon="7.602152126074036"><ele>312.0</ele><time>2026-05-02T17:14:06Z</time></trkpt><trkpt lat="44.65718395344417" lon="7.602195881795118"><ele>312.0</ele><time>2026-05-02T17:14:07Z</time></trkpt><trkpt lat="44.65704152842599" lon="7.60226685470554"><ele>312.0</ele><time>2026-05-02T17:14:08Z</time></trkpt><trkpt lat="44.656914753453044" lon="7.602309494942962"><ele>312.0</ele><time>2026-05-02T17:14:09Z</time></trkpt><trkpt lat="44.65680526526245" lon="7.602344749281477"><ele>312.3333333333333</ele><time>2026-05-02T17:14:10Z</time></trkpt><trkpt lat="44.65671229798547" lon="7.6023758058904125"><ele>312.6666666666667</ele><time>2026-05-02T17:14:11Z</time></trkpt><trkpt lat="44.65664180845089" lon="7.602399294867435"><ele>313.0</ele><time>2026-05-02T17:14:12Z</time></trkpt><trkpt lat="44.65657923342672" lon="7.602475520806947"><ele>313.33333333333337</ele><time>2026-05-02T17:14:14Z</time></trkpt><trkpt lat="44.65658135318825" lon="7.602605352092039"><ele>313.6666666666667</ele><time>2026-05-02T17:14:16Z</time></trkpt><trkpt lat="44.65659336229222" lon="7.602715223356898"><ele>314.0</ele><time>2026-05-02T17:14:17Z</time></trkpt><trkpt lat="44.65662963084621" lon="7.602853283435222"><ele>314.0</ele><time>2026-05-02T17:14:18Z</time></trkpt><trkpt lat="44.65667098122652" lon="7.603019586557359"><ele>314.0</ele><time>2026-05-02T17:14:19Z</time></trkpt><trkpt lat="44.65671127735434" lon="7.603197074646403"><ele>314.0</ele><time>2026-05-02T17:14:20Z</time></trkpt><trkpt lat="44.65675848780481" lon="7.603361743871517"><ele>314.0</ele><time>2026-05-02T17:14:21Z</time></trkpt><trkpt lat="44.65680073647322" lon="7.60351980627996"><ele>313.8</ele><time>2026-05-02T17:14:22Z</time></trkpt><trkpt lat="44.65682710175932" lon="7.603682525244111"><ele>313.59999999999997</ele><time>2026-05-02T17:14:23Z</time></trkpt><trkpt lat="44.65685488160492" lon="7.603833673219461"><ele>313.4</ele><time>2026-05-02T17:14:24Z</time></trkpt><trkpt lat="44.65688646853783" lon="7.6039796562746"><ele>313.2</ele><time>2026-05-02T17:14:25Z</time></trkpt><trkpt lat="44.65692164444773" lon="7.604123345837742"><ele>313.0</ele><time>2026-05-02T17:14:26Z</time></trkpt><trkpt lat="44.65696141803961" lon="7.604263496785436"><ele>312.8333333333333</ele><time>2026-05-02T17:14:27Z</time></trkpt><trkpt lat="44.65699712948506" lon="7.60438096562659"><ele>312.66666666666663</ele><time>2026-05-02T17:14:28Z</time></trkpt><trkpt lat="44.657022344156864" lon="7.60447605044484"><ele>312.5</ele><time>2026-05-02T17:14:29Z</time></trkpt><trkpt lat="44.65702249229173" lon="7.604596898359079"><ele>312.3333333333333</ele><time>2026-05-02T17:14:31Z</time></trkpt><trkpt lat="44.65690529806314" lon="7.604592420730761"><ele>312.1666666666667</ele><time>2026-05-02T17:14:33Z</time></trkpt><trkpt lat="44.656839961433604" lon="7.604615696543061"><ele>312.0</ele><time>2026-05-02T17:14:34Z</time></trkpt><trkpt lat="44.656773772095434" lon="7.6046311671106706"><ele>311.8333333333333</ele><time>2026-05-02T17:14:35Z</time></trkpt><trkpt lat="44.65669560354105" lon="7.6046267139884485"><ele>311.6666666666667</ele><time>2026-05-02T17:14:36Z</time></trkpt><trkpt lat="44.65660549302919" lon="7.60464082061392"><ele>311.5</ele><time>2026-05-02T17:14:37Z</time></trkpt><trkpt lat="44.65651536773652" lon="7.604654317194351"><ele>311.33333333333337</ele><time>2026-05-02T17:14:38Z</time></trkpt><trkpt lat="44.65642443811266" lon="7.604667940215881"><ele>311.1666666666667</ele><time>2026-05-02T17:14:39Z</time></trkpt><trkpt lat="44.656327873713686" lon="7.60468130437135"><ele>311.0</ele><time>2026-05-02T17:14:40Z</time></trkpt><trkpt lat="44.65622948052586" lon="7.604710666431365"><ele>311.0</ele><time>2026-05-02T17:14:41Z</time></trkpt><trkpt lat="44.65613165754674" lon="7.604717851485143"><ele>311.0</ele><time>2026-05-02T17:14:42Z</time></trkpt><trkpt lat="44.65604204986478" lon="7.604729527846438"><ele>311.0</ele><time>2026-05-02T17:14:43Z</time></trkpt><trkpt lat="44.65597069396096" lon="7.604738403985656"><ele>311.0</ele><time>2026-05-02T17:14:44Z</time></trkpt><trkpt lat="44.65585468684541" lon="7.604769994705728"><ele>311.0</ele><time>2026-05-02T17:14:46Z</time></trkpt><trkpt lat="44.6558166910444" lon="7.604956851336416"><ele>311.0</ele><time>2026-05-02T17:14:48Z</time></trkpt><trkpt lat="44.65583216448357" lon="7.605097262915772"><ele>311.0</ele><time>2026-05-02T17:14:49Z</time></trkpt><trkpt lat="44.65585573015672" lon="7.6052545490455925"><ele>311.0</ele><time>2026-05-02T17:14:50Z</time></trkpt><trkpt lat="44.655876181038046" lon="7.605413364473361"><ele>311.0</ele><time>2026-05-02T17:14:51Z</time></trkpt><trkpt lat="44.65589418008015" lon="7.6055716104491085"><ele>311.0</ele><time>2026-05-02T17:14:52Z</time></trkpt><trkpt lat="44.655910173741134" lon="7.605731091982899"><ele>310.5</ele><time>2026-05-02T17:14:53Z</time></trkpt><trkpt lat="44.65592983067891" lon="7.605896443224751"><ele>310.0</ele><time>2026-05-02T17:14:54Z</time></trkpt><trkpt lat="44.65594847275235" lon="7.6060658525822245"><ele>309.5</ele><time>2026-05-02T17:14:55Z</time></trkpt><trkpt lat="44.655963173689784" lon="7.606247586106009"><ele>309.0</ele><time>2026-05-02T17:14:56Z</time></trkpt><trkpt lat="44.655978507961805" lon="7.60643302860545"><ele>308.75</ele><time>2026-05-02T17:14:57Z</time></trkpt><trkpt lat="44.655998081271335" lon="7.60660988347001"><ele>308.5</ele><time>2026-05-02T17:14:58Z</time></trkpt><trkpt lat="44.656015044697824" lon="7.6067815440143205"><ele>308.25</ele><time>2026-05-02T17:14:59Z</time></trkpt><trkpt lat="44.6560335405298" lon="7.60694554784442"><ele>308.0</ele><time>2026-05-02T17:15:00Z</time></trkpt><trkpt lat="44.65604996967936" lon="7.607110393522309"><ele>308.5</ele><time>2026-05-02T17:15:01Z</time></trkpt><trkpt lat="44.656065526594084" lon="7.607272055086294"><ele>309.0</ele><time>2026-05-02T17:15:02Z</time></trkpt><trkpt lat="44.65607766466895" lon="7.607434980988186"><ele>309.5</ele><time>2026-05-02T17:15:03Z</time></trkpt><trkpt lat="44.656090551330486" lon="7.607608694861147"><ele>310.0</ele><time>2026-05-02T17:15:04Z</time></trkpt><trkpt lat="44.65610799890343" lon="7.607787963542526"><ele>310.0</ele><time>2026-05-02T17:15:05Z</time></trkpt><trkpt lat="44.6561270043385" lon="7.607971305372914"><ele>310.0</ele><time>2026-05-02T17:15:06Z</time></trkpt><trkpt lat="44.65614615584632" lon="7.6081527250557"><ele>310.0</ele><time>2026-05-02T17:15:07Z</time></trkpt><trkpt lat="44.65616209340431" lon="7.608332244328883"><ele>310.0</ele><time>2026-05-02T17:15:08Z</time></trkpt><trkpt lat="44.656181974104136" lon="7.608513867219534"><ele>309.5</ele><time>2026-05-02T17:15:09Z</time></trkpt><trkpt lat="44.6562012068584" lon="7.608699021924054"><ele>309.0</ele><time>2026-05-02T17:15:10Z</time></trkpt><trkpt lat="44.65622187765456" lon="7.608886305047247"><ele>308.5</ele><time>2026-05-02T17:15:11Z</time></trkpt><trkpt lat="44.65624181769493" lon="7.609075857948814"><ele>308.0</ele><time>2026-05-02T17:15:12Z</time></trkpt><trkpt lat="44.65626220663589" lon="7.609265400517458"><ele>308.0</ele><time>2026-05-02T17:15:13Z</time></trkpt><trkpt lat="44.65628433737055" lon="7.609456442318348"><ele>308.0</ele><time>2026-05-02T17:15:14Z</time></trkpt><trkpt lat="44.65630721513746" lon="7.609648353443191"><ele>308.0</ele><time>2026-05-02T17:15:15Z</time></trkpt><trkpt lat="44.656327207960246" lon="7.609840643287113"><ele>308.0</ele><time>2026-05-02T17:15:16Z</time></trkpt><trkpt lat="44.656343816269896" lon="7.61003174563747"><ele>308.0</ele><time>2026-05-02T17:15:17Z</time></trkpt><trkpt lat="44.65636438913199" lon="7.610222204445381"><ele>308.0</ele><time>2026-05-02T17:15:18Z</time></trkpt><trkpt lat="44.65638413707645" lon="7.610411858067761"><ele>308.0</ele><time>2026-05-02T17:15:19Z</time></trkpt><trkpt lat="44.65638750584161" lon="7.610604334460519"><ele>308.0</ele><time>2026-05-02T17:15:20Z</time></trkpt><trkpt lat="44.65642203870908" lon="7.61078753794589"><ele>308.2</ele><time>2026-05-02T17:15:21Z</time></trkpt><trkpt lat="44.6564368399287" lon="7.610967144291667"><ele>308.4</ele><time>2026-05-02T17:15:22Z</time></trkpt><trkpt lat="44.65645421129615" lon="7.611134732879192"><ele>308.59999999999997</ele><time>2026-05-02T17:15:23Z</time></trkpt><trkpt lat="44.65647208730878" lon="7.611282879976229"><ele>308.8</ele><time>2026-05-02T17:15:24Z</time></trkpt><trkpt lat="44.65648898831466" lon="7.611405791763281"><ele>309.0</ele><time>2026-05-02T17:15:25Z</time></trkpt><trkpt lat="44.65650932251435" lon="7.61151902195303"><ele>309.0</ele><time>2026-05-02T17:15:26Z</time></trkpt><trkpt lat="44.65654721454777" lon="7.611615362241541"><ele>309.0</ele><time>2026-05-02T17:15:27Z</time></trkpt><trkpt lat="44.656602463173805" lon="7.6116909731885025"><ele>309.0</ele><time>2026-05-02T17:15:28Z</time></trkpt><trkpt lat="44.656674292248645" lon="7.6117302079993845"><ele>309.0</ele><time>2026-05-02T17:15:29Z</time></trkpt><trkpt lat="44.65675513752576" lon="7.611736406174494"><ele>309.0</ele><time>2026-05-02T17:15:30Z</time></trkpt><trkpt lat="44.65685573460181" lon="7.611732820324593"><ele>309.0</ele><time>2026-05-02T17:15:31Z</time></trkpt><trkpt lat="44.656981404969734" lon="7.611715692511834"><ele>309.0</ele><time>2026-05-02T17:15:32Z</time></trkpt><trkpt lat="44.65712397584446" lon="7.611689049074411"><ele>309.0</ele><time>2026-05-02T17:15:33Z</time></trkpt><trkpt lat="44.65724714325817" lon="7.611673246342838"><ele>309.0</ele><time>2026-05-02T17:15:34Z</time></trkpt><trkpt lat="44.657346046640136" lon="7.611673640765242"><ele>309.0</ele><time>2026-05-02T17:15:35Z</time></trkpt><trkpt lat="44.65742503596333" lon="7.611695318416201"><ele>309.0</ele><time>2026-05-02T17:15:36Z</time></trkpt><trkpt lat="44.65748919634576" lon="7.611751433639398"><ele>309.0</ele><time>2026-05-02T17:15:37Z</time></trkpt><trkpt lat="44.65753299535162" lon="7.6118557401779885"><ele>309.0</ele><time>2026-05-02T17:15:37.999Z</time></trkpt><trkpt lat="44.65753222410067" lon="7.612005314345915"><ele>309.0</ele><time>2026-05-02T17:15:38.999Z</time></trkpt><trkpt lat="44.657560500030044" lon="7.612187255592303"><ele>309.0</ele><time>2026-05-02T17:15:39.999Z</time></trkpt><trkpt lat="44.65757691456775" lon="7.612375259117903"><ele>309.0</ele><time>2026-05-02T17:15:40.999Z</time></trkpt><trkpt lat="44.657597228422674" lon="7.612581296537352"><ele>309.0</ele><time>2026-05-02T17:15:41.999Z</time></trkpt><trkpt lat="44.65762123222384" lon="7.612811608074451"><ele>309.0</ele><time>2026-05-02T17:15:42.999Z</time></trkpt><trkpt lat="44.65765746147686" lon="7.613055201745062"><ele>309.0</ele><time>2026-05-02T17:15:43.999Z</time></trkpt><trkpt lat="44.657667586377926" lon="7.61329003927614"><ele>309.0</ele><time>2026-05-02T17:15:44.999Z</time></trkpt><trkpt lat="44.65770645885169" lon="7.613505203373792"><ele>309.0</ele><time>2026-05-02T17:15:45.999Z</time></trkpt><trkpt lat="44.6577515360035" lon="7.613703200980388"><ele>309.0</ele><time>2026-05-02T17:15:46.999Z</time></trkpt><trkpt lat="44.65781367997855" lon="7.613884292001252"><ele>309.0</ele><time>2026-05-02T17:15:47.999Z</time></trkpt><trkpt lat="44.6578434456963" lon="7.614074848208516"><ele>309.0</ele><time>2026-05-02T17:15:48.999Z</time></trkpt><trkpt lat="44.65788955457444" lon="7.614252433514117"><ele>309.0</ele><time>2026-05-02T17:15:49.999Z</time></trkpt><trkpt lat="44.65793019654692" lon="7.614429536204954"><ele>309.0</ele><time>2026-05-02T17:15:50.999Z</time></trkpt><trkpt lat="44.65797623521878" lon="7.61460762523121"><ele>309.0</ele><time>2026-05-02T17:15:51.999Z</time></trkpt><trkpt lat="44.658033399904845" lon="7.6147698649081565"><ele>309.0</ele><time>2026-05-02T17:15:52.999Z</time></trkpt><trkpt lat="44.65809152557421" lon="7.614930599730257"><ele>309.0</ele><time>2026-05-02T17:15:53.999Z</time></trkpt><trkpt lat="44.65815047902515" lon="7.615089873865072"><ele>309.0</ele><time>2026-05-02T17:15:54.999Z</time></trkpt><trkpt lat="44.65818949518661" lon="7.61525296712387"><ele>309.0</ele><time>2026-05-02T17:15:55.999Z</time></trkpt><trkpt lat="44.65821845223485" lon="7.615423844646358"><ele>309.0</ele><time>2026-05-02T17:15:56.999Z</time></trkpt><trkpt lat="44.65825538768844" lon="7.615605826350295"><ele>309.0</ele><time>2026-05-02T17:15:58Z</time></trkpt><trkpt lat="44.658315542143875" lon="7.6157605697484"><ele>309.0</ele><time>2026-05-02T17:15:59Z</time></trkpt><trkpt lat="44.6583597465302" lon="7.615914430646384"><ele>309.0</ele><time>2026-05-02T17:16:00Z</time></trkpt><trkpt lat="44.65840782759599" lon="7.61605999147055"><ele>309.0</ele><time>2026-05-02T17:16:01Z</time></trkpt><trkpt lat="44.658453396052295" lon="7.6161942677973276"><ele>309.0</ele><time>2026-05-02T17:16:02Z</time></trkpt><trkpt lat="44.658497379915104" lon="7.616326387743994"><ele>309.0</ele><time>2026-05-02T17:16:03Z</time></trkpt><trkpt lat="44.65856564399104" lon="7.616446968060344"><ele>308.5</ele><time>2026-05-02T17:16:04Z</time></trkpt><trkpt lat="44.658668497881" lon="7.616549063197298"><ele>308.0</ele><time>2026-05-02T17:16:05Z</time></trkpt><trkpt lat="44.65877514473223" lon="7.616625429412828"><ele>307.5</ele><time>2026-05-02T17:16:06Z</time></trkpt><trkpt lat="44.658873729660456" lon="7.616697428875945"><ele>307.0</ele><time>2026-05-02T17:16:07Z</time></trkpt><trkpt lat="44.65895993663474" lon="7.61678749546093"><ele>307.0</ele><time>2026-05-02T17:16:08Z</time></trkpt><trkpt lat="44.659015094227485" lon="7.6169279088934845"><ele>307.0</ele><time>2026-05-02T17:16:09Z</time></trkpt><trkpt lat="44.659071014494806" lon="7.617080497996907"><ele>307.0</ele><time>2026-05-02T17:16:10Z</time></trkpt><trkpt lat="44.65913327883308" lon="7.617256723242913"><ele>307.0</ele><time>2026-05-02T17:16:11Z</time></trkpt><trkpt lat="44.659188152825266" lon="7.617443556510179"><ele>307.0</ele><time>2026-05-02T17:16:12Z</time></trkpt><trkpt lat="44.65923774695591" lon="7.617654147812195"><ele>307.0</ele><time>2026-05-02T17:16:13Z</time></trkpt><trkpt lat="44.65928634907723" lon="7.617869295036412"><ele>307.0</ele><time>2026-05-02T17:16:14Z</time></trkpt><trkpt lat="44.659335683188566" lon="7.618087681983608"><ele>307.0</ele><time>2026-05-02T17:16:15Z</time></trkpt><trkpt lat="44.65939169041045" lon="7.618322909164656"><ele>307.0</ele><time>2026-05-02T17:16:16Z</time></trkpt><trkpt lat="44.659454296615806" lon="7.61856683171692"><ele>307.0</ele><time>2026-05-02T17:16:17Z</time></trkpt><trkpt lat="44.65951625277752" lon="7.6188080498204656"><ele>307.0</ele><time>2026-05-02T17:16:18Z</time></trkpt><trkpt lat="44.65957874315157" lon="7.619051348236891"><ele>307.0</ele><time>2026-05-02T17:16:19Z</time></trkpt><trkpt lat="44.65964149151788" lon="7.619295650707073"><ele>307.0</ele><time>2026-05-02T17:16:20Z</time></trkpt><trkpt lat="44.659705484091816" lon="7.619544797906871"><ele>306.66666666666663</ele><time>2026-05-02T17:16:21Z</time></trkpt><trkpt lat="44.65977037818665" lon="7.619797454294465"><ele>306.3333333333333</ele><time>2026-05-02T17:16:22Z</time></trkpt><trkpt lat="44.65983736043817" lon="7.620058908891193"><ele>306.0</ele><time>2026-05-02T17:16:23Z</time></trkpt><trkpt lat="44.65990062755729" lon="7.620315143031394"><ele>305.6666666666667</ele><time>2026-05-02T17:16:24Z</time></trkpt><trkpt lat="44.6599549041261" lon="7.620558860147636"><ele>305.33333333333337</ele><time>2026-05-02T17:16:25Z</time></trkpt><trkpt lat="44.66000243207896" lon="7.6207913280538015"><ele>305.0</ele><time>2026-05-02T17:16:26Z</time></trkpt><trkpt lat="44.660046979684154" lon="7.621015876253174"><ele>305.6666666666667</ele><time>2026-05-02T17:16:27Z</time></trkpt><trkpt lat="44.66009010450789" lon="7.621233253052467"><ele>306.3333333333333</ele><time>2026-05-02T17:16:28Z</time></trkpt><trkpt lat="44.66013025958537" lon="7.621441884411215"><ele>307.0</ele><time>2026-05-02T17:16:29Z</time></trkpt><trkpt lat="44.660167279895305" lon="7.621638136362904"><ele>307.0</ele><time>2026-05-02T17:16:30Z</time></trkpt><trkpt lat="44.660201956672914" lon="7.621823803106211"><ele>307.0</ele><time>2026-05-02T17:16:31Z</time></trkpt><trkpt lat="44.66024633841236" lon="7.621995036798133"><ele>307.0</ele><time>2026-05-02T17:16:32Z</time></trkpt><trkpt lat="44.66027803669138" lon="7.622164399861123"><ele>307.0</ele><time>2026-05-02T17:16:33Z</time></trkpt><trkpt lat="44.660309542852765" lon="7.622322978867675"><ele>306.8</ele><time>2026-05-02T17:16:34Z</time></trkpt><trkpt lat="44.66033972447171" lon="7.622477826430387"><ele>306.6</ele><time>2026-05-02T17:16:35Z</time></trkpt><trkpt lat="44.66036850189209" lon="7.622625748755405"><ele>306.40000000000003</ele><time>2026-05-02T17:16:36Z</time></trkpt><trkpt lat="44.66040034061106" lon="7.622767863111872"><ele>306.2</ele><time>2026-05-02T17:16:37Z</time></trkpt><trkpt lat="44.66043426798731" lon="7.62290207967217"><ele>306.0</ele><time>2026-05-02T17:16:38Z</time></trkpt><trkpt lat="44.66047571291011" lon="7.623022627544918"><ele>306.0</ele><time>2026-05-02T17:16:39Z</time></trkpt><trkpt lat="44.66053551802877" lon="7.623124763458087"><ele>306.0</ele><time>2026-05-02T17:16:40Z</time></trkpt><trkpt lat="44.6606106897851" lon="7.623204450092962"><ele>306.0</ele><time>2026-05-02T17:16:41Z</time></trkpt><trkpt lat="44.66073632462317" lon="7.623190243516797"><ele>306.0</ele><time>2026-05-02T17:16:42Z</time></trkpt><trkpt lat="44.66085798228852" lon="7.623163576951666"><ele>306.0</ele><time>2026-05-02T17:16:43Z</time></trkpt><trkpt lat="44.660986391878986" lon="7.623127092770102"><ele>306.0</ele><time>2026-05-02T17:16:44Z</time></trkpt><trkpt lat="44.66110167990673" lon="7.6231192557436644"><ele>306.0</ele><time>2026-05-02T17:16:45Z</time></trkpt><trkpt lat="44.66128345235586" lon="7.623074526898528"><ele>306.0</ele><time>2026-05-02T17:16:46Z</time></trkpt><trkpt lat="44.66145326596495" lon="7.623066531691548"><ele>305.6666666666667</ele><time>2026-05-02T17:16:47Z</time></trkpt><trkpt lat="44.66162004103811" lon="7.623034954207157"><ele>305.33333333333337</ele><time>2026-05-02T17:16:48Z</time></trkpt><trkpt lat="44.66177877252454" lon="7.62300489971756"><ele>305.0</ele><time>2026-05-02T17:16:49Z</time></trkpt><trkpt lat="44.66192570889514" lon="7.6229770785255475"><ele>305.0</ele><time>2026-05-02T17:16:50Z</time></trkpt><trkpt lat="44.66206342089197" lon="7.622951595484816"><ele>305.0</ele><time>2026-05-02T17:16:51Z</time></trkpt><trkpt lat="44.662186611031046" lon="7.6229296563121505"><ele>305.0</ele><time>2026-05-02T17:16:52Z</time></trkpt><trkpt lat="44.66229180483256" lon="7.622917282368518"><ele>305.0</ele><time>2026-05-02T17:16:53Z</time></trkpt><trkpt lat="44.66237296637135" lon="7.622925555323225"><ele>305.0</ele><time>2026-05-02T17:16:54Z</time></trkpt><trkpt lat="44.66244082346969" lon="7.622946192554778"><ele>305.0</ele><time>2026-05-02T17:16:55Z</time></trkpt><trkpt lat="44.6624653331102" lon="7.623079237385503"><ele>305.0</ele><time>2026-05-02T17:16:56Z</time></trkpt><trkpt lat="44.66244769807117" lon="7.623216636509366"><ele>305.0</ele><time>2026-05-02T17:16:57Z</time></trkpt><trkpt lat="44.662457043583416" lon="7.6233782131769345"><ele>305.0</ele><time>2026-05-02T17:16:58Z</time></trkpt><trkpt lat="44.662467291818416" lon="7.62355539703203"><ele>305.25</ele><time>2026-05-02T17:16:59Z</time></trkpt><trkpt lat="44.66248445415111" lon="7.623743970710949"><ele>305.5</ele><time>2026-05-02T17:17:00Z</time></trkpt><trkpt lat="44.66249559583494" lon="7.623925783872759"><ele>305.75</ele><time>2026-05-02T17:17:01Z</time></trkpt><trkpt lat="44.66249532213804" lon="7.6241125750110665"><ele>306.0</ele><time>2026-05-02T17:17:02Z</time></trkpt><trkpt lat="44.66251866989354" lon="7.624297327291727"><ele>306.0</ele><time>2026-05-02T17:17:03Z</time></trkpt><trkpt lat="44.662514667375305" lon="7.624473330207936"><ele>306.0</ele><time>2026-05-02T17:17:04Z</time></trkpt><trkpt lat="44.66251276790076" lon="7.624643975220686"><ele>306.0</ele><time>2026-05-02T17:17:05Z</time></trkpt><trkpt lat="44.66251371522143" lon="7.6248093727404855"><ele>306.0</ele><time>2026-05-02T17:17:06Z</time></trkpt><trkpt lat="44.66251083830057" lon="7.6249769534488285"><ele>306.0</ele><time>2026-05-02T17:17:07Z</time></trkpt><trkpt lat="44.66250679424057" lon="7.625150304389189"><ele>306.0</ele><time>2026-05-02T17:17:08Z</time></trkpt><trkpt lat="44.662505449190014" lon="7.6253305236464675"><ele>306.0</ele><time>2026-05-02T17:17:09Z</time></trkpt><trkpt lat="44.66250555967866" lon="7.625502639959827"><ele>306.0</ele><time>2026-05-02T17:17:10Z</time></trkpt><trkpt lat="44.66250347234191" lon="7.625663696748131"><ele>306.0</ele><time>2026-05-02T17:17:11Z</time></trkpt><trkpt lat="44.66250242243674" lon="7.625814728468387"><ele>306.0</ele><time>2026-05-02T17:17:12Z</time></trkpt><trkpt lat="44.66249274429532" lon="7.625961214227721"><ele>306.0</ele><time>2026-05-02T17:17:13Z</time></trkpt><trkpt lat="44.66247858717193" lon="7.62609799432741"><ele>306.0</ele><time>2026-05-02T17:17:14Z</time></trkpt><trkpt lat="44.66244844439169" lon="7.626226758952231"><ele>306.0</ele><time>2026-05-02T17:17:15Z</time></trkpt><trkpt lat="44.66239086623046" lon="7.626369396464396"><ele>305.75</ele><time>2026-05-02T17:17:16Z</time></trkpt><trkpt lat="44.66231408693378" lon="7.626519329814344"><ele>305.5</ele><time>2026-05-02T17:17:17Z</time></trkpt><trkpt lat="44.6622219478434" lon="7.626675162276061"><ele>305.25</ele><time>2026-05-02T17:17:18Z</time></trkpt><trkpt lat="44.662122215957964" lon="7.626834633045501"><ele>305.0</ele><time>2026-05-02T17:17:19Z</time></trkpt><trkpt lat="44.662021933219876" lon="7.627013027226656"><ele>304.33333333333337</ele><time>2026-05-02T17:17:20Z</time></trkpt><trkpt lat="44.66193011683081" lon="7.627199997298096"><ele>303.6666666666667</ele><time>2026-05-02T17:17:21Z</time></trkpt><trkpt lat="44.66184900812953" lon="7.627408034653665"><ele>303.0</ele><time>2026-05-02T17:17:22Z</time></trkpt><trkpt lat="44.661786902729595" lon="7.627639899496515"><ele>303.6666666666667</ele><time>2026-05-02T17:17:23Z</time></trkpt><trkpt lat="44.66173488159224" lon="7.627886670210287"><ele>304.33333333333337</ele><time>2026-05-02T17:17:24Z</time></trkpt><trkpt lat="44.661708768848726" lon="7.628119547853096"><ele>305.0</ele><time>2026-05-02T17:17:25Z</time></trkpt><trkpt lat="44.66169560922047" lon="7.628346597704845"><ele>305.0</ele><time>2026-05-02T17:17:26Z</time></trkpt><trkpt lat="44.66168034047941" lon="7.628567994006327"><ele>305.0</ele><time>2026-05-02T17:17:27Z</time></trkpt><trkpt lat="44.66165838274225" lon="7.628779463003858"><ele>305.0</ele><time>2026-05-02T17:17:28Z</time></trkpt><trkpt lat="44.66162874523148" lon="7.628988075984965"><ele>305.0</ele><time>2026-05-02T17:17:29Z</time></trkpt><trkpt lat="44.66159035220537" lon="7.629188068047768"><ele>305.0</ele><time>2026-05-02T17:17:30Z</time></trkpt><trkpt lat="44.66152600583839" lon="7.629381207676521"><ele>305.0</ele><time>2026-05-02T17:17:31Z</time></trkpt><trkpt lat="44.661489360238896" lon="7.629589173631998"><ele>305.0</ele><time>2026-05-02T17:17:32Z</time></trkpt><trkpt lat="44.66144398985147" lon="7.6297903177144955"><ele>305.0</ele><time>2026-05-02T17:17:33Z</time></trkpt><trkpt lat="44.661384987322556" lon="7.6299759286869175"><ele>305.0</ele><time>2026-05-02T17:17:34Z</time></trkpt><trkpt lat="44.66135191632099" lon="7.63016569323887"><ele>305.0</ele><time>2026-05-02T17:17:35Z</time></trkpt><trkpt lat="44.66130105149513" lon="7.630330650748366"><ele>304.8</ele><time>2026-05-02T17:17:36Z</time></trkpt><trkpt lat="44.661256022227846" lon="7.630476286966041"><ele>304.6</ele><time>2026-05-02T17:17:37Z</time></trkpt><trkpt lat="44.66117720717405" lon="7.630585986538964"><ele>304.4</ele><time>2026-05-02T17:17:38Z</time></trkpt><trkpt lat="44.6610846742991" lon="7.630662267340797"><ele>304.2</ele><time>2026-05-02T17:17:39Z</time></trkpt><trkpt lat="44.66097093526793" lon="7.6306944553554965"><ele>304.0</ele><time>2026-05-02T17:17:40Z</time></trkpt><trkpt lat="44.66085123446195" lon="7.630724751723416"><ele>304.5</ele><time>2026-05-02T17:17:41Z</time></trkpt><trkpt lat="44.66072660649058" lon="7.6307752585674855"><ele>305.0</ele><time>2026-05-02T17:17:42Z</time></trkpt><trkpt lat="44.660602489667774" lon="7.630793689165506"><ele>305.5</ele><time>2026-05-02T17:17:42.999Z</time></trkpt><trkpt lat="44.660483000132515" lon="7.630820407468849"><ele>306.0</ele><time>2026-05-02T17:17:43.999Z</time></trkpt><trkpt lat="44.660363028771016" lon="7.630856835551347"><ele>306.0</ele><time>2026-05-02T17:17:44.999Z</time></trkpt><trkpt lat="44.66025237428596" lon="7.630903671666627"><ele>306.0</ele><time>2026-05-02T17:17:45.999Z</time></trkpt><trkpt lat="44.660155702298255" lon="7.63096619289253"><ele>306.0</ele><time>2026-05-02T17:17:46.999Z</time></trkpt><trkpt lat="44.66007521337804" lon="7.631052002879958"><ele>306.0</ele><time>2026-05-02T17:17:47.999Z</time></trkpt><trkpt lat="44.66001628088184" lon="7.631160639231798"><ele>306.0</ele><time>2026-05-02T17:17:48.999Z</time></trkpt><trkpt lat="44.65997562195236" lon="7.631277708622287"><ele>306.0</ele><time>2026-05-02T17:17:49.999Z</time></trkpt><trkpt lat="44.65994913330404" lon="7.631392429468625"><ele>306.0</ele><time>2026-05-02T17:17:50.999Z</time></trkpt><trkpt lat="44.65993177867249" lon="7.631513978480582"><ele>306.0</ele><time>2026-05-02T17:17:51.999Z</time></trkpt><trkpt lat="44.65991321181054" lon="7.631651120615635"><ele>306.0</ele><time>2026-05-02T17:17:52.999Z</time></trkpt><trkpt lat="44.65988673803177" lon="7.631804288199609"><ele>306.0</ele><time>2026-05-02T17:17:53.999Z</time></trkpt><trkpt lat="44.65986128907759" lon="7.631964346971831"><ele>306.25</ele><time>2026-05-02T17:17:54.999Z</time></trkpt><trkpt lat="44.659835346557195" lon="7.632127882621667"><ele>306.5</ele><time>2026-05-02T17:17:55.999Z</time></trkpt><trkpt lat="44.65980779929371" lon="7.632295422975175"><ele>306.75</ele><time>2026-05-02T17:17:56.999Z</time></trkpt><trkpt lat="44.659780642994356" lon="7.632477784092662"><ele>307.0</ele><time>2026-05-02T17:17:57.999Z</time></trkpt><trkpt lat="44.659750740433346" lon="7.632672050143433"><ele>307.0</ele><time>2026-05-02T17:17:58.999Z</time></trkpt><trkpt lat="44.65972145481238" lon="7.632852455607198"><ele>307.0</ele><time>2026-05-02T17:17:59.999Z</time></trkpt><trkpt lat="44.65969386568544" lon="7.633031767710829"><ele>307.0</ele><time>2026-05-02T17:18:00.999Z</time></trkpt><trkpt lat="44.65966785273667" lon="7.63322296200095"><ele>307.0</ele><time>2026-05-02T17:18:01.999Z</time></trkpt><trkpt lat="44.659635087643885" lon="7.633421132669236"><ele>307.0</ele><time>2026-05-02T17:18:02.999Z</time></trkpt><trkpt lat="44.659602399590405" lon="7.633630411169354"><ele>307.0</ele><time>2026-05-02T17:18:04Z</time></trkpt><trkpt lat="44.65956928842099" lon="7.633848844169049"><ele>307.0</ele><time>2026-05-02T17:18:05Z</time></trkpt><trkpt lat="44.6595342165321" lon="7.634074464630343"><ele>306.66666666666663</ele><time>2026-05-02T17:18:06Z</time></trkpt><trkpt lat="44.659501073631446" lon="7.63428980927041"><ele>306.3333333333333</ele><time>2026-05-02T17:18:07Z</time></trkpt><trkpt lat="44.659469427957056" lon="7.634496254428221"><ele>306.0</ele><time>2026-05-02T17:18:08Z</time></trkpt><trkpt lat="44.659438723076036" lon="7.634700923410589"><ele>306.0</ele><time>2026-05-02T17:18:09Z</time></trkpt><trkpt lat="44.6594062909098" lon="7.634906291334796"><ele>306.0</ele><time>2026-05-02T17:18:10Z</time></trkpt><trkpt lat="44.65937077548943" lon="7.6351138098500435"><ele>306.0</ele><time>2026-05-02T17:18:11Z</time></trkpt><trkpt lat="44.65933456713166" lon="7.635322934846848"><ele>306.3333333333333</ele><time>2026-05-02T17:18:12Z</time></trkpt><trkpt lat="44.65929455716786" lon="7.6355333817437385"><ele>306.66666666666663</ele><time>2026-05-02T17:18:13Z</time></trkpt><trkpt lat="44.659246947493706" lon="7.635739251317046"><ele>307.0</ele><time>2026-05-02T17:18:14Z</time></trkpt><trkpt lat="44.65919557400191" lon="7.635950616684331"><ele>306.66666666666663</ele><time>2026-05-02T17:18:15Z</time></trkpt><trkpt lat="44.65914226140689" lon="7.636157874145099"><ele>306.3333333333333</ele><time>2026-05-02T17:18:16Z</time></trkpt><trkpt lat="44.659085231587056" lon="7.636364169424194"><ele>306.0</ele><time>2026-05-02T17:18:17Z</time></trkpt><trkpt lat="44.6590301920955" lon="7.636571909329544"><ele>306.0</ele><time>2026-05-02T17:18:18Z</time></trkpt><trkpt lat="44.658982342911955" lon="7.6367834759059745"><ele>306.0</ele><time>2026-05-02T17:18:19Z</time></trkpt><trkpt lat="44.65894164285772" lon="7.636999166407463"><ele>306.0</ele><time>2026-05-02T17:18:20Z</time></trkpt><trkpt lat="44.6589014367868" lon="7.637216544421059"><ele>306.0</ele><time>2026-05-02T17:18:21Z</time></trkpt><trkpt lat="44.658856107984526" lon="7.637434893260457"><ele>306.0</ele><time>2026-05-02T17:18:22Z</time></trkpt><trkpt lat="44.658811250024954" lon="7.637652184166001"><ele>306.0</ele><time>2026-05-02T17:18:23Z</time></trkpt><trkpt lat="44.65877075239294" lon="7.6378719580340775"><ele>306.0</ele><time>2026-05-02T17:18:24Z</time></trkpt><trkpt lat="44.65872535590656" lon="7.6380916742005525"><ele>306.0</ele><time>2026-05-02T17:18:25Z</time></trkpt><trkpt lat="44.65866161986577" lon="7.638301881457533"><ele>306.0</ele><time>2026-05-02T17:18:26Z</time></trkpt><trkpt lat="44.658583773440085" lon="7.6385011330671775"><ele>306.6666666666667</ele><time>2026-05-02T17:18:27Z</time></trkpt><trkpt lat="44.65849817404192" lon="7.638697349038435"><ele>307.33333333333337</ele><time>2026-05-02T17:18:28Z</time></trkpt><trkpt lat="44.65841749098914" lon="7.638899980299087"><ele>308.0</ele><time>2026-05-02T17:18:29Z</time></trkpt><trkpt lat="44.65834033260745" lon="7.639101918984241"><ele>308.0</ele><time>2026-05-02T17:18:30Z</time></trkpt><trkpt lat="44.658272669588584" lon="7.639311493723724"><ele>308.0</ele><time>2026-05-02T17:18:31Z</time></trkpt><trkpt lat="44.65821638487214" lon="7.639526770064099"><ele>308.0</ele><time>2026-05-02T17:18:32Z</time></trkpt><trkpt lat="44.65816865681711" lon="7.639746129144832"><ele>307.6666666666667</ele><time>2026-05-02T17:18:33Z</time></trkpt><trkpt lat="44.6581199398311" lon="7.639965533149523"><ele>307.3333333333333</ele><time>2026-05-02T17:18:34Z</time></trkpt><trkpt lat="44.65807358502492" lon="7.640184822174937"><ele>307.0</ele><time>2026-05-02T17:18:35Z</time></trkpt><trkpt lat="44.65802696968589" lon="7.640404704741462"><ele>307.0</ele><time>2026-05-02T17:18:36Z</time></trkpt><trkpt lat="44.65797864400819" lon="7.6406259227620605"><ele>307.0</ele><time>2026-05-02T17:18:37Z</time></trkpt><trkpt lat="44.65792070469436" lon="7.64084916002072"><ele>307.0</ele><time>2026-05-02T17:18:38Z</time></trkpt><trkpt lat="44.65785647289268" lon="7.641063644024913"><ele>306.66666666666663</ele><time>2026-05-02T17:18:39Z</time></trkpt><trkpt lat="44.65778565211639" lon="7.641276671406001"><ele>306.3333333333333</ele><time>2026-05-02T17:18:40Z</time></trkpt><trkpt lat="44.657716586677736" lon="7.641490097514156"><ele>306.0</ele><time>2026-05-02T17:18:41Z</time></trkpt><trkpt lat="44.657653859147395" lon="7.641708063377622"><ele>306.0</ele><time>2026-05-02T17:18:42Z</time></trkpt><trkpt lat="44.65758566411687" lon="7.641912176875413"><ele>306.0</ele><time>2026-05-02T17:18:43Z</time></trkpt><trkpt lat="44.657544215760915" lon="7.642122292306358"><ele>306.0</ele><time>2026-05-02T17:18:44Z</time></trkpt><trkpt lat="44.65753249285657" lon="7.642322054722462"><ele>306.2</ele><time>2026-05-02T17:18:45Z</time></trkpt><trkpt lat="44.65750996962556" lon="7.642493275655447"><ele>306.40000000000003</ele><time>2026-05-02T17:18:46Z</time></trkpt><trkpt lat="44.657493738372935" lon="7.642637526819838"><ele>306.6</ele><time>2026-05-02T17:18:47Z</time></trkpt><trkpt lat="44.657479068763784" lon="7.642764341965572"><ele>306.8</ele><time>2026-05-02T17:18:48Z</time></trkpt><trkpt lat="44.6574675988404" lon="7.64288160932122"><ele>307.0</ele><time>2026-05-02T17:18:49Z</time></trkpt><trkpt lat="44.6574570835787" lon="7.642990054155817"><ele>307.0</ele><time>2026-05-02T17:18:50Z</time></trkpt><trkpt lat="44.657443678902965" lon="7.643078572213819"><ele>307.0</ele><time>2026-05-02T17:18:51Z</time></trkpt><trkpt lat="44.65742422012299" lon="7.64320711894314"><ele>307.0</ele><time>2026-05-02T17:18:53Z</time></trkpt></trkseg></trk></gpx>